<?xml version="1.0" encoding="UTF-8" standalone="no" ?>
<gpx xmlns="http://www.topografix.com/GPX/1/1" xmlns:xsi="http://www.w3.org/2001/XMLSchema-instance" xsi:schemaLocation="http://www.topografix.com/GPX/1/1 http://www.topografix.com/GPX/1/1/gpx.xsd" version="1.1" creator="VisuGPX - https://www.visugpx.com">
  <metadata>
    <name>sortie du 13 OCT 2019 08:59</name>
    <desc><![CDATA[sortie ensoleillée , parcours roulant.]]></desc>
  </metadata>
  <trk>
    <name><![CDATA[Tracé actuel: 13 OCT 2019 08:59]]></name>
    <trkseg>
      <trkpt lat="43.40466" lon="-0.56804">
        <ele>132.32</ele>
        <time>2019-10-13T06:59:30Z</time>
      </trkpt>
      <trkpt lat="43.40468" lon="-0.56806">
        <ele>131.84</ele>
        <time>2019-10-13T07:00:02Z</time>
      </trkpt>
      <trkpt lat="43.40467" lon="-0.56806">
        <ele>131.84</ele>
        <time>2019-10-13T07:00:08Z</time>
      </trkpt>
      <trkpt lat="43.40467" lon="-0.56811">
        <ele>132.32</ele>
        <time>2019-10-13T07:00:11Z</time>
      </trkpt>
      <trkpt lat="43.40475" lon="-0.56838">
        <ele>133.28</ele>
        <time>2019-10-13T07:00:19Z</time>
      </trkpt>
      <trkpt lat="43.40497" lon="-0.56856">
        <ele>132.8</ele>
        <time>2019-10-13T07:00:26Z</time>
      </trkpt>
      <trkpt lat="43.40501" lon="-0.56855">
        <ele>132.8</ele>
        <time>2019-10-13T07:00:27Z</time>
      </trkpt>
      <trkpt lat="43.40505" lon="-0.56854">
        <ele>132.8</ele>
        <time>2019-10-13T07:00:28Z</time>
      </trkpt>
      <trkpt lat="43.4057" lon="-0.5682">
        <ele>131.84</ele>
        <time>2019-10-13T07:00:44Z</time>
      </trkpt>
      <trkpt lat="43.4059" lon="-0.5681">
        <ele>131.84</ele>
        <time>2019-10-13T07:00:49Z</time>
      </trkpt>
      <trkpt lat="43.40594" lon="-0.56808">
        <ele>131.84</ele>
        <time>2019-10-13T07:00:50Z</time>
      </trkpt>
      <trkpt lat="43.40598" lon="-0.56807">
        <ele>131.84</ele>
        <time>2019-10-13T07:00:51Z</time>
      </trkpt>
      <trkpt lat="43.40602" lon="-0.56804">
        <ele>131.84</ele>
        <time>2019-10-13T07:00:52Z</time>
      </trkpt>
      <trkpt lat="43.40606" lon="-0.56803">
        <ele>131.84</ele>
        <time>2019-10-13T07:00:53Z</time>
      </trkpt>
      <trkpt lat="43.40678" lon="-0.5677">
        <ele>131.84</ele>
        <time>2019-10-13T07:01:10Z</time>
      </trkpt>
      <trkpt lat="43.40744" lon="-0.56745">
        <ele>131.84</ele>
        <time>2019-10-13T07:01:24Z</time>
      </trkpt>
      <trkpt lat="43.40803" lon="-0.56747">
        <ele>132.32</ele>
        <time>2019-10-13T07:01:36Z</time>
      </trkpt>
      <trkpt lat="43.40876" lon="-0.56729">
        <ele>132.8</ele>
        <time>2019-10-13T07:01:52Z</time>
      </trkpt>
      <trkpt lat="43.40887" lon="-0.56726">
        <ele>133.76</ele>
        <time>2019-10-13T07:01:56Z</time>
      </trkpt>
      <trkpt lat="43.40887" lon="-0.56728">
        <ele>133.76</ele>
        <time>2019-10-13T07:01:57Z</time>
      </trkpt>
      <trkpt lat="43.40886" lon="-0.56729">
        <ele>133.28</ele>
        <time>2019-10-13T07:01:58Z</time>
      </trkpt>
      <trkpt lat="43.40884" lon="-0.5673">
        <ele>133.28</ele>
        <time>2019-10-13T07:01:59Z</time>
      </trkpt>
      <trkpt lat="43.40882" lon="-0.5673">
        <ele>133.28</ele>
        <time>2019-10-13T07:02:00Z</time>
      </trkpt>
      <trkpt lat="43.40879" lon="-0.5673">
        <ele>133.28</ele>
        <time>2019-10-13T07:02:01Z</time>
      </trkpt>
      <trkpt lat="43.40876" lon="-0.5673">
        <ele>133.28</ele>
        <time>2019-10-13T07:02:02Z</time>
      </trkpt>
      <trkpt lat="43.40873" lon="-0.56733">
        <ele>133.28</ele>
        <time>2019-10-13T07:02:03Z</time>
      </trkpt>
      <trkpt lat="43.40871" lon="-0.56738">
        <ele>133.28</ele>
        <time>2019-10-13T07:02:04Z</time>
      </trkpt>
      <trkpt lat="43.40871" lon="-0.56744">
        <ele>133.28</ele>
        <time>2019-10-13T07:02:05Z</time>
      </trkpt>
      <trkpt lat="43.40872" lon="-0.56748">
        <ele>133.28</ele>
        <time>2019-10-13T07:02:06Z</time>
      </trkpt>
      <trkpt lat="43.40874" lon="-0.56752">
        <ele>133.28</ele>
        <time>2019-10-13T07:02:07Z</time>
      </trkpt>
      <trkpt lat="43.40888" lon="-0.56817">
        <ele>131.84</ele>
        <time>2019-10-13T07:02:20Z</time>
      </trkpt>
      <trkpt lat="43.4091" lon="-0.56907">
        <ele>130.88</ele>
        <time>2019-10-13T07:02:35Z</time>
      </trkpt>
      <trkpt lat="43.40942" lon="-0.5704">
        <ele>129.92</ele>
        <time>2019-10-13T07:02:55Z</time>
      </trkpt>
      <trkpt lat="43.40975" lon="-0.57167">
        <ele>128.95</ele>
        <time>2019-10-13T07:03:15Z</time>
      </trkpt>
      <trkpt lat="43.4099" lon="-0.57208">
        <ele>128.95</ele>
        <time>2019-10-13T07:03:22Z</time>
      </trkpt>
      <trkpt lat="43.40993" lon="-0.57213">
        <ele>128.95</ele>
        <time>2019-10-13T07:03:23Z</time>
      </trkpt>
      <trkpt lat="43.41043" lon="-0.5728">
        <ele>128.95</ele>
        <time>2019-10-13T07:03:38Z</time>
      </trkpt>
      <trkpt lat="43.41047" lon="-0.57285">
        <ele>128.95</ele>
        <time>2019-10-13T07:03:39Z</time>
      </trkpt>
      <trkpt lat="43.41054" lon="-0.57296">
        <ele>128.95</ele>
        <time>2019-10-13T07:03:41Z</time>
      </trkpt>
      <trkpt lat="43.41057" lon="-0.57302">
        <ele>129.43</ele>
        <time>2019-10-13T07:03:42Z</time>
      </trkpt>
      <trkpt lat="43.41059" lon="-0.57308">
        <ele>129.43</ele>
        <time>2019-10-13T07:03:43Z</time>
      </trkpt>
      <trkpt lat="43.41075" lon="-0.57425">
        <ele>128.47</ele>
        <time>2019-10-13T07:03:59Z</time>
      </trkpt>
      <trkpt lat="43.4108" lon="-0.57453">
        <ele>128.47</ele>
        <time>2019-10-13T07:04:03Z</time>
      </trkpt>
      <trkpt lat="43.41089" lon="-0.57476">
        <ele>128.47</ele>
        <time>2019-10-13T07:04:07Z</time>
      </trkpt>
      <trkpt lat="43.41093" lon="-0.5748">
        <ele>128.47</ele>
        <time>2019-10-13T07:04:08Z</time>
      </trkpt>
      <trkpt lat="43.41095" lon="-0.57484">
        <ele>128.47</ele>
        <time>2019-10-13T07:04:09Z</time>
      </trkpt>
      <trkpt lat="43.41107" lon="-0.57498">
        <ele>127.99</ele>
        <time>2019-10-13T07:04:14Z</time>
      </trkpt>
      <trkpt lat="43.41109" lon="-0.57499">
        <ele>127.99</ele>
        <time>2019-10-13T07:04:15Z</time>
      </trkpt>
      <trkpt lat="43.4115" lon="-0.57488">
        <ele>128.47</ele>
        <time>2019-10-13T07:04:28Z</time>
      </trkpt>
      <trkpt lat="43.41215" lon="-0.57476">
        <ele>129.43</ele>
        <time>2019-10-13T07:04:42Z</time>
      </trkpt>
      <trkpt lat="43.41249" lon="-0.57468">
        <ele>130.4</ele>
        <time>2019-10-13T07:04:54Z</time>
      </trkpt>
      <trkpt lat="43.41252" lon="-0.5747">
        <ele>130.88</ele>
        <time>2019-10-13T07:04:55Z</time>
      </trkpt>
      <trkpt lat="43.41258" lon="-0.57474">
        <ele>130.88</ele>
        <time>2019-10-13T07:04:57Z</time>
      </trkpt>
      <trkpt lat="43.41266" lon="-0.57478">
        <ele>130.88</ele>
        <time>2019-10-13T07:04:59Z</time>
      </trkpt>
      <trkpt lat="43.4127" lon="-0.57483">
        <ele>130.4</ele>
        <time>2019-10-13T07:05:00Z</time>
      </trkpt>
      <trkpt lat="43.41272" lon="-0.57488">
        <ele>130.4</ele>
        <time>2019-10-13T07:05:01Z</time>
      </trkpt>
      <trkpt lat="43.41273" lon="-0.57493">
        <ele>130.4</ele>
        <time>2019-10-13T07:05:02Z</time>
      </trkpt>
      <trkpt lat="43.41273" lon="-0.575">
        <ele>129.92</ele>
        <time>2019-10-13T07:05:03Z</time>
      </trkpt>
      <trkpt lat="43.41274" lon="-0.57507">
        <ele>129.92</ele>
        <time>2019-10-13T07:05:04Z</time>
      </trkpt>
      <trkpt lat="43.41274" lon="-0.57514">
        <ele>129.92</ele>
        <time>2019-10-13T07:05:05Z</time>
      </trkpt>
      <trkpt lat="43.41278" lon="-0.576">
        <ele>129.92</ele>
        <time>2019-10-13T07:05:17Z</time>
      </trkpt>
      <trkpt lat="43.41281" lon="-0.5762">
        <ele>129.43</ele>
        <time>2019-10-13T07:05:20Z</time>
      </trkpt>
      <trkpt lat="43.41283" lon="-0.57626">
        <ele>129.43</ele>
        <time>2019-10-13T07:05:21Z</time>
      </trkpt>
      <trkpt lat="43.41285" lon="-0.57632">
        <ele>129.43</ele>
        <time>2019-10-13T07:05:22Z</time>
      </trkpt>
      <trkpt lat="43.41288" lon="-0.57638">
        <ele>129.43</ele>
        <time>2019-10-13T07:05:23Z</time>
      </trkpt>
      <trkpt lat="43.41291" lon="-0.57644">
        <ele>129.43</ele>
        <time>2019-10-13T07:05:24Z</time>
      </trkpt>
      <trkpt lat="43.41294" lon="-0.57649">
        <ele>129.43</ele>
        <time>2019-10-13T07:05:25Z</time>
      </trkpt>
      <trkpt lat="43.41335" lon="-0.57715">
        <ele>128.47</ele>
        <time>2019-10-13T07:05:37Z</time>
      </trkpt>
      <trkpt lat="43.4136" lon="-0.57755">
        <ele>127.99</ele>
        <time>2019-10-13T07:05:44Z</time>
      </trkpt>
      <trkpt lat="43.41364" lon="-0.5776">
        <ele>128.47</ele>
        <time>2019-10-13T07:05:45Z</time>
      </trkpt>
      <trkpt lat="43.41408" lon="-0.57818">
        <ele>128.47</ele>
        <time>2019-10-13T07:05:56Z</time>
      </trkpt>
      <trkpt lat="43.41411" lon="-0.57825">
        <ele>128.47</ele>
        <time>2019-10-13T07:05:57Z</time>
      </trkpt>
      <trkpt lat="43.41416" lon="-0.57839">
        <ele>128.47</ele>
        <time>2019-10-13T07:05:59Z</time>
      </trkpt>
      <trkpt lat="43.41452" lon="-0.57955">
        <ele>127.03</ele>
        <time>2019-10-13T07:06:15Z</time>
      </trkpt>
      <trkpt lat="43.41495" lon="-0.58087">
        <ele>126.07</ele>
        <time>2019-10-13T07:06:33Z</time>
      </trkpt>
      <trkpt lat="43.41521" lon="-0.58158">
        <ele>126.07</ele>
        <time>2019-10-13T07:06:44Z</time>
      </trkpt>
      <trkpt lat="43.41523" lon="-0.58164">
        <ele>126.55</ele>
        <time>2019-10-13T07:06:45Z</time>
      </trkpt>
      <trkpt lat="43.4154" lon="-0.5822">
        <ele>126.55</ele>
        <time>2019-10-13T07:06:54Z</time>
      </trkpt>
      <trkpt lat="43.41543" lon="-0.58248">
        <ele>127.03</ele>
        <time>2019-10-13T07:06:58Z</time>
      </trkpt>
      <trkpt lat="43.41544" lon="-0.58255">
        <ele>127.03</ele>
        <time>2019-10-13T07:06:59Z</time>
      </trkpt>
      <trkpt lat="43.41577" lon="-0.58354">
        <ele>126.07</ele>
        <time>2019-10-13T07:07:15Z</time>
      </trkpt>
      <trkpt lat="43.4162" lon="-0.58479">
        <ele>125.59</ele>
        <time>2019-10-13T07:07:34Z</time>
      </trkpt>
      <trkpt lat="43.41651" lon="-0.58571">
        <ele>125.59</ele>
        <time>2019-10-13T07:07:48Z</time>
      </trkpt>
      <trkpt lat="43.41665" lon="-0.58672">
        <ele>125.59</ele>
        <time>2019-10-13T07:08:02Z</time>
      </trkpt>
      <trkpt lat="43.4167" lon="-0.58725">
        <ele>126.07</ele>
        <time>2019-10-13T07:08:09Z</time>
      </trkpt>
      <trkpt lat="43.41672" lon="-0.58732">
        <ele>126.07</ele>
        <time>2019-10-13T07:08:10Z</time>
      </trkpt>
      <trkpt lat="43.41674" lon="-0.58738">
        <ele>126.55</ele>
        <time>2019-10-13T07:08:11Z</time>
      </trkpt>
      <trkpt lat="43.41715" lon="-0.58822">
        <ele>125.59</ele>
        <time>2019-10-13T07:08:24Z</time>
      </trkpt>
      <trkpt lat="43.41716" lon="-0.5883">
        <ele>125.59</ele>
        <time>2019-10-13T07:08:25Z</time>
      </trkpt>
      <trkpt lat="43.41715" lon="-0.58838">
        <ele>125.59</ele>
        <time>2019-10-13T07:08:26Z</time>
      </trkpt>
      <trkpt lat="43.41714" lon="-0.58846">
        <ele>125.59</ele>
        <time>2019-10-13T07:08:27Z</time>
      </trkpt>
      <trkpt lat="43.41713" lon="-0.58853">
        <ele>125.59</ele>
        <time>2019-10-13T07:08:28Z</time>
      </trkpt>
      <trkpt lat="43.41711" lon="-0.58868">
        <ele>125.59</ele>
        <time>2019-10-13T07:08:30Z</time>
      </trkpt>
      <trkpt lat="43.4171" lon="-0.58876">
        <ele>125.59</ele>
        <time>2019-10-13T07:08:31Z</time>
      </trkpt>
      <trkpt lat="43.41711" lon="-0.58884">
        <ele>125.59</ele>
        <time>2019-10-13T07:08:32Z</time>
      </trkpt>
      <trkpt lat="43.41711" lon="-0.58891">
        <ele>125.59</ele>
        <time>2019-10-13T07:08:33Z</time>
      </trkpt>
      <trkpt lat="43.41712" lon="-0.58898">
        <ele>125.59</ele>
        <time>2019-10-13T07:08:34Z</time>
      </trkpt>
      <trkpt lat="43.41714" lon="-0.58905">
        <ele>125.59</ele>
        <time>2019-10-13T07:08:35Z</time>
      </trkpt>
      <trkpt lat="43.4175" lon="-0.59024">
        <ele>125.11</ele>
        <time>2019-10-13T07:08:52Z</time>
      </trkpt>
      <trkpt lat="43.41806" lon="-0.59183">
        <ele>124.15</ele>
        <time>2019-10-13T07:09:15Z</time>
      </trkpt>
      <trkpt lat="43.41842" lon="-0.59306">
        <ele>124.15</ele>
        <time>2019-10-13T07:09:33Z</time>
      </trkpt>
      <trkpt lat="43.4185" lon="-0.59333">
        <ele>123.67</ele>
        <time>2019-10-13T07:09:38Z</time>
      </trkpt>
      <trkpt lat="43.41853" lon="-0.59338">
        <ele>123.67</ele>
        <time>2019-10-13T07:09:39Z</time>
      </trkpt>
      <trkpt lat="43.41857" lon="-0.5934">
        <ele>123.19</ele>
        <time>2019-10-13T07:09:40Z</time>
      </trkpt>
      <trkpt lat="43.41861" lon="-0.59341">
        <ele>123.19</ele>
        <time>2019-10-13T07:09:41Z</time>
      </trkpt>
      <trkpt lat="43.41865" lon="-0.59341">
        <ele>123.19</ele>
        <time>2019-10-13T07:09:42Z</time>
      </trkpt>
      <trkpt lat="43.41869" lon="-0.59339">
        <ele>123.19</ele>
        <time>2019-10-13T07:09:43Z</time>
      </trkpt>
      <trkpt lat="43.41874" lon="-0.59337">
        <ele>122.71</ele>
        <time>2019-10-13T07:09:44Z</time>
      </trkpt>
      <trkpt lat="43.41878" lon="-0.59334">
        <ele>122.71</ele>
        <time>2019-10-13T07:09:45Z</time>
      </trkpt>
      <trkpt lat="43.41957" lon="-0.59288">
        <ele>124.15</ele>
        <time>2019-10-13T07:10:03Z</time>
      </trkpt>
      <trkpt lat="43.42023" lon="-0.59251">
        <ele>131.84</ele>
        <time>2019-10-13T07:10:17Z</time>
      </trkpt>
      <trkpt lat="43.42038" lon="-0.59243">
        <ele>132.8</ele>
        <time>2019-10-13T07:10:20Z</time>
      </trkpt>
      <trkpt lat="43.42085" lon="-0.59221">
        <ele>132.32</ele>
        <time>2019-10-13T07:10:32Z</time>
      </trkpt>
      <trkpt lat="43.42102" lon="-0.59211">
        <ele>132.32</ele>
        <time>2019-10-13T07:10:36Z</time>
      </trkpt>
      <trkpt lat="43.42107" lon="-0.59209">
        <ele>132.8</ele>
        <time>2019-10-13T07:10:37Z</time>
      </trkpt>
      <trkpt lat="43.42191" lon="-0.59142">
        <ele>126.55</ele>
        <time>2019-10-13T07:10:52Z</time>
      </trkpt>
      <trkpt lat="43.42254" lon="-0.59063">
        <ele>126.07</ele>
        <time>2019-10-13T07:11:05Z</time>
      </trkpt>
      <trkpt lat="43.42309" lon="-0.58985">
        <ele>128.95</ele>
        <time>2019-10-13T07:11:20Z</time>
      </trkpt>
      <trkpt lat="43.42318" lon="-0.58968">
        <ele>129.43</ele>
        <time>2019-10-13T07:11:23Z</time>
      </trkpt>
      <trkpt lat="43.42322" lon="-0.58958">
        <ele>129.92</ele>
        <time>2019-10-13T07:11:25Z</time>
      </trkpt>
      <trkpt lat="43.42324" lon="-0.58953">
        <ele>129.92</ele>
        <time>2019-10-13T07:11:26Z</time>
      </trkpt>
      <trkpt lat="43.42333" lon="-0.58926">
        <ele>130.88</ele>
        <time>2019-10-13T07:11:31Z</time>
      </trkpt>
      <trkpt lat="43.42337" lon="-0.58916">
        <ele>130.88</ele>
        <time>2019-10-13T07:11:33Z</time>
      </trkpt>
      <trkpt lat="43.4234" lon="-0.58912">
        <ele>130.88</ele>
        <time>2019-10-13T07:11:34Z</time>
      </trkpt>
      <trkpt lat="43.42342" lon="-0.58908">
        <ele>130.88</ele>
        <time>2019-10-13T07:11:35Z</time>
      </trkpt>
      <trkpt lat="43.42345" lon="-0.58905">
        <ele>130.4</ele>
        <time>2019-10-13T07:11:36Z</time>
      </trkpt>
      <trkpt lat="43.42348" lon="-0.58902">
        <ele>130.4</ele>
        <time>2019-10-13T07:11:37Z</time>
      </trkpt>
      <trkpt lat="43.42353" lon="-0.589">
        <ele>130.88</ele>
        <time>2019-10-13T07:11:38Z</time>
      </trkpt>
      <trkpt lat="43.42356" lon="-0.589">
        <ele>130.88</ele>
        <time>2019-10-13T07:11:39Z</time>
      </trkpt>
      <trkpt lat="43.4236" lon="-0.58899">
        <ele>130.88</ele>
        <time>2019-10-13T07:11:40Z</time>
      </trkpt>
      <trkpt lat="43.42364" lon="-0.58897">
        <ele>130.88</ele>
        <time>2019-10-13T07:11:41Z</time>
      </trkpt>
      <trkpt lat="43.42367" lon="-0.58893">
        <ele>130.88</ele>
        <time>2019-10-13T07:11:42Z</time>
      </trkpt>
      <trkpt lat="43.42369" lon="-0.58888">
        <ele>130.88</ele>
        <time>2019-10-13T07:11:43Z</time>
      </trkpt>
      <trkpt lat="43.42393" lon="-0.58826">
        <ele>131.84</ele>
        <time>2019-10-13T07:11:55Z</time>
      </trkpt>
      <trkpt lat="43.42398" lon="-0.58778">
        <ele>135.2</ele>
        <time>2019-10-13T07:12:05Z</time>
      </trkpt>
      <trkpt lat="43.42389" lon="-0.58739">
        <ele>137.61</ele>
        <time>2019-10-13T07:12:13Z</time>
      </trkpt>
      <trkpt lat="43.42386" lon="-0.58734">
        <ele>137.61</ele>
        <time>2019-10-13T07:12:14Z</time>
      </trkpt>
      <trkpt lat="43.4234" lon="-0.58658">
        <ele>133.76</ele>
        <time>2019-10-13T07:12:29Z</time>
      </trkpt>
      <trkpt lat="43.42311" lon="-0.58614">
        <ele>131.36</ele>
        <time>2019-10-13T07:12:39Z</time>
      </trkpt>
      <trkpt lat="43.42306" lon="-0.58605">
        <ele>130.88</ele>
        <time>2019-10-13T07:12:41Z</time>
      </trkpt>
      <trkpt lat="43.42305" lon="-0.586">
        <ele>130.88</ele>
        <time>2019-10-13T07:12:42Z</time>
      </trkpt>
      <trkpt lat="43.42305" lon="-0.58594">
        <ele>130.88</ele>
        <time>2019-10-13T07:12:43Z</time>
      </trkpt>
      <trkpt lat="43.42308" lon="-0.5859">
        <ele>130.88</ele>
        <time>2019-10-13T07:12:44Z</time>
      </trkpt>
      <trkpt lat="43.42312" lon="-0.58586">
        <ele>130.88</ele>
        <time>2019-10-13T07:12:45Z</time>
      </trkpt>
      <trkpt lat="43.42316" lon="-0.58583">
        <ele>130.88</ele>
        <time>2019-10-13T07:12:46Z</time>
      </trkpt>
      <trkpt lat="43.4232" lon="-0.58581">
        <ele>130.88</ele>
        <time>2019-10-13T07:12:47Z</time>
      </trkpt>
      <trkpt lat="43.42354" lon="-0.58559">
        <ele>130.4</ele>
        <time>2019-10-13T07:12:56Z</time>
      </trkpt>
      <trkpt lat="43.42358" lon="-0.58559">
        <ele>130.4</ele>
        <time>2019-10-13T07:12:57Z</time>
      </trkpt>
      <trkpt lat="43.42363" lon="-0.58559">
        <ele>130.88</ele>
        <time>2019-10-13T07:12:58Z</time>
      </trkpt>
      <trkpt lat="43.42436" lon="-0.58549">
        <ele>129.92</ele>
        <time>2019-10-13T07:13:14Z</time>
      </trkpt>
      <trkpt lat="43.42506" lon="-0.58515">
        <ele>130.4</ele>
        <time>2019-10-13T07:13:31Z</time>
      </trkpt>
      <trkpt lat="43.4256" lon="-0.58481">
        <ele>130.88</ele>
        <time>2019-10-13T07:13:45Z</time>
      </trkpt>
      <trkpt lat="43.42623" lon="-0.58452">
        <ele>134.24</ele>
        <time>2019-10-13T07:14:01Z</time>
      </trkpt>
      <trkpt lat="43.42683" lon="-0.58433">
        <ele>137.61</ele>
        <time>2019-10-13T07:14:17Z</time>
      </trkpt>
      <trkpt lat="43.42716" lon="-0.58448">
        <ele>139.05</ele>
        <time>2019-10-13T07:14:26Z</time>
      </trkpt>
      <trkpt lat="43.4272" lon="-0.58448">
        <ele>139.05</ele>
        <time>2019-10-13T07:14:27Z</time>
      </trkpt>
      <trkpt lat="43.42723" lon="-0.58446">
        <ele>139.05</ele>
        <time>2019-10-13T07:14:28Z</time>
      </trkpt>
      <trkpt lat="43.42726" lon="-0.58442">
        <ele>139.05</ele>
        <time>2019-10-13T07:14:29Z</time>
      </trkpt>
      <trkpt lat="43.42727" lon="-0.58438">
        <ele>139.05</ele>
        <time>2019-10-13T07:14:30Z</time>
      </trkpt>
      <trkpt lat="43.42727" lon="-0.58434">
        <ele>139.05</ele>
        <time>2019-10-13T07:14:31Z</time>
      </trkpt>
      <trkpt lat="43.42727" lon="-0.58429">
        <ele>139.05</ele>
        <time>2019-10-13T07:14:32Z</time>
      </trkpt>
      <trkpt lat="43.42727" lon="-0.58424">
        <ele>139.05</ele>
        <time>2019-10-13T07:14:33Z</time>
      </trkpt>
      <trkpt lat="43.42725" lon="-0.58419">
        <ele>139.05</ele>
        <time>2019-10-13T07:14:34Z</time>
      </trkpt>
      <trkpt lat="43.42702" lon="-0.5831">
        <ele>138.57</ele>
        <time>2019-10-13T07:14:53Z</time>
      </trkpt>
      <trkpt lat="43.42679" lon="-0.58218">
        <ele>136.64</ele>
        <time>2019-10-13T07:15:07Z</time>
      </trkpt>
      <trkpt lat="43.42678" lon="-0.58212">
        <ele>136.64</ele>
        <time>2019-10-13T07:15:08Z</time>
      </trkpt>
      <trkpt lat="43.42679" lon="-0.58206">
        <ele>136.64</ele>
        <time>2019-10-13T07:15:09Z</time>
      </trkpt>
      <trkpt lat="43.42679" lon="-0.582">
        <ele>136.64</ele>
        <time>2019-10-13T07:15:10Z</time>
      </trkpt>
      <trkpt lat="43.42681" lon="-0.58195">
        <ele>136.64</ele>
        <time>2019-10-13T07:15:11Z</time>
      </trkpt>
      <trkpt lat="43.42682" lon="-0.5819">
        <ele>137.13</ele>
        <time>2019-10-13T07:15:12Z</time>
      </trkpt>
      <trkpt lat="43.42693" lon="-0.58151">
        <ele>137.61</ele>
        <time>2019-10-13T07:15:22Z</time>
      </trkpt>
      <trkpt lat="43.42695" lon="-0.58149">
        <ele>137.61</ele>
        <time>2019-10-13T07:15:23Z</time>
      </trkpt>
      <trkpt lat="43.42698" lon="-0.58148">
        <ele>137.61</ele>
        <time>2019-10-13T07:15:24Z</time>
      </trkpt>
      <trkpt lat="43.42701" lon="-0.58149">
        <ele>137.61</ele>
        <time>2019-10-13T07:15:25Z</time>
      </trkpt>
      <trkpt lat="43.42703" lon="-0.58151">
        <ele>137.61</ele>
        <time>2019-10-13T07:15:26Z</time>
      </trkpt>
      <trkpt lat="43.42744" lon="-0.5819">
        <ele>139.05</ele>
        <time>2019-10-13T07:15:41Z</time>
      </trkpt>
      <trkpt lat="43.42786" lon="-0.58191">
        <ele>142.41</ele>
        <time>2019-10-13T07:15:55Z</time>
      </trkpt>
      <trkpt lat="43.42839" lon="-0.58186">
        <ele>145.78</ele>
        <time>2019-10-13T07:16:12Z</time>
      </trkpt>
      <trkpt lat="43.42889" lon="-0.58181">
        <ele>149.14</ele>
        <time>2019-10-13T07:16:28Z</time>
      </trkpt>
      <trkpt lat="43.42938" lon="-0.5819">
        <ele>151.54</ele>
        <time>2019-10-13T07:16:43Z</time>
      </trkpt>
      <trkpt lat="43.42989" lon="-0.58206">
        <ele>154.91</ele>
        <time>2019-10-13T07:16:59Z</time>
      </trkpt>
      <trkpt lat="43.43039" lon="-0.58221">
        <ele>158.27</ele>
        <time>2019-10-13T07:17:15Z</time>
      </trkpt>
      <trkpt lat="43.43101" lon="-0.58243">
        <ele>162.12</ele>
        <time>2019-10-13T07:17:34Z</time>
      </trkpt>
      <trkpt lat="43.43105" lon="-0.58243">
        <ele>161.64</ele>
        <time>2019-10-13T07:17:35Z</time>
      </trkpt>
      <trkpt lat="43.43109" lon="-0.58241">
        <ele>161.64</ele>
        <time>2019-10-13T07:17:36Z</time>
      </trkpt>
      <trkpt lat="43.43114" lon="-0.58237">
        <ele>161.16</ele>
        <time>2019-10-13T07:17:37Z</time>
      </trkpt>
      <trkpt lat="43.43118" lon="-0.58233">
        <ele>160.68</ele>
        <time>2019-10-13T07:17:38Z</time>
      </trkpt>
      <trkpt lat="43.43123" lon="-0.58227">
        <ele>160.2</ele>
        <time>2019-10-13T07:17:39Z</time>
      </trkpt>
      <trkpt lat="43.43133" lon="-0.58214">
        <ele>159.72</ele>
        <time>2019-10-13T07:17:41Z</time>
      </trkpt>
      <trkpt lat="43.43139" lon="-0.58209">
        <ele>159.72</ele>
        <time>2019-10-13T07:17:42Z</time>
      </trkpt>
      <trkpt lat="43.43145" lon="-0.58206">
        <ele>159.24</ele>
        <time>2019-10-13T07:17:43Z</time>
      </trkpt>
      <trkpt lat="43.4315" lon="-0.58204">
        <ele>159.24</ele>
        <time>2019-10-13T07:17:44Z</time>
      </trkpt>
      <trkpt lat="43.43154" lon="-0.58203">
        <ele>159.24</ele>
        <time>2019-10-13T07:17:45Z</time>
      </trkpt>
      <trkpt lat="43.43159" lon="-0.582">
        <ele>159.24</ele>
        <time>2019-10-13T07:17:46Z</time>
      </trkpt>
      <trkpt lat="43.43163" lon="-0.58197">
        <ele>159.72</ele>
        <time>2019-10-13T07:17:47Z</time>
      </trkpt>
      <trkpt lat="43.43166" lon="-0.58194">
        <ele>159.72</ele>
        <time>2019-10-13T07:17:48Z</time>
      </trkpt>
      <trkpt lat="43.43188" lon="-0.58149">
        <ele>162.12</ele>
        <time>2019-10-13T07:18:00Z</time>
      </trkpt>
      <trkpt lat="43.4321" lon="-0.58106">
        <ele>161.16</ele>
        <time>2019-10-13T07:18:10Z</time>
      </trkpt>
      <trkpt lat="43.43208" lon="-0.58063">
        <ele>158.75</ele>
        <time>2019-10-13T07:18:19Z</time>
      </trkpt>
      <trkpt lat="43.43206" lon="-0.58044">
        <ele>157.79</ele>
        <time>2019-10-13T07:18:22Z</time>
      </trkpt>
      <trkpt lat="43.43205" lon="-0.58037">
        <ele>157.31</ele>
        <time>2019-10-13T07:18:23Z</time>
      </trkpt>
      <trkpt lat="43.43199" lon="-0.57962">
        <ele>152.99</ele>
        <time>2019-10-13T07:18:34Z</time>
      </trkpt>
      <trkpt lat="43.432" lon="-0.57944">
        <ele>151.06</ele>
        <time>2019-10-13T07:18:44Z</time>
      </trkpt>
      <trkpt lat="43.43201" lon="-0.5794">
        <ele>150.58</ele>
        <time>2019-10-13T07:18:51Z</time>
      </trkpt>
      <trkpt lat="43.43201" lon="-0.57937">
        <ele>150.58</ele>
        <time>2019-10-13T07:18:52Z</time>
      </trkpt>
      <trkpt lat="43.432" lon="-0.57935">
        <ele>151.06</ele>
        <time>2019-10-13T07:18:53Z</time>
      </trkpt>
      <trkpt lat="43.43199" lon="-0.57932">
        <ele>151.06</ele>
        <time>2019-10-13T07:18:54Z</time>
      </trkpt>
      <trkpt lat="43.43198" lon="-0.57928">
        <ele>151.54</ele>
        <time>2019-10-13T07:18:55Z</time>
      </trkpt>
      <trkpt lat="43.43198" lon="-0.57925">
        <ele>152.03</ele>
        <time>2019-10-13T07:18:56Z</time>
      </trkpt>
      <trkpt lat="43.43197" lon="-0.57922">
        <ele>152.03</ele>
        <time>2019-10-13T07:18:57Z</time>
      </trkpt>
      <trkpt lat="43.43194" lon="-0.57881">
        <ele>153.95</ele>
        <time>2019-10-13T07:19:09Z</time>
      </trkpt>
      <trkpt lat="43.43195" lon="-0.5787">
        <ele>153.47</ele>
        <time>2019-10-13T07:19:20Z</time>
      </trkpt>
      <trkpt lat="43.43191" lon="-0.57845">
        <ele>153.47</ele>
        <time>2019-10-13T07:19:31Z</time>
      </trkpt>
      <trkpt lat="43.43182" lon="-0.57809">
        <ele>155.39</ele>
        <time>2019-10-13T07:19:43Z</time>
      </trkpt>
      <trkpt lat="43.43175" lon="-0.57776">
        <ele>155.87</ele>
        <time>2019-10-13T07:19:52Z</time>
      </trkpt>
      <trkpt lat="43.43175" lon="-0.57757">
        <ele>156.35</ele>
        <time>2019-10-13T07:19:59Z</time>
      </trkpt>
      <trkpt lat="43.43178" lon="-0.57746">
        <ele>154.91</ele>
        <time>2019-10-13T07:20:13Z</time>
      </trkpt>
      <trkpt lat="43.4318" lon="-0.57737">
        <ele>153.95</ele>
        <time>2019-10-13T07:20:35Z</time>
      </trkpt>
      <trkpt lat="43.43178" lon="-0.57732">
        <ele>154.43</ele>
        <time>2019-10-13T07:20:38Z</time>
      </trkpt>
      <trkpt lat="43.43177" lon="-0.57726">
        <ele>154.91</ele>
        <time>2019-10-13T07:20:42Z</time>
      </trkpt>
      <trkpt lat="43.43176" lon="-0.57718">
        <ele>155.39</ele>
        <time>2019-10-13T07:20:46Z</time>
      </trkpt>
      <trkpt lat="43.43175" lon="-0.57705">
        <ele>152.03</ele>
        <time>2019-10-13T07:21:01Z</time>
      </trkpt>
      <trkpt lat="43.43177" lon="-0.57702">
        <ele>155.87</ele>
        <time>2019-10-13T07:21:15Z</time>
      </trkpt>
      <trkpt lat="43.43182" lon="-0.57696">
        <ele>155.87</ele>
        <time>2019-10-13T07:21:28Z</time>
      </trkpt>
      <trkpt lat="43.43177" lon="-0.57701">
        <ele>159.72</ele>
        <time>2019-10-13T07:21:40Z</time>
      </trkpt>
      <trkpt lat="43.43177" lon="-0.57701">
        <ele>160.2</ele>
        <time>2019-10-13T07:21:54Z</time>
      </trkpt>
      <trkpt lat="43.43169" lon="-0.57696">
        <ele>160.68</ele>
        <time>2019-10-13T07:22:04Z</time>
      </trkpt>
      <trkpt lat="43.43164" lon="-0.57689">
        <ele>160.68</ele>
        <time>2019-10-13T07:22:09Z</time>
      </trkpt>
      <trkpt lat="43.43163" lon="-0.57687">
        <ele>160.68</ele>
        <time>2019-10-13T07:22:11Z</time>
      </trkpt>
      <trkpt lat="43.43159" lon="-0.5768">
        <ele>160.68</ele>
        <time>2019-10-13T07:22:16Z</time>
      </trkpt>
      <trkpt lat="43.43145" lon="-0.57655">
        <ele>161.16</ele>
        <time>2019-10-13T07:22:27Z</time>
      </trkpt>
      <trkpt lat="43.43137" lon="-0.57641">
        <ele>161.16</ele>
        <time>2019-10-13T07:22:31Z</time>
      </trkpt>
      <trkpt lat="43.43126" lon="-0.57616">
        <ele>164.04</ele>
        <time>2019-10-13T07:22:41Z</time>
      </trkpt>
      <trkpt lat="43.43125" lon="-0.57601">
        <ele>169.81</ele>
        <time>2019-10-13T07:22:56Z</time>
      </trkpt>
      <trkpt lat="43.43125" lon="-0.57598">
        <ele>170.29</ele>
        <time>2019-10-13T07:23:03Z</time>
      </trkpt>
      <trkpt lat="43.43114" lon="-0.5759">
        <ele>169.81</ele>
        <time>2019-10-13T07:23:13Z</time>
      </trkpt>
      <trkpt lat="43.43103" lon="-0.57586">
        <ele>173.66</ele>
        <time>2019-10-13T07:23:24Z</time>
      </trkpt>
      <trkpt lat="43.43096" lon="-0.57581">
        <ele>173.66</ele>
        <time>2019-10-13T07:23:42Z</time>
      </trkpt>
      <trkpt lat="43.4309" lon="-0.5758">
        <ele>174.62</ele>
        <time>2019-10-13T07:24:02Z</time>
      </trkpt>
      <trkpt lat="43.4309" lon="-0.57574">
        <ele>174.14</ele>
        <time>2019-10-13T07:24:09Z</time>
      </trkpt>
      <trkpt lat="43.43088" lon="-0.57566">
        <ele>173.66</ele>
        <time>2019-10-13T07:24:15Z</time>
      </trkpt>
      <trkpt lat="43.43079" lon="-0.57546">
        <ele>172.21</ele>
        <time>2019-10-13T07:24:27Z</time>
      </trkpt>
      <trkpt lat="43.43076" lon="-0.57541">
        <ele>171.25</ele>
        <time>2019-10-13T07:24:29Z</time>
      </trkpt>
      <trkpt lat="43.43066" lon="-0.57529">
        <ele>169.81</ele>
        <time>2019-10-13T07:24:34Z</time>
      </trkpt>
      <trkpt lat="43.43065" lon="-0.57523">
        <ele>169.33</ele>
        <time>2019-10-13T07:24:36Z</time>
      </trkpt>
      <trkpt lat="43.43065" lon="-0.57512">
        <ele>168.37</ele>
        <time>2019-10-13T07:24:40Z</time>
      </trkpt>
      <trkpt lat="43.43063" lon="-0.57491">
        <ele>167.41</ele>
        <time>2019-10-13T07:24:45Z</time>
      </trkpt>
      <trkpt lat="43.4307" lon="-0.57483">
        <ele>166.93</ele>
        <time>2019-10-13T07:24:49Z</time>
      </trkpt>
      <trkpt lat="43.43102" lon="-0.5746">
        <ele>165.96</ele>
        <time>2019-10-13T07:24:59Z</time>
      </trkpt>
      <trkpt lat="43.43104" lon="-0.57459">
        <ele>165.96</ele>
        <time>2019-10-13T07:25:00Z</time>
      </trkpt>
      <trkpt lat="43.43111" lon="-0.57432">
        <ele>160.68</ele>
        <time>2019-10-13T07:25:09Z</time>
      </trkpt>
      <trkpt lat="43.43112" lon="-0.57429">
        <ele>160.2</ele>
        <time>2019-10-13T07:25:10Z</time>
      </trkpt>
      <trkpt lat="43.43112" lon="-0.57426">
        <ele>159.24</ele>
        <time>2019-10-13T07:25:12Z</time>
      </trkpt>
      <trkpt lat="43.43117" lon="-0.57407">
        <ele>155.39</ele>
        <time>2019-10-13T07:25:24Z</time>
      </trkpt>
      <trkpt lat="43.43116" lon="-0.57403">
        <ele>155.87</ele>
        <time>2019-10-13T07:25:42Z</time>
      </trkpt>
      <trkpt lat="43.4313" lon="-0.57392">
        <ele>156.83</ele>
        <time>2019-10-13T07:25:48Z</time>
      </trkpt>
      <trkpt lat="43.43135" lon="-0.57379">
        <ele>158.27</ele>
        <time>2019-10-13T07:25:53Z</time>
      </trkpt>
      <trkpt lat="43.43138" lon="-0.57366">
        <ele>160.68</ele>
        <time>2019-10-13T07:25:59Z</time>
      </trkpt>
      <trkpt lat="43.4317" lon="-0.57357">
        <ele>157.79</ele>
        <time>2019-10-13T07:26:10Z</time>
      </trkpt>
      <trkpt lat="43.43172" lon="-0.57357">
        <ele>157.79</ele>
        <time>2019-10-13T07:26:11Z</time>
      </trkpt>
      <trkpt lat="43.43178" lon="-0.57349">
        <ele>157.31</ele>
        <time>2019-10-13T07:26:16Z</time>
      </trkpt>
      <trkpt lat="43.43186" lon="-0.5734">
        <ele>154.43</ele>
        <time>2019-10-13T07:26:30Z</time>
      </trkpt>
      <trkpt lat="43.4319" lon="-0.57333">
        <ele>149.62</ele>
        <time>2019-10-13T07:26:45Z</time>
      </trkpt>
      <trkpt lat="43.43193" lon="-0.57325">
        <ele>146.26</ele>
        <time>2019-10-13T07:27:01Z</time>
      </trkpt>
      <trkpt lat="43.43196" lon="-0.57329">
        <ele>144.82</ele>
        <time>2019-10-13T07:27:25Z</time>
      </trkpt>
      <trkpt lat="43.43193" lon="-0.57323">
        <ele>145.78</ele>
        <time>2019-10-13T07:27:30Z</time>
      </trkpt>
      <trkpt lat="43.43186" lon="-0.57314">
        <ele>144.34</ele>
        <time>2019-10-13T07:27:36Z</time>
      </trkpt>
      <trkpt lat="43.43174" lon="-0.57301">
        <ele>144.34</ele>
        <time>2019-10-13T07:27:43Z</time>
      </trkpt>
      <trkpt lat="43.43168" lon="-0.57293">
        <ele>144.34</ele>
        <time>2019-10-13T07:27:46Z</time>
      </trkpt>
      <trkpt lat="43.43154" lon="-0.57278">
        <ele>144.82</ele>
        <time>2019-10-13T07:27:52Z</time>
      </trkpt>
      <trkpt lat="43.43145" lon="-0.57269">
        <ele>145.78</ele>
        <time>2019-10-13T07:27:59Z</time>
      </trkpt>
      <trkpt lat="43.43133" lon="-0.5725">
        <ele>146.26</ele>
        <time>2019-10-13T07:28:07Z</time>
      </trkpt>
      <trkpt lat="43.43125" lon="-0.5724">
        <ele>147.7</ele>
        <time>2019-10-13T07:28:12Z</time>
      </trkpt>
      <trkpt lat="43.43115" lon="-0.57221">
        <ele>150.58</ele>
        <time>2019-10-13T07:28:23Z</time>
      </trkpt>
      <trkpt lat="43.43101" lon="-0.57202">
        <ele>151.54</ele>
        <time>2019-10-13T07:28:32Z</time>
      </trkpt>
      <trkpt lat="43.43081" lon="-0.5718">
        <ele>152.51</ele>
        <time>2019-10-13T07:28:44Z</time>
      </trkpt>
      <trkpt lat="43.43072" lon="-0.57151">
        <ele>152.99</ele>
        <time>2019-10-13T07:28:57Z</time>
      </trkpt>
      <trkpt lat="43.4307" lon="-0.5714">
        <ele>152.03</ele>
        <time>2019-10-13T07:29:10Z</time>
      </trkpt>
      <trkpt lat="43.43057" lon="-0.57129">
        <ele>152.99</ele>
        <time>2019-10-13T07:29:20Z</time>
      </trkpt>
      <trkpt lat="43.43048" lon="-0.57124">
        <ele>153.95</ele>
        <time>2019-10-13T07:29:25Z</time>
      </trkpt>
      <trkpt lat="43.4304" lon="-0.57109">
        <ele>159.24</ele>
        <time>2019-10-13T07:29:37Z</time>
      </trkpt>
      <trkpt lat="43.43039" lon="-0.57107">
        <ele>160.68</ele>
        <time>2019-10-13T07:29:42Z</time>
      </trkpt>
      <trkpt lat="43.43069" lon="-0.57119">
        <ele>157.79</ele>
        <time>2019-10-13T07:29:55Z</time>
      </trkpt>
      <trkpt lat="43.43081" lon="-0.57124">
        <ele>154.91</ele>
        <time>2019-10-13T07:30:07Z</time>
      </trkpt>
      <trkpt lat="43.43084" lon="-0.57126">
        <ele>153.95</ele>
        <time>2019-10-13T07:30:10Z</time>
      </trkpt>
      <trkpt lat="43.43101" lon="-0.57123">
        <ele>151.06</ele>
        <time>2019-10-13T07:30:23Z</time>
      </trkpt>
      <trkpt lat="43.43111" lon="-0.57119">
        <ele>149.14</ele>
        <time>2019-10-13T07:30:31Z</time>
      </trkpt>
      <trkpt lat="43.43122" lon="-0.57115">
        <ele>148.18</ele>
        <time>2019-10-13T07:30:37Z</time>
      </trkpt>
      <trkpt lat="43.43137" lon="-0.57117">
        <ele>147.7</ele>
        <time>2019-10-13T07:30:42Z</time>
      </trkpt>
      <trkpt lat="43.43161" lon="-0.57109">
        <ele>145.3</ele>
        <time>2019-10-13T07:30:53Z</time>
      </trkpt>
      <trkpt lat="43.43179" lon="-0.57101">
        <ele>143.37</ele>
        <time>2019-10-13T07:31:03Z</time>
      </trkpt>
      <trkpt lat="43.4318" lon="-0.57102">
        <ele>143.85</ele>
        <time>2019-10-13T07:31:05Z</time>
      </trkpt>
      <trkpt lat="43.4318" lon="-0.57099">
        <ele>143.37</ele>
        <time>2019-10-13T07:31:07Z</time>
      </trkpt>
      <trkpt lat="43.43178" lon="-0.57092">
        <ele>142.89</ele>
        <time>2019-10-13T07:31:11Z</time>
      </trkpt>
      <trkpt lat="43.43173" lon="-0.57073">
        <ele>143.37</ele>
        <time>2019-10-13T07:31:18Z</time>
      </trkpt>
      <trkpt lat="43.43154" lon="-0.57028">
        <ele>144.82</ele>
        <time>2019-10-13T07:31:31Z</time>
      </trkpt>
      <trkpt lat="43.43136" lon="-0.56982">
        <ele>145.3</ele>
        <time>2019-10-13T07:31:43Z</time>
      </trkpt>
      <trkpt lat="43.43109" lon="-0.5694">
        <ele>142.89</ele>
        <time>2019-10-13T07:31:56Z</time>
      </trkpt>
      <trkpt lat="43.43102" lon="-0.56898">
        <ele>141.93</ele>
        <time>2019-10-13T07:32:06Z</time>
      </trkpt>
      <trkpt lat="43.43103" lon="-0.56887">
        <ele>141.93</ele>
        <time>2019-10-13T07:32:09Z</time>
      </trkpt>
      <trkpt lat="43.43094" lon="-0.56843">
        <ele>144.82</ele>
        <time>2019-10-13T07:32:19Z</time>
      </trkpt>
      <trkpt lat="43.43079" lon="-0.56792">
        <ele>146.74</ele>
        <time>2019-10-13T07:32:31Z</time>
      </trkpt>
      <trkpt lat="43.43072" lon="-0.56767">
        <ele>146.74</ele>
        <time>2019-10-13T07:32:38Z</time>
      </trkpt>
      <trkpt lat="43.43071" lon="-0.56752">
        <ele>148.18</ele>
        <time>2019-10-13T07:32:41Z</time>
      </trkpt>
      <trkpt lat="43.43057" lon="-0.56722">
        <ele>149.62</ele>
        <time>2019-10-13T07:32:48Z</time>
      </trkpt>
      <trkpt lat="43.43046" lon="-0.56699">
        <ele>150.1</ele>
        <time>2019-10-13T07:32:53Z</time>
      </trkpt>
      <trkpt lat="43.43025" lon="-0.56649">
        <ele>151.06</ele>
        <time>2019-10-13T07:33:05Z</time>
      </trkpt>
      <trkpt lat="43.43025" lon="-0.56647">
        <ele>151.06</ele>
        <time>2019-10-13T07:33:06Z</time>
      </trkpt>
      <trkpt lat="43.43032" lon="-0.56637">
        <ele>153.47</ele>
        <time>2019-10-13T07:33:11Z</time>
      </trkpt>
      <trkpt lat="43.43061" lon="-0.56606">
        <ele>162.6</ele>
        <time>2019-10-13T07:33:24Z</time>
      </trkpt>
      <trkpt lat="43.43088" lon="-0.56578">
        <ele>163.08</ele>
        <time>2019-10-13T07:33:34Z</time>
      </trkpt>
      <trkpt lat="43.4311" lon="-0.56556">
        <ele>157.31</ele>
        <time>2019-10-13T07:33:43Z</time>
      </trkpt>
      <trkpt lat="43.4312" lon="-0.56546">
        <ele>155.87</ele>
        <time>2019-10-13T07:33:53Z</time>
      </trkpt>
      <trkpt lat="43.4314" lon="-0.56523">
        <ele>152.03</ele>
        <time>2019-10-13T07:34:03Z</time>
      </trkpt>
      <trkpt lat="43.43174" lon="-0.56485">
        <ele>150.58</ele>
        <time>2019-10-13T07:34:17Z</time>
      </trkpt>
      <trkpt lat="43.43197" lon="-0.56454">
        <ele>150.1</ele>
        <time>2019-10-13T07:34:27Z</time>
      </trkpt>
      <trkpt lat="43.43226" lon="-0.56422">
        <ele>150.58</ele>
        <time>2019-10-13T07:34:38Z</time>
      </trkpt>
      <trkpt lat="43.43254" lon="-0.56389">
        <ele>152.99</ele>
        <time>2019-10-13T07:34:49Z</time>
      </trkpt>
      <trkpt lat="43.4326" lon="-0.56382">
        <ele>152.99</ele>
        <time>2019-10-13T07:34:52Z</time>
      </trkpt>
      <trkpt lat="43.43284" lon="-0.56354">
        <ele>155.87</ele>
        <time>2019-10-13T07:35:05Z</time>
      </trkpt>
      <trkpt lat="43.43306" lon="-0.56327">
        <ele>154.43</ele>
        <time>2019-10-13T07:35:17Z</time>
      </trkpt>
      <trkpt lat="43.43314" lon="-0.56316">
        <ele>153.47</ele>
        <time>2019-10-13T07:35:23Z</time>
      </trkpt>
      <trkpt lat="43.43317" lon="-0.56308">
        <ele>152.99</ele>
        <time>2019-10-13T07:35:27Z</time>
      </trkpt>
      <trkpt lat="43.43327" lon="-0.56298">
        <ele>151.54</ele>
        <time>2019-10-13T07:35:35Z</time>
      </trkpt>
      <trkpt lat="43.43344" lon="-0.56283">
        <ele>155.39</ele>
        <time>2019-10-13T07:35:47Z</time>
      </trkpt>
      <trkpt lat="43.4336" lon="-0.56265">
        <ele>163.56</ele>
        <time>2019-10-13T07:36:00Z</time>
      </trkpt>
      <trkpt lat="43.43371" lon="-0.56253">
        <ele>168.37</ele>
        <time>2019-10-13T07:36:10Z</time>
      </trkpt>
      <trkpt lat="43.43384" lon="-0.56237">
        <ele>170.77</ele>
        <time>2019-10-13T07:36:22Z</time>
      </trkpt>
      <trkpt lat="43.43396" lon="-0.5622">
        <ele>171.25</ele>
        <time>2019-10-13T07:36:33Z</time>
      </trkpt>
      <trkpt lat="43.4341" lon="-0.56199">
        <ele>169.81</ele>
        <time>2019-10-13T07:36:45Z</time>
      </trkpt>
      <trkpt lat="43.43423" lon="-0.56184">
        <ele>168.37</ele>
        <time>2019-10-13T07:36:59Z</time>
      </trkpt>
      <trkpt lat="43.43422" lon="-0.56184">
        <ele>170.29</ele>
        <time>2019-10-13T07:37:17Z</time>
      </trkpt>
      <trkpt lat="43.43422" lon="-0.56178">
        <ele>173.17</ele>
        <time>2019-10-13T07:37:34Z</time>
      </trkpt>
      <trkpt lat="43.43426" lon="-0.56173">
        <ele>176.06</ele>
        <time>2019-10-13T07:37:47Z</time>
      </trkpt>
      <trkpt lat="43.4344" lon="-0.56157">
        <ele>177.98</ele>
        <time>2019-10-13T07:38:01Z</time>
      </trkpt>
      <trkpt lat="43.43449" lon="-0.56146">
        <ele>182.31</ele>
        <time>2019-10-13T07:38:10Z</time>
      </trkpt>
      <trkpt lat="43.43463" lon="-0.56135">
        <ele>188.08</ele>
        <time>2019-10-13T07:38:24Z</time>
      </trkpt>
      <trkpt lat="43.43478" lon="-0.5613">
        <ele>191.92</ele>
        <time>2019-10-13T07:38:35Z</time>
      </trkpt>
      <trkpt lat="43.43493" lon="-0.56121">
        <ele>195.28</ele>
        <time>2019-10-13T07:38:46Z</time>
      </trkpt>
      <trkpt lat="43.43504" lon="-0.56115">
        <ele>194.8</ele>
        <time>2019-10-13T07:38:58Z</time>
      </trkpt>
      <trkpt lat="43.4351" lon="-0.56113">
        <ele>190.96</ele>
        <time>2019-10-13T07:39:24Z</time>
      </trkpt>
      <trkpt lat="43.43512" lon="-0.5611">
        <ele>188.56</ele>
        <time>2019-10-13T07:39:46Z</time>
      </trkpt>
      <trkpt lat="43.43514" lon="-0.56112">
        <ele>188.56</ele>
        <time>2019-10-13T07:39:58Z</time>
      </trkpt>
      <trkpt lat="43.43519" lon="-0.56119">
        <ele>191.44</ele>
        <time>2019-10-13T07:40:15Z</time>
      </trkpt>
      <trkpt lat="43.43527" lon="-0.56131">
        <ele>191.92</ele>
        <time>2019-10-13T07:40:39Z</time>
      </trkpt>
      <trkpt lat="43.43542" lon="-0.56179">
        <ele>191.92</ele>
        <time>2019-10-13T07:40:52Z</time>
      </trkpt>
      <trkpt lat="43.4357" lon="-0.56262">
        <ele>188.08</ele>
        <time>2019-10-13T07:41:08Z</time>
      </trkpt>
      <trkpt lat="43.43604" lon="-0.56369">
        <ele>182.79</ele>
        <time>2019-10-13T07:41:22Z</time>
      </trkpt>
      <trkpt lat="43.43605" lon="-0.56376">
        <ele>182.79</ele>
        <time>2019-10-13T07:41:23Z</time>
      </trkpt>
      <trkpt lat="43.43606" lon="-0.56382">
        <ele>182.79</ele>
        <time>2019-10-13T07:41:24Z</time>
      </trkpt>
      <trkpt lat="43.43609" lon="-0.56394">
        <ele>182.31</ele>
        <time>2019-10-13T07:41:27Z</time>
      </trkpt>
      <trkpt lat="43.43611" lon="-0.56396">
        <ele>182.31</ele>
        <time>2019-10-13T07:41:28Z</time>
      </trkpt>
      <trkpt lat="43.43613" lon="-0.56396">
        <ele>182.79</ele>
        <time>2019-10-13T07:41:29Z</time>
      </trkpt>
      <trkpt lat="43.43614" lon="-0.56395">
        <ele>182.79</ele>
        <time>2019-10-13T07:41:30Z</time>
      </trkpt>
      <trkpt lat="43.43616" lon="-0.56393">
        <ele>182.79</ele>
        <time>2019-10-13T07:41:31Z</time>
      </trkpt>
      <trkpt lat="43.43617" lon="-0.56391">
        <ele>183.27</ele>
        <time>2019-10-13T07:41:32Z</time>
      </trkpt>
      <trkpt lat="43.43618" lon="-0.56388">
        <ele>183.27</ele>
        <time>2019-10-13T07:41:33Z</time>
      </trkpt>
      <trkpt lat="43.43628" lon="-0.5635">
        <ele>187.11</ele>
        <time>2019-10-13T07:41:47Z</time>
      </trkpt>
      <trkpt lat="43.43626" lon="-0.56301">
        <ele>190.48</ele>
        <time>2019-10-13T07:42:01Z</time>
      </trkpt>
      <trkpt lat="43.43622" lon="-0.56255">
        <ele>193.84</ele>
        <time>2019-10-13T07:42:15Z</time>
      </trkpt>
      <trkpt lat="43.43624" lon="-0.56216">
        <ele>197.21</ele>
        <time>2019-10-13T07:42:28Z</time>
      </trkpt>
      <trkpt lat="43.43633" lon="-0.56185">
        <ele>199.61</ele>
        <time>2019-10-13T07:42:43Z</time>
      </trkpt>
      <trkpt lat="43.43632" lon="-0.56172">
        <ele>202.98</ele>
        <time>2019-10-13T07:42:50Z</time>
      </trkpt>
      <trkpt lat="43.43631" lon="-0.56171">
        <ele>202.98</ele>
        <time>2019-10-13T07:42:51Z</time>
      </trkpt>
      <trkpt lat="43.4363" lon="-0.56169">
        <ele>202.98</ele>
        <time>2019-10-13T07:42:52Z</time>
      </trkpt>
      <trkpt lat="43.4363" lon="-0.56166">
        <ele>203.46</ele>
        <time>2019-10-13T07:42:53Z</time>
      </trkpt>
      <trkpt lat="43.4363" lon="-0.56164">
        <ele>203.94</ele>
        <time>2019-10-13T07:42:54Z</time>
      </trkpt>
      <trkpt lat="43.4363" lon="-0.56162">
        <ele>203.94</ele>
        <time>2019-10-13T07:42:55Z</time>
      </trkpt>
      <trkpt lat="43.43629" lon="-0.56159">
        <ele>204.42</ele>
        <time>2019-10-13T07:42:56Z</time>
      </trkpt>
      <trkpt lat="43.43628" lon="-0.56157">
        <ele>204.42</ele>
        <time>2019-10-13T07:42:57Z</time>
      </trkpt>
      <trkpt lat="43.43628" lon="-0.56156">
        <ele>204.9</ele>
        <time>2019-10-13T07:42:58Z</time>
      </trkpt>
      <trkpt lat="43.43627" lon="-0.56154">
        <ele>204.9</ele>
        <time>2019-10-13T07:42:59Z</time>
      </trkpt>
      <trkpt lat="43.43626" lon="-0.56152">
        <ele>205.38</ele>
        <time>2019-10-13T07:43:00Z</time>
      </trkpt>
      <trkpt lat="43.43625" lon="-0.56151">
        <ele>205.38</ele>
        <time>2019-10-13T07:43:01Z</time>
      </trkpt>
      <trkpt lat="43.43624" lon="-0.56149">
        <ele>205.86</ele>
        <time>2019-10-13T07:43:02Z</time>
      </trkpt>
      <trkpt lat="43.43623" lon="-0.56147">
        <ele>206.34</ele>
        <time>2019-10-13T07:43:03Z</time>
      </trkpt>
      <trkpt lat="43.43623" lon="-0.56144">
        <ele>206.34</ele>
        <time>2019-10-13T07:43:04Z</time>
      </trkpt>
      <trkpt lat="43.43623" lon="-0.56142">
        <ele>206.82</ele>
        <time>2019-10-13T07:43:05Z</time>
      </trkpt>
      <trkpt lat="43.43622" lon="-0.5614">
        <ele>207.3</ele>
        <time>2019-10-13T07:43:06Z</time>
      </trkpt>
      <trkpt lat="43.43622" lon="-0.56138">
        <ele>207.78</ele>
        <time>2019-10-13T07:43:07Z</time>
      </trkpt>
      <trkpt lat="43.43622" lon="-0.56136">
        <ele>207.78</ele>
        <time>2019-10-13T07:43:08Z</time>
      </trkpt>
      <trkpt lat="43.43621" lon="-0.56134">
        <ele>208.26</ele>
        <time>2019-10-13T07:43:09Z</time>
      </trkpt>
      <trkpt lat="43.43609" lon="-0.56106">
        <ele>215.47</ele>
        <time>2019-10-13T07:43:23Z</time>
      </trkpt>
      <trkpt lat="43.43599" lon="-0.5608">
        <ele>221.72</ele>
        <time>2019-10-13T07:43:37Z</time>
      </trkpt>
      <trkpt lat="43.4359" lon="-0.5605">
        <ele>225.57</ele>
        <time>2019-10-13T07:43:53Z</time>
      </trkpt>
      <trkpt lat="43.43578" lon="-0.56024">
        <ele>228.93</ele>
        <time>2019-10-13T07:44:06Z</time>
      </trkpt>
      <trkpt lat="43.43559" lon="-0.55981">
        <ele>232.3</ele>
        <time>2019-10-13T07:44:21Z</time>
      </trkpt>
      <trkpt lat="43.43547" lon="-0.55943">
        <ele>237.58</ele>
        <time>2019-10-13T07:44:33Z</time>
      </trkpt>
      <trkpt lat="43.43541" lon="-0.55916">
        <ele>239.02</ele>
        <time>2019-10-13T07:44:41Z</time>
      </trkpt>
      <trkpt lat="43.43556" lon="-0.55874">
        <ele>234.22</ele>
        <time>2019-10-13T07:44:52Z</time>
      </trkpt>
      <trkpt lat="43.43557" lon="-0.55868">
        <ele>233.74</ele>
        <time>2019-10-13T07:44:53Z</time>
      </trkpt>
      <trkpt lat="43.43558" lon="-0.55861">
        <ele>233.26</ele>
        <time>2019-10-13T07:44:54Z</time>
      </trkpt>
      <trkpt lat="43.43559" lon="-0.55854">
        <ele>232.78</ele>
        <time>2019-10-13T07:44:55Z</time>
      </trkpt>
      <trkpt lat="43.43559" lon="-0.55845">
        <ele>232.3</ele>
        <time>2019-10-13T07:44:56Z</time>
      </trkpt>
      <trkpt lat="43.4356" lon="-0.55764">
        <ele>227.01</ele>
        <time>2019-10-13T07:45:05Z</time>
      </trkpt>
      <trkpt lat="43.43561" lon="-0.55759">
        <ele>226.05</ele>
        <time>2019-10-13T07:45:06Z</time>
      </trkpt>
      <trkpt lat="43.43564" lon="-0.55756">
        <ele>225.57</ele>
        <time>2019-10-13T07:45:07Z</time>
      </trkpt>
      <trkpt lat="43.43568" lon="-0.55754">
        <ele>225.09</ele>
        <time>2019-10-13T07:45:08Z</time>
      </trkpt>
      <trkpt lat="43.4357" lon="-0.55755">
        <ele>224.61</ele>
        <time>2019-10-13T07:45:09Z</time>
      </trkpt>
      <trkpt lat="43.43572" lon="-0.55757">
        <ele>224.61</ele>
        <time>2019-10-13T07:45:10Z</time>
      </trkpt>
      <trkpt lat="43.43574" lon="-0.55759">
        <ele>224.61</ele>
        <time>2019-10-13T07:45:11Z</time>
      </trkpt>
      <trkpt lat="43.43576" lon="-0.55761">
        <ele>224.12</ele>
        <time>2019-10-13T07:45:12Z</time>
      </trkpt>
      <trkpt lat="43.43578" lon="-0.55763">
        <ele>223.64</ele>
        <time>2019-10-13T07:45:13Z</time>
      </trkpt>
      <trkpt lat="43.43581" lon="-0.55765">
        <ele>222.68</ele>
        <time>2019-10-13T07:45:14Z</time>
      </trkpt>
      <trkpt lat="43.43583" lon="-0.55767">
        <ele>222.68</ele>
        <time>2019-10-13T07:45:15Z</time>
      </trkpt>
      <trkpt lat="43.43586" lon="-0.55769">
        <ele>222.2</ele>
        <time>2019-10-13T07:45:16Z</time>
      </trkpt>
      <trkpt lat="43.43589" lon="-0.5577">
        <ele>222.2</ele>
        <time>2019-10-13T07:45:17Z</time>
      </trkpt>
      <trkpt lat="43.43611" lon="-0.55787">
        <ele>221.72</ele>
        <time>2019-10-13T07:45:29Z</time>
      </trkpt>
      <trkpt lat="43.43632" lon="-0.55811">
        <ele>221.72</ele>
        <time>2019-10-13T07:45:42Z</time>
      </trkpt>
      <trkpt lat="43.43654" lon="-0.55832">
        <ele>224.12</ele>
        <time>2019-10-13T07:45:56Z</time>
      </trkpt>
      <trkpt lat="43.43677" lon="-0.55855">
        <ele>227.01</ele>
        <time>2019-10-13T07:46:08Z</time>
      </trkpt>
      <trkpt lat="43.43704" lon="-0.55868">
        <ele>228.93</ele>
        <time>2019-10-13T07:46:22Z</time>
      </trkpt>
      <trkpt lat="43.43726" lon="-0.55851">
        <ele>231.81</ele>
        <time>2019-10-13T07:46:36Z</time>
      </trkpt>
      <trkpt lat="43.4375" lon="-0.55828">
        <ele>236.62</ele>
        <time>2019-10-13T07:46:51Z</time>
      </trkpt>
      <trkpt lat="43.43777" lon="-0.55796">
        <ele>241.91</ele>
        <time>2019-10-13T07:47:09Z</time>
      </trkpt>
      <trkpt lat="43.43797" lon="-0.55756">
        <ele>242.87</ele>
        <time>2019-10-13T07:47:25Z</time>
      </trkpt>
      <trkpt lat="43.43806" lon="-0.55691">
        <ele>242.87</ele>
        <time>2019-10-13T07:47:41Z</time>
      </trkpt>
      <trkpt lat="43.43815" lon="-0.55609">
        <ele>239.99</ele>
        <time>2019-10-13T07:47:54Z</time>
      </trkpt>
      <trkpt lat="43.43857" lon="-0.55504">
        <ele>236.14</ele>
        <time>2019-10-13T07:48:07Z</time>
      </trkpt>
      <trkpt lat="43.43861" lon="-0.55497">
        <ele>235.66</ele>
        <time>2019-10-13T07:48:08Z</time>
      </trkpt>
      <trkpt lat="43.43864" lon="-0.55489">
        <ele>235.18</ele>
        <time>2019-10-13T07:48:09Z</time>
      </trkpt>
      <trkpt lat="43.43866" lon="-0.55482">
        <ele>234.22</ele>
        <time>2019-10-13T07:48:10Z</time>
      </trkpt>
      <trkpt lat="43.43866" lon="-0.55473">
        <ele>233.74</ele>
        <time>2019-10-13T07:48:11Z</time>
      </trkpt>
      <trkpt lat="43.43866" lon="-0.55465">
        <ele>233.26</ele>
        <time>2019-10-13T07:48:12Z</time>
      </trkpt>
      <trkpt lat="43.43865" lon="-0.55456">
        <ele>232.78</ele>
        <time>2019-10-13T07:48:13Z</time>
      </trkpt>
      <trkpt lat="43.43862" lon="-0.55436">
        <ele>231.81</ele>
        <time>2019-10-13T07:48:15Z</time>
      </trkpt>
      <trkpt lat="43.43858" lon="-0.55416">
        <ele>230.37</ele>
        <time>2019-10-13T07:48:17Z</time>
      </trkpt>
      <trkpt lat="43.43857" lon="-0.55407">
        <ele>229.89</ele>
        <time>2019-10-13T07:48:18Z</time>
      </trkpt>
      <trkpt lat="43.43858" lon="-0.55399">
        <ele>229.41</ele>
        <time>2019-10-13T07:48:19Z</time>
      </trkpt>
      <trkpt lat="43.43859" lon="-0.55392">
        <ele>228.93</ele>
        <time>2019-10-13T07:48:20Z</time>
      </trkpt>
      <trkpt lat="43.43861" lon="-0.55386">
        <ele>228.45</ele>
        <time>2019-10-13T07:48:21Z</time>
      </trkpt>
      <trkpt lat="43.43863" lon="-0.55383">
        <ele>227.97</ele>
        <time>2019-10-13T07:48:22Z</time>
      </trkpt>
      <trkpt lat="43.43866" lon="-0.55382">
        <ele>227.97</ele>
        <time>2019-10-13T07:48:23Z</time>
      </trkpt>
      <trkpt lat="43.4387" lon="-0.55382">
        <ele>227.97</ele>
        <time>2019-10-13T07:48:24Z</time>
      </trkpt>
      <trkpt lat="43.43873" lon="-0.55383">
        <ele>227.49</ele>
        <time>2019-10-13T07:48:25Z</time>
      </trkpt>
      <trkpt lat="43.43877" lon="-0.55386">
        <ele>227.49</ele>
        <time>2019-10-13T07:48:26Z</time>
      </trkpt>
      <trkpt lat="43.43882" lon="-0.55389">
        <ele>227.01</ele>
        <time>2019-10-13T07:48:27Z</time>
      </trkpt>
      <trkpt lat="43.43903" lon="-0.55403">
        <ele>224.12</ele>
        <time>2019-10-13T07:48:35Z</time>
      </trkpt>
      <trkpt lat="43.43904" lon="-0.55403">
        <ele>225.09</ele>
        <time>2019-10-13T07:48:54Z</time>
      </trkpt>
      <trkpt lat="43.43905" lon="-0.55403">
        <ele>224.61</ele>
        <time>2019-10-13T07:49:19Z</time>
      </trkpt>
      <trkpt lat="43.43918" lon="-0.55411">
        <ele>222.2</ele>
        <time>2019-10-13T07:49:32Z</time>
      </trkpt>
      <trkpt lat="43.43932" lon="-0.55419">
        <ele>221.72</ele>
        <time>2019-10-13T07:49:35Z</time>
      </trkpt>
      <trkpt lat="43.44016" lon="-0.5546">
        <ele>217.4</ele>
        <time>2019-10-13T07:49:48Z</time>
      </trkpt>
      <trkpt lat="43.44022" lon="-0.55466">
        <ele>217.4</ele>
        <time>2019-10-13T07:49:49Z</time>
      </trkpt>
      <trkpt lat="43.44027" lon="-0.55472">
        <ele>217.4</ele>
        <time>2019-10-13T07:49:50Z</time>
      </trkpt>
      <trkpt lat="43.44032" lon="-0.5548">
        <ele>216.91</ele>
        <time>2019-10-13T07:49:51Z</time>
      </trkpt>
      <trkpt lat="43.44036" lon="-0.55487">
        <ele>216.91</ele>
        <time>2019-10-13T07:49:52Z</time>
      </trkpt>
      <trkpt lat="43.4404" lon="-0.55495">
        <ele>216.91</ele>
        <time>2019-10-13T07:49:53Z</time>
      </trkpt>
      <trkpt lat="43.44069" lon="-0.5556">
        <ele>217.4</ele>
        <time>2019-10-13T07:50:02Z</time>
      </trkpt>
      <trkpt lat="43.44109" lon="-0.55645">
        <ele>218.84</ele>
        <time>2019-10-13T07:50:18Z</time>
      </trkpt>
      <trkpt lat="43.44122" lon="-0.55676">
        <ele>219.32</ele>
        <time>2019-10-13T07:50:24Z</time>
      </trkpt>
      <trkpt lat="43.44124" lon="-0.55681">
        <ele>219.32</ele>
        <time>2019-10-13T07:50:25Z</time>
      </trkpt>
      <trkpt lat="43.44152" lon="-0.55743">
        <ele>220.76</ele>
        <time>2019-10-13T07:50:39Z</time>
      </trkpt>
      <trkpt lat="43.44201" lon="-0.55786">
        <ele>220.28</ele>
        <time>2019-10-13T07:50:53Z</time>
      </trkpt>
      <trkpt lat="43.4425" lon="-0.55835">
        <ele>216.91</ele>
        <time>2019-10-13T07:51:05Z</time>
      </trkpt>
      <trkpt lat="43.4426" lon="-0.55844">
        <ele>216.43</ele>
        <time>2019-10-13T07:51:07Z</time>
      </trkpt>
      <trkpt lat="43.44299" lon="-0.55879">
        <ele>212.59</ele>
        <time>2019-10-13T07:51:15Z</time>
      </trkpt>
      <trkpt lat="43.44303" lon="-0.55886">
        <ele>212.59</ele>
        <time>2019-10-13T07:51:16Z</time>
      </trkpt>
      <trkpt lat="43.44307" lon="-0.55894">
        <ele>212.11</ele>
        <time>2019-10-13T07:51:17Z</time>
      </trkpt>
      <trkpt lat="43.44311" lon="-0.55902">
        <ele>211.63</ele>
        <time>2019-10-13T07:51:18Z</time>
      </trkpt>
      <trkpt lat="43.44314" lon="-0.5591">
        <ele>211.15</ele>
        <time>2019-10-13T07:51:19Z</time>
      </trkpt>
      <trkpt lat="43.44341" lon="-0.55978">
        <ele>205.86</ele>
        <time>2019-10-13T07:51:27Z</time>
      </trkpt>
      <trkpt lat="43.44349" lon="-0.56003">
        <ele>203.46</ele>
        <time>2019-10-13T07:51:30Z</time>
      </trkpt>
      <trkpt lat="43.44353" lon="-0.5601">
        <ele>202.49</ele>
        <time>2019-10-13T07:51:31Z</time>
      </trkpt>
      <trkpt lat="43.44358" lon="-0.56015">
        <ele>201.53</ele>
        <time>2019-10-13T07:51:32Z</time>
      </trkpt>
      <trkpt lat="43.44364" lon="-0.56019">
        <ele>200.09</ele>
        <time>2019-10-13T07:51:33Z</time>
      </trkpt>
      <trkpt lat="43.4437" lon="-0.56022">
        <ele>198.65</ele>
        <time>2019-10-13T07:51:34Z</time>
      </trkpt>
      <trkpt lat="43.44384" lon="-0.56028">
        <ele>196.25</ele>
        <time>2019-10-13T07:51:36Z</time>
      </trkpt>
      <trkpt lat="43.44392" lon="-0.56029">
        <ele>195.28</ele>
        <time>2019-10-13T07:51:37Z</time>
      </trkpt>
      <trkpt lat="43.44418" lon="-0.56031">
        <ele>192.4</ele>
        <time>2019-10-13T07:51:40Z</time>
      </trkpt>
      <trkpt lat="43.44427" lon="-0.56029">
        <ele>191.44</ele>
        <time>2019-10-13T07:51:41Z</time>
      </trkpt>
      <trkpt lat="43.44436" lon="-0.56025">
        <ele>190.48</ele>
        <time>2019-10-13T07:51:42Z</time>
      </trkpt>
      <trkpt lat="43.44443" lon="-0.56019">
        <ele>190</ele>
        <time>2019-10-13T07:51:43Z</time>
      </trkpt>
      <trkpt lat="43.4445" lon="-0.56013">
        <ele>189.04</ele>
        <time>2019-10-13T07:51:44Z</time>
      </trkpt>
      <trkpt lat="43.44455" lon="-0.56006">
        <ele>188.56</ele>
        <time>2019-10-13T07:51:45Z</time>
      </trkpt>
      <trkpt lat="43.44461" lon="-0.55998">
        <ele>188.56</ele>
        <time>2019-10-13T07:51:46Z</time>
      </trkpt>
      <trkpt lat="43.44485" lon="-0.55961">
        <ele>186.63</ele>
        <time>2019-10-13T07:51:51Z</time>
      </trkpt>
      <trkpt lat="43.44489" lon="-0.55953">
        <ele>186.63</ele>
        <time>2019-10-13T07:51:52Z</time>
      </trkpt>
      <trkpt lat="43.44493" lon="-0.55932">
        <ele>185.67</ele>
        <time>2019-10-13T07:51:54Z</time>
      </trkpt>
      <trkpt lat="43.44494" lon="-0.55921">
        <ele>185.19</ele>
        <time>2019-10-13T07:51:55Z</time>
      </trkpt>
      <trkpt lat="43.44496" lon="-0.5586">
        <ele>184.23</ele>
        <time>2019-10-13T07:52:00Z</time>
      </trkpt>
      <trkpt lat="43.44493" lon="-0.55839">
        <ele>183.75</ele>
        <time>2019-10-13T07:52:02Z</time>
      </trkpt>
      <trkpt lat="43.44491" lon="-0.55831">
        <ele>183.27</ele>
        <time>2019-10-13T07:52:03Z</time>
      </trkpt>
      <trkpt lat="43.44491" lon="-0.55823">
        <ele>182.79</ele>
        <time>2019-10-13T07:52:04Z</time>
      </trkpt>
      <trkpt lat="43.44489" lon="-0.558">
        <ele>181.83</ele>
        <time>2019-10-13T07:52:07Z</time>
      </trkpt>
      <trkpt lat="43.44487" lon="-0.55792">
        <ele>181.35</ele>
        <time>2019-10-13T07:52:08Z</time>
      </trkpt>
      <trkpt lat="43.44484" lon="-0.55785">
        <ele>181.35</ele>
        <time>2019-10-13T07:52:09Z</time>
      </trkpt>
      <trkpt lat="43.4448" lon="-0.55779">
        <ele>181.35</ele>
        <time>2019-10-13T07:52:10Z</time>
      </trkpt>
      <trkpt lat="43.44477" lon="-0.55775">
        <ele>180.87</ele>
        <time>2019-10-13T07:52:11Z</time>
      </trkpt>
      <trkpt lat="43.44474" lon="-0.5577">
        <ele>180.87</ele>
        <time>2019-10-13T07:52:12Z</time>
      </trkpt>
      <trkpt lat="43.44471" lon="-0.55766">
        <ele>180.38</ele>
        <time>2019-10-13T07:52:13Z</time>
      </trkpt>
      <trkpt lat="43.4447" lon="-0.55763">
        <ele>180.38</ele>
        <time>2019-10-13T07:52:14Z</time>
      </trkpt>
      <trkpt lat="43.4447" lon="-0.5576">
        <ele>179.9</ele>
        <time>2019-10-13T07:52:15Z</time>
      </trkpt>
      <trkpt lat="43.44482" lon="-0.55728">
        <ele>177.5</ele>
        <time>2019-10-13T07:52:25Z</time>
      </trkpt>
      <trkpt lat="43.44485" lon="-0.55723">
        <ele>177.5</ele>
        <time>2019-10-13T07:52:26Z</time>
      </trkpt>
      <trkpt lat="43.4451" lon="-0.55692">
        <ele>177.5</ele>
        <time>2019-10-13T07:52:33Z</time>
      </trkpt>
      <trkpt lat="43.44568" lon="-0.55621">
        <ele>177.5</ele>
        <time>2019-10-13T07:52:49Z</time>
      </trkpt>
      <trkpt lat="43.44635" lon="-0.55542">
        <ele>177.5</ele>
        <time>2019-10-13T07:53:05Z</time>
      </trkpt>
      <trkpt lat="43.44684" lon="-0.55481">
        <ele>177.5</ele>
        <time>2019-10-13T07:53:20Z</time>
      </trkpt>
      <trkpt lat="43.44736" lon="-0.55417">
        <ele>176.06</ele>
        <time>2019-10-13T07:53:39Z</time>
      </trkpt>
      <trkpt lat="43.44764" lon="-0.55381">
        <ele>177.02</ele>
        <time>2019-10-13T07:53:51Z</time>
      </trkpt>
      <trkpt lat="43.44764" lon="-0.55378">
        <ele>177.02</ele>
        <time>2019-10-13T07:54:03Z</time>
      </trkpt>
      <trkpt lat="43.44763" lon="-0.55377">
        <ele>177.02</ele>
        <time>2019-10-13T07:54:10Z</time>
      </trkpt>
      <trkpt lat="43.44762" lon="-0.55376">
        <ele>177.02</ele>
        <time>2019-10-13T07:54:11Z</time>
      </trkpt>
      <trkpt lat="43.44761" lon="-0.55374">
        <ele>177.02</ele>
        <time>2019-10-13T07:54:12Z</time>
      </trkpt>
      <trkpt lat="43.4476" lon="-0.55372">
        <ele>177.02</ele>
        <time>2019-10-13T07:54:13Z</time>
      </trkpt>
      <trkpt lat="43.44758" lon="-0.5537">
        <ele>177.02</ele>
        <time>2019-10-13T07:54:14Z</time>
      </trkpt>
      <trkpt lat="43.4473" lon="-0.55341">
        <ele>177.5</ele>
        <time>2019-10-13T07:54:25Z</time>
      </trkpt>
      <trkpt lat="43.447" lon="-0.55301">
        <ele>177.5</ele>
        <time>2019-10-13T07:54:35Z</time>
      </trkpt>
      <trkpt lat="43.44683" lon="-0.55276">
        <ele>177.02</ele>
        <time>2019-10-13T07:54:40Z</time>
      </trkpt>
      <trkpt lat="43.4468" lon="-0.55271">
        <ele>177.02</ele>
        <time>2019-10-13T07:54:41Z</time>
      </trkpt>
      <trkpt lat="43.44673" lon="-0.55256">
        <ele>177.02</ele>
        <time>2019-10-13T07:54:44Z</time>
      </trkpt>
      <trkpt lat="43.4467" lon="-0.55252">
        <ele>177.02</ele>
        <time>2019-10-13T07:54:45Z</time>
      </trkpt>
      <trkpt lat="43.44666" lon="-0.55248">
        <ele>177.02</ele>
        <time>2019-10-13T07:54:46Z</time>
      </trkpt>
      <trkpt lat="43.44661" lon="-0.55247">
        <ele>177.02</ele>
        <time>2019-10-13T07:54:47Z</time>
      </trkpt>
      <trkpt lat="43.44657" lon="-0.55249">
        <ele>176.54</ele>
        <time>2019-10-13T07:54:48Z</time>
      </trkpt>
      <trkpt lat="43.44653" lon="-0.55252">
        <ele>177.02</ele>
        <time>2019-10-13T07:54:49Z</time>
      </trkpt>
      <trkpt lat="43.44649" lon="-0.55255">
        <ele>177.02</ele>
        <time>2019-10-13T07:54:50Z</time>
      </trkpt>
      <trkpt lat="43.44645" lon="-0.55258">
        <ele>176.54</ele>
        <time>2019-10-13T07:54:51Z</time>
      </trkpt>
      <trkpt lat="43.4464" lon="-0.5526">
        <ele>176.54</ele>
        <time>2019-10-13T07:54:52Z</time>
      </trkpt>
      <trkpt lat="43.44636" lon="-0.5526">
        <ele>176.54</ele>
        <time>2019-10-13T07:54:53Z</time>
      </trkpt>
      <trkpt lat="43.44631" lon="-0.55258">
        <ele>176.54</ele>
        <time>2019-10-13T07:54:54Z</time>
      </trkpt>
      <trkpt lat="43.44628" lon="-0.55255">
        <ele>177.02</ele>
        <time>2019-10-13T07:54:55Z</time>
      </trkpt>
      <trkpt lat="43.44624" lon="-0.55251">
        <ele>177.02</ele>
        <time>2019-10-13T07:54:56Z</time>
      </trkpt>
      <trkpt lat="43.44621" lon="-0.55247">
        <ele>177.5</ele>
        <time>2019-10-13T07:54:57Z</time>
      </trkpt>
      <trkpt lat="43.44609" lon="-0.55232">
        <ele>177.98</ele>
        <time>2019-10-13T07:55:01Z</time>
      </trkpt>
      <trkpt lat="43.44586" lon="-0.55182">
        <ele>177.02</ele>
        <time>2019-10-13T07:55:10Z</time>
      </trkpt>
      <trkpt lat="43.44569" lon="-0.55141">
        <ele>176.06</ele>
        <time>2019-10-13T07:55:17Z</time>
      </trkpt>
      <trkpt lat="43.44563" lon="-0.55132">
        <ele>175.58</ele>
        <time>2019-10-13T07:55:19Z</time>
      </trkpt>
      <trkpt lat="43.44549" lon="-0.55112">
        <ele>175.58</ele>
        <time>2019-10-13T07:55:23Z</time>
      </trkpt>
      <trkpt lat="43.44547" lon="-0.55106">
        <ele>175.58</ele>
        <time>2019-10-13T07:55:24Z</time>
      </trkpt>
      <trkpt lat="43.44513" lon="-0.55021">
        <ele>176.54</ele>
        <time>2019-10-13T07:55:38Z</time>
      </trkpt>
      <trkpt lat="43.44504" lon="-0.55003">
        <ele>176.54</ele>
        <time>2019-10-13T07:55:41Z</time>
      </trkpt>
      <trkpt lat="43.44502" lon="-0.54997">
        <ele>176.54</ele>
        <time>2019-10-13T07:55:42Z</time>
      </trkpt>
      <trkpt lat="43.445" lon="-0.5499">
        <ele>176.54</ele>
        <time>2019-10-13T07:55:43Z</time>
      </trkpt>
      <trkpt lat="43.44475" lon="-0.54896">
        <ele>176.06</ele>
        <time>2019-10-13T07:55:58Z</time>
      </trkpt>
      <trkpt lat="43.44448" lon="-0.54831">
        <ele>177.02</ele>
        <time>2019-10-13T07:56:12Z</time>
      </trkpt>
      <trkpt lat="43.44411" lon="-0.54751">
        <ele>177.02</ele>
        <time>2019-10-13T07:56:28Z</time>
      </trkpt>
      <trkpt lat="43.44374" lon="-0.54675">
        <ele>177.98</ele>
        <time>2019-10-13T07:56:44Z</time>
      </trkpt>
      <trkpt lat="43.44365" lon="-0.54655">
        <ele>177.98</ele>
        <time>2019-10-13T07:56:48Z</time>
      </trkpt>
      <trkpt lat="43.44363" lon="-0.5465">
        <ele>177.98</ele>
        <time>2019-10-13T07:56:49Z</time>
      </trkpt>
      <trkpt lat="43.44362" lon="-0.54644">
        <ele>177.98</ele>
        <time>2019-10-13T07:56:50Z</time>
      </trkpt>
      <trkpt lat="43.4436" lon="-0.54638">
        <ele>177.98</ele>
        <time>2019-10-13T07:56:51Z</time>
      </trkpt>
      <trkpt lat="43.44358" lon="-0.54633">
        <ele>177.5</ele>
        <time>2019-10-13T07:56:52Z</time>
      </trkpt>
      <trkpt lat="43.44355" lon="-0.54628">
        <ele>177.5</ele>
        <time>2019-10-13T07:56:53Z</time>
      </trkpt>
      <trkpt lat="43.44312" lon="-0.54559">
        <ele>178.46</ele>
        <time>2019-10-13T07:57:09Z</time>
      </trkpt>
      <trkpt lat="43.44305" lon="-0.54553">
        <ele>178.94</ele>
        <time>2019-10-13T07:57:11Z</time>
      </trkpt>
      <trkpt lat="43.44301" lon="-0.54551">
        <ele>178.94</ele>
        <time>2019-10-13T07:57:12Z</time>
      </trkpt>
      <trkpt lat="43.44296" lon="-0.54549">
        <ele>178.94</ele>
        <time>2019-10-13T07:57:13Z</time>
      </trkpt>
      <trkpt lat="43.44278" lon="-0.54544">
        <ele>178.94</ele>
        <time>2019-10-13T07:57:17Z</time>
      </trkpt>
      <trkpt lat="43.44201" lon="-0.54548">
        <ele>178.94</ele>
        <time>2019-10-13T07:57:34Z</time>
      </trkpt>
      <trkpt lat="43.44141" lon="-0.54594">
        <ele>179.42</ele>
        <time>2019-10-13T07:57:49Z</time>
      </trkpt>
      <trkpt lat="43.44133" lon="-0.54607">
        <ele>178.94</ele>
        <time>2019-10-13T07:57:52Z</time>
      </trkpt>
      <trkpt lat="43.44124" lon="-0.54627">
        <ele>178.94</ele>
        <time>2019-10-13T07:57:56Z</time>
      </trkpt>
      <trkpt lat="43.44109" lon="-0.54711">
        <ele>178.46</ele>
        <time>2019-10-13T07:58:12Z</time>
      </trkpt>
      <trkpt lat="43.44109" lon="-0.54755">
        <ele>181.35</ele>
        <time>2019-10-13T07:58:23Z</time>
      </trkpt>
      <trkpt lat="43.44116" lon="-0.54808">
        <ele>180.38</ele>
        <time>2019-10-13T07:58:35Z</time>
      </trkpt>
      <trkpt lat="43.44118" lon="-0.54814">
        <ele>180.38</ele>
        <time>2019-10-13T07:58:36Z</time>
      </trkpt>
      <trkpt lat="43.44122" lon="-0.54849">
        <ele>179.42</ele>
        <time>2019-10-13T07:58:42Z</time>
      </trkpt>
      <trkpt lat="43.44128" lon="-0.54869">
        <ele>177.98</ele>
        <time>2019-10-13T07:58:45Z</time>
      </trkpt>
      <trkpt lat="43.44163" lon="-0.54942">
        <ele>176.06</ele>
        <time>2019-10-13T07:58:55Z</time>
      </trkpt>
      <trkpt lat="43.44184" lon="-0.54994">
        <ele>179.42</ele>
        <time>2019-10-13T07:59:08Z</time>
      </trkpt>
      <trkpt lat="43.44213" lon="-0.5506">
        <ele>184.23</ele>
        <time>2019-10-13T07:59:22Z</time>
      </trkpt>
      <trkpt lat="43.44222" lon="-0.55112">
        <ele>183.75</ele>
        <time>2019-10-13T07:59:32Z</time>
      </trkpt>
      <trkpt lat="43.44235" lon="-0.55171">
        <ele>182.31</ele>
        <time>2019-10-13T07:59:43Z</time>
      </trkpt>
      <trkpt lat="43.44239" lon="-0.55176">
        <ele>182.31</ele>
        <time>2019-10-13T07:59:44Z</time>
      </trkpt>
      <trkpt lat="43.44252" lon="-0.55191">
        <ele>182.31</ele>
        <time>2019-10-13T07:59:47Z</time>
      </trkpt>
      <trkpt lat="43.44255" lon="-0.55197">
        <ele>182.31</ele>
        <time>2019-10-13T07:59:48Z</time>
      </trkpt>
      <trkpt lat="43.44257" lon="-0.55203">
        <ele>182.31</ele>
        <time>2019-10-13T07:59:49Z</time>
      </trkpt>
      <trkpt lat="43.44258" lon="-0.55208">
        <ele>182.31</ele>
        <time>2019-10-13T07:59:50Z</time>
      </trkpt>
      <trkpt lat="43.44259" lon="-0.55212">
        <ele>182.31</ele>
        <time>2019-10-13T07:59:51Z</time>
      </trkpt>
      <trkpt lat="43.44259" lon="-0.55215">
        <ele>182.31</ele>
        <time>2019-10-13T07:59:52Z</time>
      </trkpt>
      <trkpt lat="43.44259" lon="-0.55218">
        <ele>181.83</ele>
        <time>2019-10-13T07:59:53Z</time>
      </trkpt>
      <trkpt lat="43.44264" lon="-0.55251">
        <ele>182.31</ele>
        <time>2019-10-13T08:00:06Z</time>
      </trkpt>
      <trkpt lat="43.44271" lon="-0.55285">
        <ele>185.19</ele>
        <time>2019-10-13T08:00:21Z</time>
      </trkpt>
      <trkpt lat="43.44273" lon="-0.55296">
        <ele>186.63</ele>
        <time>2019-10-13T08:00:26Z</time>
      </trkpt>
      <trkpt lat="43.44273" lon="-0.55305">
        <ele>188.56</ele>
        <time>2019-10-13T08:00:32Z</time>
      </trkpt>
      <trkpt lat="43.44273" lon="-0.55306">
        <ele>188.56</ele>
        <time>2019-10-13T08:00:33Z</time>
      </trkpt>
      <trkpt lat="43.44272" lon="-0.55323">
        <ele>190</ele>
        <time>2019-10-13T08:00:42Z</time>
      </trkpt>
      <trkpt lat="43.44272" lon="-0.55325">
        <ele>190</ele>
        <time>2019-10-13T08:00:43Z</time>
      </trkpt>
      <trkpt lat="43.44272" lon="-0.55327">
        <ele>190</ele>
        <time>2019-10-13T08:00:44Z</time>
      </trkpt>
      <trkpt lat="43.44272" lon="-0.55329">
        <ele>190.48</ele>
        <time>2019-10-13T08:00:45Z</time>
      </trkpt>
      <trkpt lat="43.44272" lon="-0.55349">
        <ele>194.32</ele>
        <time>2019-10-13T08:00:55Z</time>
      </trkpt>
      <trkpt lat="43.44272" lon="-0.55351">
        <ele>194.8</ele>
        <time>2019-10-13T08:00:56Z</time>
      </trkpt>
      <trkpt lat="43.44272" lon="-0.55353">
        <ele>194.8</ele>
        <time>2019-10-13T08:00:57Z</time>
      </trkpt>
      <trkpt lat="43.44272" lon="-0.55386">
        <ele>198.17</ele>
        <time>2019-10-13T08:01:13Z</time>
      </trkpt>
      <trkpt lat="43.44263" lon="-0.55408">
        <ele>202.49</ele>
        <time>2019-10-13T08:01:27Z</time>
      </trkpt>
      <trkpt lat="43.44261" lon="-0.55415">
        <ele>202.98</ele>
        <time>2019-10-13T08:01:31Z</time>
      </trkpt>
      <trkpt lat="43.4427" lon="-0.55442">
        <ele>202.01</ele>
        <time>2019-10-13T08:01:45Z</time>
      </trkpt>
      <trkpt lat="43.44292" lon="-0.5547">
        <ele>195.28</ele>
        <time>2019-10-13T08:01:57Z</time>
      </trkpt>
      <trkpt lat="43.44309" lon="-0.55481">
        <ele>193.84</ele>
        <time>2019-10-13T08:02:00Z</time>
      </trkpt>
      <trkpt lat="43.44319" lon="-0.55486">
        <ele>192.4</ele>
        <time>2019-10-13T08:02:02Z</time>
      </trkpt>
      <trkpt lat="43.44328" lon="-0.55493">
        <ele>191.44</ele>
        <time>2019-10-13T08:02:04Z</time>
      </trkpt>
      <trkpt lat="43.44333" lon="-0.55496">
        <ele>190.48</ele>
        <time>2019-10-13T08:02:05Z</time>
      </trkpt>
      <trkpt lat="43.44338" lon="-0.55497">
        <ele>190</ele>
        <time>2019-10-13T08:02:06Z</time>
      </trkpt>
      <trkpt lat="43.44342" lon="-0.55498">
        <ele>189.52</ele>
        <time>2019-10-13T08:02:07Z</time>
      </trkpt>
      <trkpt lat="43.44347" lon="-0.55499">
        <ele>189.04</ele>
        <time>2019-10-13T08:02:08Z</time>
      </trkpt>
      <trkpt lat="43.44351" lon="-0.555">
        <ele>188.56</ele>
        <time>2019-10-13T08:02:09Z</time>
      </trkpt>
      <trkpt lat="43.44356" lon="-0.55503">
        <ele>188.08</ele>
        <time>2019-10-13T08:02:10Z</time>
      </trkpt>
      <trkpt lat="43.44359" lon="-0.55507">
        <ele>187.59</ele>
        <time>2019-10-13T08:02:11Z</time>
      </trkpt>
      <trkpt lat="43.44364" lon="-0.55512">
        <ele>187.59</ele>
        <time>2019-10-13T08:02:12Z</time>
      </trkpt>
      <trkpt lat="43.44398" lon="-0.5556">
        <ele>184.23</ele>
        <time>2019-10-13T08:02:22Z</time>
      </trkpt>
      <trkpt lat="43.44423" lon="-0.55586">
        <ele>180.38</ele>
        <time>2019-10-13T08:02:35Z</time>
      </trkpt>
      <trkpt lat="43.44427" lon="-0.55613">
        <ele>179.42</ele>
        <time>2019-10-13T08:02:44Z</time>
      </trkpt>
      <trkpt lat="43.44428" lon="-0.55615">
        <ele>179.9</ele>
        <time>2019-10-13T08:02:45Z</time>
      </trkpt>
      <trkpt lat="43.4443" lon="-0.55618">
        <ele>179.9</ele>
        <time>2019-10-13T08:02:46Z</time>
      </trkpt>
      <trkpt lat="43.44432" lon="-0.5562">
        <ele>180.38</ele>
        <time>2019-10-13T08:02:47Z</time>
      </trkpt>
      <trkpt lat="43.44433" lon="-0.55622">
        <ele>180.87</ele>
        <time>2019-10-13T08:02:48Z</time>
      </trkpt>
      <trkpt lat="43.44435" lon="-0.55624">
        <ele>180.87</ele>
        <time>2019-10-13T08:02:49Z</time>
      </trkpt>
      <trkpt lat="43.44437" lon="-0.55626">
        <ele>181.35</ele>
        <time>2019-10-13T08:02:50Z</time>
      </trkpt>
      <trkpt lat="43.44438" lon="-0.55628">
        <ele>181.83</ele>
        <time>2019-10-13T08:02:51Z</time>
      </trkpt>
      <trkpt lat="43.4444" lon="-0.5563">
        <ele>182.31</ele>
        <time>2019-10-13T08:02:52Z</time>
      </trkpt>
      <trkpt lat="43.44442" lon="-0.55631">
        <ele>182.79</ele>
        <time>2019-10-13T08:02:53Z</time>
      </trkpt>
      <trkpt lat="43.44444" lon="-0.55633">
        <ele>183.27</ele>
        <time>2019-10-13T08:02:54Z</time>
      </trkpt>
      <trkpt lat="43.44445" lon="-0.55634">
        <ele>183.75</ele>
        <time>2019-10-13T08:02:55Z</time>
      </trkpt>
      <trkpt lat="43.44453" lon="-0.55657">
        <ele>184.71</ele>
        <time>2019-10-13T08:03:04Z</time>
      </trkpt>
      <trkpt lat="43.44438" lon="-0.55684">
        <ele>185.67</ele>
        <time>2019-10-13T08:03:20Z</time>
      </trkpt>
      <trkpt lat="43.44436" lon="-0.55695">
        <ele>186.15</ele>
        <time>2019-10-13T08:03:24Z</time>
      </trkpt>
      <trkpt lat="43.44437" lon="-0.557">
        <ele>185.67</ele>
        <time>2019-10-13T08:03:25Z</time>
      </trkpt>
      <trkpt lat="43.44439" lon="-0.55705">
        <ele>185.67</ele>
        <time>2019-10-13T08:03:26Z</time>
      </trkpt>
      <trkpt lat="43.44443" lon="-0.55711">
        <ele>185.67</ele>
        <time>2019-10-13T08:03:27Z</time>
      </trkpt>
      <trkpt lat="43.44466" lon="-0.5575">
        <ele>184.71</ele>
        <time>2019-10-13T08:03:36Z</time>
      </trkpt>
      <trkpt lat="43.44482" lon="-0.55775">
        <ele>182.79</ele>
        <time>2019-10-13T08:03:51Z</time>
      </trkpt>
      <trkpt lat="43.44478" lon="-0.55778">
        <ele>181.83</ele>
        <time>2019-10-13T08:04:20Z</time>
      </trkpt>
      <trkpt lat="43.44481" lon="-0.55775">
        <ele>181.83</ele>
        <time>2019-10-13T08:04:34Z</time>
      </trkpt>
      <trkpt lat="43.44483" lon="-0.55774">
        <ele>181.35</ele>
        <time>2019-10-13T08:05:05Z</time>
      </trkpt>
      <trkpt lat="43.44482" lon="-0.55773">
        <ele>181.83</ele>
        <time>2019-10-13T08:05:29Z</time>
      </trkpt>
      <trkpt lat="43.44485" lon="-0.55767">
        <ele>184.71</ele>
        <time>2019-10-13T08:05:56Z</time>
      </trkpt>
      <trkpt lat="43.44485" lon="-0.55768">
        <ele>184.23</ele>
        <time>2019-10-13T08:06:16Z</time>
      </trkpt>
      <trkpt lat="43.44483" lon="-0.55771">
        <ele>183.27</ele>
        <time>2019-10-13T08:06:42Z</time>
      </trkpt>
      <trkpt lat="43.44483" lon="-0.55773">
        <ele>182.79</ele>
        <time>2019-10-13T08:07:00Z</time>
      </trkpt>
      <trkpt lat="43.44483" lon="-0.55773">
        <ele>181.83</ele>
        <time>2019-10-13T08:07:17Z</time>
      </trkpt>
      <trkpt lat="43.44482" lon="-0.55774">
        <ele>182.31</ele>
        <time>2019-10-13T08:07:38Z</time>
      </trkpt>
      <trkpt lat="43.44482" lon="-0.55773">
        <ele>183.75</ele>
        <time>2019-10-13T08:08:00Z</time>
      </trkpt>
      <trkpt lat="43.44481" lon="-0.55772">
        <ele>183.27</ele>
        <time>2019-10-13T08:08:11Z</time>
      </trkpt>
      <trkpt lat="43.4448" lon="-0.55773">
        <ele>182.79</ele>
        <time>2019-10-13T08:08:25Z</time>
      </trkpt>
      <trkpt lat="43.4448" lon="-0.55776">
        <ele>183.27</ele>
        <time>2019-10-13T08:08:50Z</time>
      </trkpt>
      <trkpt lat="43.44481" lon="-0.5578">
        <ele>182.79</ele>
        <time>2019-10-13T08:09:02Z</time>
      </trkpt>
      <trkpt lat="43.44483" lon="-0.55781">
        <ele>182.79</ele>
        <time>2019-10-13T08:09:10Z</time>
      </trkpt>
      <trkpt lat="43.44483" lon="-0.55782">
        <ele>182.79</ele>
        <time>2019-10-13T08:09:11Z</time>
      </trkpt>
      <trkpt lat="43.44484" lon="-0.55783">
        <ele>182.79</ele>
        <time>2019-10-13T08:09:12Z</time>
      </trkpt>
      <trkpt lat="43.44485" lon="-0.55785">
        <ele>182.79</ele>
        <time>2019-10-13T08:09:13Z</time>
      </trkpt>
      <trkpt lat="43.44486" lon="-0.55787">
        <ele>182.79</ele>
        <time>2019-10-13T08:09:14Z</time>
      </trkpt>
      <trkpt lat="43.44487" lon="-0.55789">
        <ele>183.27</ele>
        <time>2019-10-13T08:09:15Z</time>
      </trkpt>
      <trkpt lat="43.44488" lon="-0.55792">
        <ele>183.27</ele>
        <time>2019-10-13T08:09:16Z</time>
      </trkpt>
      <trkpt lat="43.44489" lon="-0.55795">
        <ele>183.27</ele>
        <time>2019-10-13T08:09:17Z</time>
      </trkpt>
      <trkpt lat="43.44489" lon="-0.55798">
        <ele>183.27</ele>
        <time>2019-10-13T08:09:18Z</time>
      </trkpt>
      <trkpt lat="43.44493" lon="-0.55843">
        <ele>184.23</ele>
        <time>2019-10-13T08:09:33Z</time>
      </trkpt>
      <trkpt lat="43.44497" lon="-0.55892">
        <ele>185.19</ele>
        <time>2019-10-13T08:09:47Z</time>
      </trkpt>
      <trkpt lat="43.44495" lon="-0.55941">
        <ele>185.19</ele>
        <time>2019-10-13T08:09:59Z</time>
      </trkpt>
      <trkpt lat="43.44475" lon="-0.55982">
        <ele>185.19</ele>
        <time>2019-10-13T08:10:11Z</time>
      </trkpt>
      <trkpt lat="43.44452" lon="-0.56019">
        <ele>186.15</ele>
        <time>2019-10-13T08:10:21Z</time>
      </trkpt>
      <trkpt lat="43.44453" lon="-0.56024">
        <ele>186.15</ele>
        <time>2019-10-13T08:10:24Z</time>
      </trkpt>
      <trkpt lat="43.44455" lon="-0.56024">
        <ele>186.15</ele>
        <time>2019-10-13T08:10:25Z</time>
      </trkpt>
      <trkpt lat="43.44474" lon="-0.56025">
        <ele>185.19</ele>
        <time>2019-10-13T08:10:29Z</time>
      </trkpt>
      <trkpt lat="43.44506" lon="-0.56034">
        <ele>183.27</ele>
        <time>2019-10-13T08:10:38Z</time>
      </trkpt>
      <trkpt lat="43.44519" lon="-0.56054">
        <ele>184.23</ele>
        <time>2019-10-13T08:10:49Z</time>
      </trkpt>
      <trkpt lat="43.44534" lon="-0.56075">
        <ele>187.11</ele>
        <time>2019-10-13T08:11:00Z</time>
      </trkpt>
      <trkpt lat="43.44557" lon="-0.56101">
        <ele>194.32</ele>
        <time>2019-10-13T08:11:14Z</time>
      </trkpt>
      <trkpt lat="43.4456" lon="-0.56107">
        <ele>194.8</ele>
        <time>2019-10-13T08:11:17Z</time>
      </trkpt>
      <trkpt lat="43.44562" lon="-0.5611">
        <ele>194.8</ele>
        <time>2019-10-13T08:11:18Z</time>
      </trkpt>
      <trkpt lat="43.44563" lon="-0.56113">
        <ele>194.8</ele>
        <time>2019-10-13T08:11:19Z</time>
      </trkpt>
      <trkpt lat="43.44564" lon="-0.56116">
        <ele>194.8</ele>
        <time>2019-10-13T08:11:20Z</time>
      </trkpt>
      <trkpt lat="43.44564" lon="-0.56118">
        <ele>194.8</ele>
        <time>2019-10-13T08:11:21Z</time>
      </trkpt>
      <trkpt lat="43.44565" lon="-0.56121">
        <ele>194.8</ele>
        <time>2019-10-13T08:11:22Z</time>
      </trkpt>
      <trkpt lat="43.44567" lon="-0.56126">
        <ele>194.32</ele>
        <time>2019-10-13T08:11:24Z</time>
      </trkpt>
      <trkpt lat="43.44567" lon="-0.56128">
        <ele>193.84</ele>
        <time>2019-10-13T08:11:25Z</time>
      </trkpt>
      <trkpt lat="43.4457" lon="-0.56138">
        <ele>195.28</ele>
        <time>2019-10-13T08:11:31Z</time>
      </trkpt>
      <trkpt lat="43.44572" lon="-0.56141">
        <ele>195.77</ele>
        <time>2019-10-13T08:11:32Z</time>
      </trkpt>
      <trkpt lat="43.44574" lon="-0.56144">
        <ele>195.28</ele>
        <time>2019-10-13T08:11:33Z</time>
      </trkpt>
      <trkpt lat="43.44576" lon="-0.56146">
        <ele>195.77</ele>
        <time>2019-10-13T08:11:34Z</time>
      </trkpt>
      <trkpt lat="43.44577" lon="-0.56149">
        <ele>196.25</ele>
        <time>2019-10-13T08:11:35Z</time>
      </trkpt>
      <trkpt lat="43.44578" lon="-0.56152">
        <ele>196.25</ele>
        <time>2019-10-13T08:11:36Z</time>
      </trkpt>
      <trkpt lat="43.44579" lon="-0.56155">
        <ele>196.73</ele>
        <time>2019-10-13T08:11:37Z</time>
      </trkpt>
      <trkpt lat="43.4458" lon="-0.56158">
        <ele>197.21</ele>
        <time>2019-10-13T08:11:38Z</time>
      </trkpt>
      <trkpt lat="43.44596" lon="-0.56205">
        <ele>199.13</ele>
        <time>2019-10-13T08:11:50Z</time>
      </trkpt>
      <trkpt lat="43.44612" lon="-0.56236">
        <ele>197.69</ele>
        <time>2019-10-13T08:11:58Z</time>
      </trkpt>
      <trkpt lat="43.44645" lon="-0.5626">
        <ele>197.69</ele>
        <time>2019-10-13T08:12:08Z</time>
      </trkpt>
      <trkpt lat="43.44676" lon="-0.56295">
        <ele>202.01</ele>
        <time>2019-10-13T08:12:20Z</time>
      </trkpt>
      <trkpt lat="43.44681" lon="-0.56303">
        <ele>202.49</ele>
        <time>2019-10-13T08:12:22Z</time>
      </trkpt>
      <trkpt lat="43.44688" lon="-0.56312">
        <ele>202.98</ele>
        <time>2019-10-13T08:12:24Z</time>
      </trkpt>
      <trkpt lat="43.44693" lon="-0.56316">
        <ele>202.98</ele>
        <time>2019-10-13T08:12:25Z</time>
      </trkpt>
      <trkpt lat="43.44696" lon="-0.56319">
        <ele>202.98</ele>
        <time>2019-10-13T08:12:26Z</time>
      </trkpt>
      <trkpt lat="43.447" lon="-0.56322">
        <ele>202.98</ele>
        <time>2019-10-13T08:12:27Z</time>
      </trkpt>
      <trkpt lat="43.44702" lon="-0.56325">
        <ele>203.46</ele>
        <time>2019-10-13T08:12:28Z</time>
      </trkpt>
      <trkpt lat="43.44704" lon="-0.56328">
        <ele>203.46</ele>
        <time>2019-10-13T08:12:29Z</time>
      </trkpt>
      <trkpt lat="43.44722" lon="-0.56356">
        <ele>203.46</ele>
        <time>2019-10-13T08:12:38Z</time>
      </trkpt>
      <trkpt lat="43.44725" lon="-0.56357">
        <ele>203.46</ele>
        <time>2019-10-13T08:12:39Z</time>
      </trkpt>
      <trkpt lat="43.44727" lon="-0.56359">
        <ele>203.46</ele>
        <time>2019-10-13T08:12:40Z</time>
      </trkpt>
      <trkpt lat="43.44729" lon="-0.56362">
        <ele>203.94</ele>
        <time>2019-10-13T08:12:41Z</time>
      </trkpt>
      <trkpt lat="43.44732" lon="-0.56364">
        <ele>203.94</ele>
        <time>2019-10-13T08:12:42Z</time>
      </trkpt>
      <trkpt lat="43.44735" lon="-0.56366">
        <ele>203.94</ele>
        <time>2019-10-13T08:12:43Z</time>
      </trkpt>
      <trkpt lat="43.44738" lon="-0.5637">
        <ele>203.94</ele>
        <time>2019-10-13T08:12:44Z</time>
      </trkpt>
      <trkpt lat="43.4474" lon="-0.56372">
        <ele>203.94</ele>
        <time>2019-10-13T08:12:45Z</time>
      </trkpt>
      <trkpt lat="43.44743" lon="-0.56374">
        <ele>204.42</ele>
        <time>2019-10-13T08:12:46Z</time>
      </trkpt>
      <trkpt lat="43.44772" lon="-0.56405">
        <ele>200.57</ele>
        <time>2019-10-13T08:12:54Z</time>
      </trkpt>
      <trkpt lat="43.4481" lon="-0.56443">
        <ele>193.36</ele>
        <time>2019-10-13T08:13:06Z</time>
      </trkpt>
      <trkpt lat="43.44826" lon="-0.56461">
        <ele>191.92</ele>
        <time>2019-10-13T08:13:14Z</time>
      </trkpt>
      <trkpt lat="43.44826" lon="-0.56463">
        <ele>191.92</ele>
        <time>2019-10-13T08:13:15Z</time>
      </trkpt>
      <trkpt lat="43.44824" lon="-0.56494">
        <ele>191.92</ele>
        <time>2019-10-13T08:13:31Z</time>
      </trkpt>
      <trkpt lat="43.44809" lon="-0.56531">
        <ele>193.84</ele>
        <time>2019-10-13T08:13:48Z</time>
      </trkpt>
      <trkpt lat="43.44802" lon="-0.56554">
        <ele>195.77</ele>
        <time>2019-10-13T08:14:00Z</time>
      </trkpt>
      <trkpt lat="43.44802" lon="-0.56556">
        <ele>196.25</ele>
        <time>2019-10-13T08:14:01Z</time>
      </trkpt>
      <trkpt lat="43.44802" lon="-0.56558">
        <ele>196.25</ele>
        <time>2019-10-13T08:14:02Z</time>
      </trkpt>
      <trkpt lat="43.44801" lon="-0.56561">
        <ele>196.73</ele>
        <time>2019-10-13T08:14:03Z</time>
      </trkpt>
      <trkpt lat="43.44801" lon="-0.56563">
        <ele>197.21</ele>
        <time>2019-10-13T08:14:04Z</time>
      </trkpt>
      <trkpt lat="43.448" lon="-0.56565">
        <ele>197.21</ele>
        <time>2019-10-13T08:14:05Z</time>
      </trkpt>
      <trkpt lat="43.44797" lon="-0.56584">
        <ele>199.13</ele>
        <time>2019-10-13T08:14:13Z</time>
      </trkpt>
      <trkpt lat="43.44796" lon="-0.56585">
        <ele>199.13</ele>
        <time>2019-10-13T08:14:14Z</time>
      </trkpt>
      <trkpt lat="43.44795" lon="-0.56588">
        <ele>199.61</ele>
        <time>2019-10-13T08:14:15Z</time>
      </trkpt>
      <trkpt lat="43.44795" lon="-0.5659">
        <ele>199.61</ele>
        <time>2019-10-13T08:14:16Z</time>
      </trkpt>
      <trkpt lat="43.44794" lon="-0.56592">
        <ele>199.61</ele>
        <time>2019-10-13T08:14:17Z</time>
      </trkpt>
      <trkpt lat="43.44793" lon="-0.56594">
        <ele>199.61</ele>
        <time>2019-10-13T08:14:18Z</time>
      </trkpt>
      <trkpt lat="43.44794" lon="-0.56596">
        <ele>200.57</ele>
        <time>2019-10-13T08:14:19Z</time>
      </trkpt>
      <trkpt lat="43.44794" lon="-0.56598">
        <ele>201.05</ele>
        <time>2019-10-13T08:14:20Z</time>
      </trkpt>
      <trkpt lat="43.44794" lon="-0.56599">
        <ele>201.53</ele>
        <time>2019-10-13T08:14:21Z</time>
      </trkpt>
      <trkpt lat="43.44793" lon="-0.56601">
        <ele>202.49</ele>
        <time>2019-10-13T08:14:22Z</time>
      </trkpt>
      <trkpt lat="43.44792" lon="-0.56603">
        <ele>202.49</ele>
        <time>2019-10-13T08:14:23Z</time>
      </trkpt>
      <trkpt lat="43.44792" lon="-0.56605">
        <ele>202.98</ele>
        <time>2019-10-13T08:14:24Z</time>
      </trkpt>
      <trkpt lat="43.44791" lon="-0.56607">
        <ele>203.46</ele>
        <time>2019-10-13T08:14:25Z</time>
      </trkpt>
      <trkpt lat="43.44781" lon="-0.5663">
        <ele>209.22</ele>
        <time>2019-10-13T08:14:37Z</time>
      </trkpt>
      <trkpt lat="43.4478" lon="-0.56632">
        <ele>209.7</ele>
        <time>2019-10-13T08:14:38Z</time>
      </trkpt>
      <trkpt lat="43.44779" lon="-0.56634">
        <ele>209.7</ele>
        <time>2019-10-13T08:14:39Z</time>
      </trkpt>
      <trkpt lat="43.44778" lon="-0.56635">
        <ele>210.19</ele>
        <time>2019-10-13T08:14:40Z</time>
      </trkpt>
      <trkpt lat="43.44778" lon="-0.56637">
        <ele>211.15</ele>
        <time>2019-10-13T08:14:41Z</time>
      </trkpt>
      <trkpt lat="43.44777" lon="-0.56638">
        <ele>211.63</ele>
        <time>2019-10-13T08:14:42Z</time>
      </trkpt>
      <trkpt lat="43.44776" lon="-0.56639">
        <ele>212.11</ele>
        <time>2019-10-13T08:14:43Z</time>
      </trkpt>
      <trkpt lat="43.44775" lon="-0.5664">
        <ele>212.11</ele>
        <time>2019-10-13T08:14:44Z</time>
      </trkpt>
      <trkpt lat="43.44774" lon="-0.56641">
        <ele>212.59</ele>
        <time>2019-10-13T08:14:45Z</time>
      </trkpt>
      <trkpt lat="43.4476" lon="-0.56666">
        <ele>215.47</ele>
        <time>2019-10-13T08:15:00Z</time>
      </trkpt>
      <trkpt lat="43.4474" lon="-0.56699">
        <ele>216.43</ele>
        <time>2019-10-13T08:15:17Z</time>
      </trkpt>
      <trkpt lat="43.44736" lon="-0.56725">
        <ele>220.76</ele>
        <time>2019-10-13T08:15:30Z</time>
      </trkpt>
      <trkpt lat="43.44736" lon="-0.56727">
        <ele>221.24</ele>
        <time>2019-10-13T08:15:31Z</time>
      </trkpt>
      <trkpt lat="43.44736" lon="-0.5673">
        <ele>221.72</ele>
        <time>2019-10-13T08:15:32Z</time>
      </trkpt>
      <trkpt lat="43.44734" lon="-0.56755">
        <ele>225.09</ele>
        <time>2019-10-13T08:15:44Z</time>
      </trkpt>
      <trkpt lat="43.44734" lon="-0.56758">
        <ele>225.57</ele>
        <time>2019-10-13T08:15:45Z</time>
      </trkpt>
      <trkpt lat="43.44734" lon="-0.5676">
        <ele>226.05</ele>
        <time>2019-10-13T08:15:46Z</time>
      </trkpt>
      <trkpt lat="43.44733" lon="-0.56762">
        <ele>226.05</ele>
        <time>2019-10-13T08:15:47Z</time>
      </trkpt>
      <trkpt lat="43.44733" lon="-0.56765">
        <ele>226.05</ele>
        <time>2019-10-13T08:15:48Z</time>
      </trkpt>
      <trkpt lat="43.44733" lon="-0.56767">
        <ele>226.53</ele>
        <time>2019-10-13T08:15:49Z</time>
      </trkpt>
      <trkpt lat="43.4473" lon="-0.56807">
        <ele>228.45</ele>
        <time>2019-10-13T08:16:04Z</time>
      </trkpt>
      <trkpt lat="43.44737" lon="-0.56847">
        <ele>227.01</ele>
        <time>2019-10-13T08:16:17Z</time>
      </trkpt>
      <trkpt lat="43.44754" lon="-0.56885">
        <ele>227.49</ele>
        <time>2019-10-13T08:16:25Z</time>
      </trkpt>
      <trkpt lat="43.44756" lon="-0.5689">
        <ele>227.49</ele>
        <time>2019-10-13T08:16:26Z</time>
      </trkpt>
      <trkpt lat="43.44786" lon="-0.5695">
        <ele>227.49</ele>
        <time>2019-10-13T08:16:42Z</time>
      </trkpt>
      <trkpt lat="43.44788" lon="-0.5695">
        <ele>227.49</ele>
        <time>2019-10-13T08:16:43Z</time>
      </trkpt>
      <trkpt lat="43.44791" lon="-0.5695">
        <ele>226.05</ele>
        <time>2019-10-13T08:16:56Z</time>
      </trkpt>
      <trkpt lat="43.44792" lon="-0.56949">
        <ele>225.57</ele>
        <time>2019-10-13T08:16:57Z</time>
      </trkpt>
      <trkpt lat="43.44817" lon="-0.56925">
        <ele>223.16</ele>
        <time>2019-10-13T08:17:09Z</time>
      </trkpt>
      <trkpt lat="43.44822" lon="-0.56926">
        <ele>222.2</ele>
        <time>2019-10-13T08:17:10Z</time>
      </trkpt>
      <trkpt lat="43.44826" lon="-0.56927">
        <ele>221.72</ele>
        <time>2019-10-13T08:17:11Z</time>
      </trkpt>
      <trkpt lat="43.44849" lon="-0.56938">
        <ele>217.88</ele>
        <time>2019-10-13T08:17:16Z</time>
      </trkpt>
      <trkpt lat="43.44864" lon="-0.56947">
        <ele>216.43</ele>
        <time>2019-10-13T08:17:19Z</time>
      </trkpt>
      <trkpt lat="43.44905" lon="-0.56976">
        <ele>213.55</ele>
        <time>2019-10-13T08:17:27Z</time>
      </trkpt>
      <trkpt lat="43.44909" lon="-0.56979">
        <ele>213.55</ele>
        <time>2019-10-13T08:17:28Z</time>
      </trkpt>
      <trkpt lat="43.44921" lon="-0.56989">
        <ele>212.11</ele>
        <time>2019-10-13T08:17:31Z</time>
      </trkpt>
      <trkpt lat="43.44933" lon="-0.57003">
        <ele>209.7</ele>
        <time>2019-10-13T08:17:34Z</time>
      </trkpt>
      <trkpt lat="43.4495" lon="-0.57021">
        <ele>205.38</ele>
        <time>2019-10-13T08:17:39Z</time>
      </trkpt>
      <trkpt lat="43.44963" lon="-0.57002">
        <ele>201.53</ele>
        <time>2019-10-13T08:17:44Z</time>
      </trkpt>
      <trkpt lat="43.44983" lon="-0.56973">
        <ele>197.69</ele>
        <time>2019-10-13T08:17:52Z</time>
      </trkpt>
      <trkpt lat="43.44993" lon="-0.56964">
        <ele>197.21</ele>
        <time>2019-10-13T08:17:54Z</time>
      </trkpt>
      <trkpt lat="43.45004" lon="-0.56955">
        <ele>196.25</ele>
        <time>2019-10-13T08:17:56Z</time>
      </trkpt>
      <trkpt lat="43.45018" lon="-0.56938">
        <ele>192.88</ele>
        <time>2019-10-13T08:18:02Z</time>
      </trkpt>
      <trkpt lat="43.45022" lon="-0.56934">
        <ele>190</ele>
        <time>2019-10-13T08:18:16Z</time>
      </trkpt>
      <trkpt lat="43.45026" lon="-0.56924">
        <ele>189.04</ele>
        <time>2019-10-13T08:18:24Z</time>
      </trkpt>
      <trkpt lat="43.45028" lon="-0.56924">
        <ele>189.04</ele>
        <time>2019-10-13T08:18:25Z</time>
      </trkpt>
      <trkpt lat="43.4503" lon="-0.56924">
        <ele>189.04</ele>
        <time>2019-10-13T08:18:26Z</time>
      </trkpt>
      <trkpt lat="43.45031" lon="-0.56925">
        <ele>189.04</ele>
        <time>2019-10-13T08:18:27Z</time>
      </trkpt>
      <trkpt lat="43.45032" lon="-0.56923">
        <ele>189.04</ele>
        <time>2019-10-13T08:18:28Z</time>
      </trkpt>
      <trkpt lat="43.45034" lon="-0.56921">
        <ele>189.52</ele>
        <time>2019-10-13T08:18:29Z</time>
      </trkpt>
      <trkpt lat="43.45034" lon="-0.56918">
        <ele>189.52</ele>
        <time>2019-10-13T08:18:30Z</time>
      </trkpt>
      <trkpt lat="43.45036" lon="-0.56916">
        <ele>189.04</ele>
        <time>2019-10-13T08:18:31Z</time>
      </trkpt>
      <trkpt lat="43.45038" lon="-0.56915">
        <ele>189.52</ele>
        <time>2019-10-13T08:18:32Z</time>
      </trkpt>
      <trkpt lat="43.4504" lon="-0.56915">
        <ele>190</ele>
        <time>2019-10-13T08:18:33Z</time>
      </trkpt>
      <trkpt lat="43.45041" lon="-0.56916">
        <ele>190</ele>
        <time>2019-10-13T08:18:34Z</time>
      </trkpt>
      <trkpt lat="43.45043" lon="-0.56915">
        <ele>190</ele>
        <time>2019-10-13T08:18:35Z</time>
      </trkpt>
      <trkpt lat="43.45045" lon="-0.56914">
        <ele>190.48</ele>
        <time>2019-10-13T08:18:36Z</time>
      </trkpt>
      <trkpt lat="43.45048" lon="-0.56912">
        <ele>190.48</ele>
        <time>2019-10-13T08:18:37Z</time>
      </trkpt>
      <trkpt lat="43.45049" lon="-0.5691">
        <ele>190.48</ele>
        <time>2019-10-13T08:18:38Z</time>
      </trkpt>
      <trkpt lat="43.45051" lon="-0.56907">
        <ele>190</ele>
        <time>2019-10-13T08:18:39Z</time>
      </trkpt>
      <trkpt lat="43.45057" lon="-0.56904">
        <ele>191.92</ele>
        <time>2019-10-13T08:18:51Z</time>
      </trkpt>
      <trkpt lat="43.45059" lon="-0.56901">
        <ele>190.96</ele>
        <time>2019-10-13T08:18:58Z</time>
      </trkpt>
      <trkpt lat="43.45061" lon="-0.56899">
        <ele>190.96</ele>
        <time>2019-10-13T08:18:59Z</time>
      </trkpt>
      <trkpt lat="43.45077" lon="-0.56876">
        <ele>188.08</ele>
        <time>2019-10-13T08:19:05Z</time>
      </trkpt>
      <trkpt lat="43.45088" lon="-0.56863">
        <ele>186.15</ele>
        <time>2019-10-13T08:19:08Z</time>
      </trkpt>
      <trkpt lat="43.45111" lon="-0.56843">
        <ele>182.79</ele>
        <time>2019-10-13T08:19:13Z</time>
      </trkpt>
      <trkpt lat="43.45115" lon="-0.56843">
        <ele>181.83</ele>
        <time>2019-10-13T08:19:14Z</time>
      </trkpt>
      <trkpt lat="43.45119" lon="-0.56844">
        <ele>180.87</ele>
        <time>2019-10-13T08:19:15Z</time>
      </trkpt>
      <trkpt lat="43.45123" lon="-0.56847">
        <ele>180.38</ele>
        <time>2019-10-13T08:19:16Z</time>
      </trkpt>
      <trkpt lat="43.45127" lon="-0.56851">
        <ele>179.42</ele>
        <time>2019-10-13T08:19:17Z</time>
      </trkpt>
      <trkpt lat="43.4513" lon="-0.56855">
        <ele>178.94</ele>
        <time>2019-10-13T08:19:18Z</time>
      </trkpt>
      <trkpt lat="43.45134" lon="-0.56859">
        <ele>178.46</ele>
        <time>2019-10-13T08:19:19Z</time>
      </trkpt>
      <trkpt lat="43.45137" lon="-0.56863">
        <ele>178.46</ele>
        <time>2019-10-13T08:19:20Z</time>
      </trkpt>
      <trkpt lat="43.45166" lon="-0.56905">
        <ele>174.62</ele>
        <time>2019-10-13T08:19:31Z</time>
      </trkpt>
      <trkpt lat="43.45184" lon="-0.56898">
        <ele>173.66</ele>
        <time>2019-10-13T08:19:38Z</time>
      </trkpt>
      <trkpt lat="43.45206" lon="-0.56882">
        <ele>172.21</ele>
        <time>2019-10-13T08:19:45Z</time>
      </trkpt>
      <trkpt lat="43.45211" lon="-0.5688">
        <ele>172.21</ele>
        <time>2019-10-13T08:19:46Z</time>
      </trkpt>
      <trkpt lat="43.45216" lon="-0.5688">
        <ele>171.73</ele>
        <time>2019-10-13T08:19:47Z</time>
      </trkpt>
      <trkpt lat="43.4522" lon="-0.56882">
        <ele>171.73</ele>
        <time>2019-10-13T08:19:48Z</time>
      </trkpt>
      <trkpt lat="43.45233" lon="-0.5689">
        <ele>171.73</ele>
        <time>2019-10-13T08:19:51Z</time>
      </trkpt>
      <trkpt lat="43.45244" lon="-0.56895">
        <ele>171.25</ele>
        <time>2019-10-13T08:19:53Z</time>
      </trkpt>
      <trkpt lat="43.45249" lon="-0.569">
        <ele>171.25</ele>
        <time>2019-10-13T08:19:54Z</time>
      </trkpt>
      <trkpt lat="43.45253" lon="-0.56907">
        <ele>170.77</ele>
        <time>2019-10-13T08:19:55Z</time>
      </trkpt>
      <trkpt lat="43.45258" lon="-0.56914">
        <ele>170.77</ele>
        <time>2019-10-13T08:19:56Z</time>
      </trkpt>
      <trkpt lat="43.45262" lon="-0.56921">
        <ele>170.29</ele>
        <time>2019-10-13T08:19:57Z</time>
      </trkpt>
      <trkpt lat="43.45283" lon="-0.56962">
        <ele>168.37</ele>
        <time>2019-10-13T08:20:03Z</time>
      </trkpt>
      <trkpt lat="43.45326" lon="-0.57048">
        <ele>168.85</ele>
        <time>2019-10-13T08:20:17Z</time>
      </trkpt>
      <trkpt lat="43.45343" lon="-0.57105">
        <ele>167.89</ele>
        <time>2019-10-13T08:20:26Z</time>
      </trkpt>
      <trkpt lat="43.45343" lon="-0.5711">
        <ele>167.41</ele>
        <time>2019-10-13T08:20:27Z</time>
      </trkpt>
      <trkpt lat="43.45344" lon="-0.57114">
        <ele>167.41</ele>
        <time>2019-10-13T08:20:28Z</time>
      </trkpt>
      <trkpt lat="43.45344" lon="-0.57117">
        <ele>166.93</ele>
        <time>2019-10-13T08:20:29Z</time>
      </trkpt>
      <trkpt lat="43.45345" lon="-0.5712">
        <ele>166.93</ele>
        <time>2019-10-13T08:20:30Z</time>
      </trkpt>
      <trkpt lat="43.45346" lon="-0.57123">
        <ele>166.93</ele>
        <time>2019-10-13T08:20:31Z</time>
      </trkpt>
      <trkpt lat="43.4535" lon="-0.57144">
        <ele>165.96</ele>
        <time>2019-10-13T08:20:37Z</time>
      </trkpt>
      <trkpt lat="43.45346" lon="-0.57241">
        <ele>164.04</ele>
        <time>2019-10-13T08:20:51Z</time>
      </trkpt>
      <trkpt lat="43.45346" lon="-0.57247">
        <ele>164.04</ele>
        <time>2019-10-13T08:20:52Z</time>
      </trkpt>
      <trkpt lat="43.45337" lon="-0.57297">
        <ele>164.52</ele>
        <time>2019-10-13T08:21:00Z</time>
      </trkpt>
      <trkpt lat="43.45338" lon="-0.57333">
        <ele>164.52</ele>
        <time>2019-10-13T08:21:06Z</time>
      </trkpt>
      <trkpt lat="43.45339" lon="-0.57339">
        <ele>164.52</ele>
        <time>2019-10-13T08:21:07Z</time>
      </trkpt>
      <trkpt lat="43.45348" lon="-0.57385">
        <ele>165</ele>
        <time>2019-10-13T08:21:15Z</time>
      </trkpt>
      <trkpt lat="43.45348" lon="-0.57391">
        <ele>165.48</ele>
        <time>2019-10-13T08:21:16Z</time>
      </trkpt>
      <trkpt lat="43.45346" lon="-0.57461">
        <ele>168.85</ele>
        <time>2019-10-13T08:21:30Z</time>
      </trkpt>
      <trkpt lat="43.45325" lon="-0.57489">
        <ele>170.29</ele>
        <time>2019-10-13T08:21:40Z</time>
      </trkpt>
      <trkpt lat="43.45322" lon="-0.57497">
        <ele>171.25</ele>
        <time>2019-10-13T08:21:42Z</time>
      </trkpt>
      <trkpt lat="43.45322" lon="-0.57501">
        <ele>171.73</ele>
        <time>2019-10-13T08:21:43Z</time>
      </trkpt>
      <trkpt lat="43.45322" lon="-0.57505">
        <ele>171.73</ele>
        <time>2019-10-13T08:21:44Z</time>
      </trkpt>
      <trkpt lat="43.45323" lon="-0.57509">
        <ele>171.73</ele>
        <time>2019-10-13T08:21:45Z</time>
      </trkpt>
      <trkpt lat="43.45324" lon="-0.57513">
        <ele>171.73</ele>
        <time>2019-10-13T08:21:46Z</time>
      </trkpt>
      <trkpt lat="43.45326" lon="-0.57517">
        <ele>171.25</ele>
        <time>2019-10-13T08:21:47Z</time>
      </trkpt>
      <trkpt lat="43.45328" lon="-0.57521">
        <ele>171.25</ele>
        <time>2019-10-13T08:21:48Z</time>
      </trkpt>
      <trkpt lat="43.45372" lon="-0.57586">
        <ele>165.96</ele>
        <time>2019-10-13T08:21:58Z</time>
      </trkpt>
      <trkpt lat="43.45389" lon="-0.57608">
        <ele>165</ele>
        <time>2019-10-13T08:22:01Z</time>
      </trkpt>
      <trkpt lat="43.45393" lon="-0.57617">
        <ele>164.52</ele>
        <time>2019-10-13T08:22:02Z</time>
      </trkpt>
      <trkpt lat="43.45408" lon="-0.57674">
        <ele>164.04</ele>
        <time>2019-10-13T08:22:08Z</time>
      </trkpt>
      <trkpt lat="43.45408" lon="-0.57684">
        <ele>164.04</ele>
        <time>2019-10-13T08:22:09Z</time>
      </trkpt>
      <trkpt lat="43.45409" lon="-0.57703">
        <ele>164.04</ele>
        <time>2019-10-13T08:22:11Z</time>
      </trkpt>
      <trkpt lat="43.4541" lon="-0.57713">
        <ele>164.52</ele>
        <time>2019-10-13T08:22:12Z</time>
      </trkpt>
      <trkpt lat="43.4542" lon="-0.57773">
        <ele>166.93</ele>
        <time>2019-10-13T08:22:22Z</time>
      </trkpt>
      <trkpt lat="43.45421" lon="-0.57807">
        <ele>170.77</ele>
        <time>2019-10-13T08:22:34Z</time>
      </trkpt>
      <trkpt lat="43.45421" lon="-0.5781">
        <ele>170.77</ele>
        <time>2019-10-13T08:22:35Z</time>
      </trkpt>
      <trkpt lat="43.45426" lon="-0.57818">
        <ele>171.25</ele>
        <time>2019-10-13T08:22:39Z</time>
      </trkpt>
      <trkpt lat="43.45428" lon="-0.57818">
        <ele>171.25</ele>
        <time>2019-10-13T08:22:40Z</time>
      </trkpt>
      <trkpt lat="43.45431" lon="-0.57818">
        <ele>171.25</ele>
        <time>2019-10-13T08:22:41Z</time>
      </trkpt>
      <trkpt lat="43.45434" lon="-0.57819">
        <ele>171.25</ele>
        <time>2019-10-13T08:22:42Z</time>
      </trkpt>
      <trkpt lat="43.45437" lon="-0.57819">
        <ele>170.77</ele>
        <time>2019-10-13T08:22:43Z</time>
      </trkpt>
      <trkpt lat="43.45454" lon="-0.57824">
        <ele>169.81</ele>
        <time>2019-10-13T08:22:48Z</time>
      </trkpt>
      <trkpt lat="43.45457" lon="-0.57827">
        <ele>169.33</ele>
        <time>2019-10-13T08:22:49Z</time>
      </trkpt>
      <trkpt lat="43.45458" lon="-0.57831">
        <ele>168.85</ele>
        <time>2019-10-13T08:22:50Z</time>
      </trkpt>
      <trkpt lat="43.45459" lon="-0.57835">
        <ele>168.85</ele>
        <time>2019-10-13T08:22:51Z</time>
      </trkpt>
      <trkpt lat="43.4546" lon="-0.57839">
        <ele>169.33</ele>
        <time>2019-10-13T08:22:52Z</time>
      </trkpt>
      <trkpt lat="43.4546" lon="-0.57843">
        <ele>168.85</ele>
        <time>2019-10-13T08:22:53Z</time>
      </trkpt>
      <trkpt lat="43.45456" lon="-0.57906">
        <ele>165.96</ele>
        <time>2019-10-13T08:23:07Z</time>
      </trkpt>
      <trkpt lat="43.45454" lon="-0.57932">
        <ele>164.04</ele>
        <time>2019-10-13T08:23:11Z</time>
      </trkpt>
      <trkpt lat="43.45451" lon="-0.57974">
        <ele>160.68</ele>
        <time>2019-10-13T08:23:19Z</time>
      </trkpt>
      <trkpt lat="43.45479" lon="-0.58032">
        <ele>153.95</ele>
        <time>2019-10-13T08:23:29Z</time>
      </trkpt>
      <trkpt lat="43.45511" lon="-0.58112">
        <ele>150.1</ele>
        <time>2019-10-13T08:23:44Z</time>
      </trkpt>
      <trkpt lat="43.45516" lon="-0.58169">
        <ele>150.1</ele>
        <time>2019-10-13T08:23:59Z</time>
      </trkpt>
      <trkpt lat="43.45522" lon="-0.58202">
        <ele>150.58</ele>
        <time>2019-10-13T08:24:11Z</time>
      </trkpt>
      <trkpt lat="43.45526" lon="-0.58242">
        <ele>154.91</ele>
        <time>2019-10-13T08:24:26Z</time>
      </trkpt>
      <trkpt lat="43.45523" lon="-0.58268">
        <ele>159.72</ele>
        <time>2019-10-13T08:24:39Z</time>
      </trkpt>
      <trkpt lat="43.45516" lon="-0.58303">
        <ele>164.04</ele>
        <time>2019-10-13T08:24:57Z</time>
      </trkpt>
      <trkpt lat="43.45513" lon="-0.58323">
        <ele>165.96</ele>
        <time>2019-10-13T08:25:07Z</time>
      </trkpt>
      <trkpt lat="43.45506" lon="-0.5836">
        <ele>167.89</ele>
        <time>2019-10-13T08:25:25Z</time>
      </trkpt>
      <trkpt lat="43.45502" lon="-0.58391">
        <ele>168.85</ele>
        <time>2019-10-13T08:25:39Z</time>
      </trkpt>
      <trkpt lat="43.45504" lon="-0.58413">
        <ele>170.29</ele>
        <time>2019-10-13T08:25:50Z</time>
      </trkpt>
      <trkpt lat="43.45523" lon="-0.58417">
        <ele>171.25</ele>
        <time>2019-10-13T08:26:00Z</time>
      </trkpt>
      <trkpt lat="43.45525" lon="-0.58417">
        <ele>171.25</ele>
        <time>2019-10-13T08:26:01Z</time>
      </trkpt>
      <trkpt lat="43.45528" lon="-0.58418">
        <ele>171.25</ele>
        <time>2019-10-13T08:26:02Z</time>
      </trkpt>
      <trkpt lat="43.45545" lon="-0.58421">
        <ele>169.33</ele>
        <time>2019-10-13T08:26:11Z</time>
      </trkpt>
      <trkpt lat="43.45564" lon="-0.58427">
        <ele>168.85</ele>
        <time>2019-10-13T08:26:27Z</time>
      </trkpt>
      <trkpt lat="43.45593" lon="-0.58424">
        <ele>167.41</ele>
        <time>2019-10-13T08:26:36Z</time>
      </trkpt>
      <trkpt lat="43.45603" lon="-0.58422">
        <ele>166.93</ele>
        <time>2019-10-13T08:26:40Z</time>
      </trkpt>
      <trkpt lat="43.45605" lon="-0.58421">
        <ele>166.93</ele>
        <time>2019-10-13T08:26:41Z</time>
      </trkpt>
      <trkpt lat="43.45607" lon="-0.58421">
        <ele>166.93</ele>
        <time>2019-10-13T08:26:42Z</time>
      </trkpt>
      <trkpt lat="43.45609" lon="-0.5842">
        <ele>166.93</ele>
        <time>2019-10-13T08:26:43Z</time>
      </trkpt>
      <trkpt lat="43.45612" lon="-0.58419">
        <ele>166.93</ele>
        <time>2019-10-13T08:26:44Z</time>
      </trkpt>
      <trkpt lat="43.45615" lon="-0.58418">
        <ele>166.93</ele>
        <time>2019-10-13T08:26:45Z</time>
      </trkpt>
      <trkpt lat="43.45645" lon="-0.58405">
        <ele>165.48</ele>
        <time>2019-10-13T08:26:55Z</time>
      </trkpt>
      <trkpt lat="43.45666" lon="-0.58401">
        <ele>162.6</ele>
        <time>2019-10-13T08:27:05Z</time>
      </trkpt>
      <trkpt lat="43.45694" lon="-0.58402">
        <ele>162.12</ele>
        <time>2019-10-13T08:27:16Z</time>
      </trkpt>
      <trkpt lat="43.45729" lon="-0.58404">
        <ele>161.64</ele>
        <time>2019-10-13T08:27:28Z</time>
      </trkpt>
      <trkpt lat="43.45748" lon="-0.58375">
        <ele>158.75</ele>
        <time>2019-10-13T08:27:39Z</time>
      </trkpt>
      <trkpt lat="43.45761" lon="-0.58367">
        <ele>159.72</ele>
        <time>2019-10-13T08:27:45Z</time>
      </trkpt>
      <trkpt lat="43.45786" lon="-0.58382">
        <ele>161.64</ele>
        <time>2019-10-13T08:27:58Z</time>
      </trkpt>
      <trkpt lat="43.45783" lon="-0.58407">
        <ele>161.64</ele>
        <time>2019-10-13T08:28:08Z</time>
      </trkpt>
      <trkpt lat="43.45781" lon="-0.58408">
        <ele>161.64</ele>
        <time>2019-10-13T08:28:09Z</time>
      </trkpt>
      <trkpt lat="43.45779" lon="-0.58409">
        <ele>161.64</ele>
        <time>2019-10-13T08:28:10Z</time>
      </trkpt>
      <trkpt lat="43.45777" lon="-0.58409">
        <ele>161.64</ele>
        <time>2019-10-13T08:28:11Z</time>
      </trkpt>
      <trkpt lat="43.45774" lon="-0.58409">
        <ele>161.64</ele>
        <time>2019-10-13T08:28:12Z</time>
      </trkpt>
      <trkpt lat="43.45772" lon="-0.58408">
        <ele>161.64</ele>
        <time>2019-10-13T08:28:13Z</time>
      </trkpt>
      <trkpt lat="43.4577" lon="-0.58408">
        <ele>161.64</ele>
        <time>2019-10-13T08:28:14Z</time>
      </trkpt>
      <trkpt lat="43.45767" lon="-0.58407">
        <ele>161.64</ele>
        <time>2019-10-13T08:28:15Z</time>
      </trkpt>
      <trkpt lat="43.45765" lon="-0.58407">
        <ele>161.64</ele>
        <time>2019-10-13T08:28:16Z</time>
      </trkpt>
      <trkpt lat="43.45762" lon="-0.58408">
        <ele>161.64</ele>
        <time>2019-10-13T08:28:17Z</time>
      </trkpt>
      <trkpt lat="43.45742" lon="-0.58421">
        <ele>165.48</ele>
        <time>2019-10-13T08:28:28Z</time>
      </trkpt>
      <trkpt lat="43.45738" lon="-0.58428">
        <ele>167.41</ele>
        <time>2019-10-13T08:28:31Z</time>
      </trkpt>
      <trkpt lat="43.45714" lon="-0.58428">
        <ele>170.77</ele>
        <time>2019-10-13T08:28:42Z</time>
      </trkpt>
      <trkpt lat="43.45713" lon="-0.58427">
        <ele>171.25</ele>
        <time>2019-10-13T08:28:43Z</time>
      </trkpt>
      <trkpt lat="43.45711" lon="-0.58426">
        <ele>171.25</ele>
        <time>2019-10-13T08:28:44Z</time>
      </trkpt>
      <trkpt lat="43.4571" lon="-0.58426">
        <ele>171.73</ele>
        <time>2019-10-13T08:28:45Z</time>
      </trkpt>
      <trkpt lat="43.45708" lon="-0.58425">
        <ele>171.73</ele>
        <time>2019-10-13T08:28:46Z</time>
      </trkpt>
      <trkpt lat="43.45695" lon="-0.58418">
        <ele>173.17</ele>
        <time>2019-10-13T08:28:52Z</time>
      </trkpt>
      <trkpt lat="43.45688" lon="-0.58409">
        <ele>173.66</ele>
        <time>2019-10-13T08:28:57Z</time>
      </trkpt>
      <trkpt lat="43.45686" lon="-0.58407">
        <ele>173.66</ele>
        <time>2019-10-13T08:28:58Z</time>
      </trkpt>
      <trkpt lat="43.45682" lon="-0.58406">
        <ele>173.66</ele>
        <time>2019-10-13T08:28:59Z</time>
      </trkpt>
      <trkpt lat="43.45668" lon="-0.58404">
        <ele>174.62</ele>
        <time>2019-10-13T08:29:04Z</time>
      </trkpt>
      <trkpt lat="43.45648" lon="-0.58409">
        <ele>174.14</ele>
        <time>2019-10-13T08:29:14Z</time>
      </trkpt>
      <trkpt lat="43.45617" lon="-0.58421">
        <ele>171.25</ele>
        <time>2019-10-13T08:29:27Z</time>
      </trkpt>
      <trkpt lat="43.45595" lon="-0.58427">
        <ele>169.81</ele>
        <time>2019-10-13T08:29:36Z</time>
      </trkpt>
      <trkpt lat="43.45583" lon="-0.58428">
        <ele>170.29</ele>
        <time>2019-10-13T08:29:42Z</time>
      </trkpt>
      <trkpt lat="43.45582" lon="-0.58429">
        <ele>170.29</ele>
        <time>2019-10-13T08:29:43Z</time>
      </trkpt>
      <trkpt lat="43.4558" lon="-0.5843">
        <ele>170.77</ele>
        <time>2019-10-13T08:29:44Z</time>
      </trkpt>
      <trkpt lat="43.45579" lon="-0.58431">
        <ele>170.77</ele>
        <time>2019-10-13T08:29:45Z</time>
      </trkpt>
      <trkpt lat="43.45577" lon="-0.58445">
        <ele>170.77</ele>
        <time>2019-10-13T08:29:51Z</time>
      </trkpt>
      <trkpt lat="43.45576" lon="-0.58458">
        <ele>169.33</ele>
        <time>2019-10-13T08:29:56Z</time>
      </trkpt>
      <trkpt lat="43.45574" lon="-0.58465">
        <ele>169.33</ele>
        <time>2019-10-13T08:30:01Z</time>
      </trkpt>
      <trkpt lat="43.45572" lon="-0.58468">
        <ele>170.29</ele>
        <time>2019-10-13T08:30:03Z</time>
      </trkpt>
      <trkpt lat="43.4556" lon="-0.58485">
        <ele>173.17</ele>
        <time>2019-10-13T08:30:19Z</time>
      </trkpt>
      <trkpt lat="43.45557" lon="-0.58489">
        <ele>172.69</ele>
        <time>2019-10-13T08:30:33Z</time>
      </trkpt>
      <trkpt lat="43.45556" lon="-0.58492">
        <ele>172.21</ele>
        <time>2019-10-13T08:30:36Z</time>
      </trkpt>
      <trkpt lat="43.45553" lon="-0.58505">
        <ele>172.69</ele>
        <time>2019-10-13T08:30:45Z</time>
      </trkpt>
      <trkpt lat="43.45548" lon="-0.58531">
        <ele>174.14</ele>
        <time>2019-10-13T08:31:00Z</time>
      </trkpt>
      <trkpt lat="43.45547" lon="-0.58541">
        <ele>176.54</ele>
        <time>2019-10-13T08:31:06Z</time>
      </trkpt>
      <trkpt lat="43.45538" lon="-0.5856">
        <ele>181.83</ele>
        <time>2019-10-13T08:31:19Z</time>
      </trkpt>
      <trkpt lat="43.45533" lon="-0.5856">
        <ele>183.27</ele>
        <time>2019-10-13T08:31:23Z</time>
      </trkpt>
      <trkpt lat="43.45534" lon="-0.58524">
        <ele>183.27</ele>
        <time>2019-10-13T08:31:39Z</time>
      </trkpt>
      <trkpt lat="43.45551" lon="-0.5848">
        <ele>174.62</ele>
        <time>2019-10-13T08:31:51Z</time>
      </trkpt>
      <trkpt lat="43.45555" lon="-0.58445">
        <ele>172.69</ele>
        <time>2019-10-13T08:32:01Z</time>
      </trkpt>
      <trkpt lat="43.45555" lon="-0.58433">
        <ele>171.25</ele>
        <time>2019-10-13T08:32:14Z</time>
      </trkpt>
      <trkpt lat="43.45556" lon="-0.58426">
        <ele>169.81</ele>
        <time>2019-10-13T08:32:35Z</time>
      </trkpt>
      <trkpt lat="43.45554" lon="-0.58422">
        <ele>168.85</ele>
        <time>2019-10-13T08:32:38Z</time>
      </trkpt>
      <trkpt lat="43.45539" lon="-0.58416">
        <ele>175.58</ele>
        <time>2019-10-13T08:32:51Z</time>
      </trkpt>
      <trkpt lat="43.45529" lon="-0.5841">
        <ele>177.5</ele>
        <time>2019-10-13T08:32:59Z</time>
      </trkpt>
      <trkpt lat="43.4552" lon="-0.58413">
        <ele>177.5</ele>
        <time>2019-10-13T08:33:05Z</time>
      </trkpt>
      <trkpt lat="43.45512" lon="-0.58416">
        <ele>177.98</ele>
        <time>2019-10-13T08:33:10Z</time>
      </trkpt>
      <trkpt lat="43.45496" lon="-0.58439">
        <ele>181.35</ele>
        <time>2019-10-13T08:33:25Z</time>
      </trkpt>
      <trkpt lat="43.45487" lon="-0.58459">
        <ele>184.23</ele>
        <time>2019-10-13T08:33:36Z</time>
      </trkpt>
      <trkpt lat="43.45478" lon="-0.58482">
        <ele>184.71</ele>
        <time>2019-10-13T08:33:48Z</time>
      </trkpt>
      <trkpt lat="43.45474" lon="-0.58494">
        <ele>183.27</ele>
        <time>2019-10-13T08:34:01Z</time>
      </trkpt>
      <trkpt lat="43.45473" lon="-0.58499">
        <ele>183.27</ele>
        <time>2019-10-13T08:34:04Z</time>
      </trkpt>
      <trkpt lat="43.45473" lon="-0.58507">
        <ele>183.27</ele>
        <time>2019-10-13T08:34:09Z</time>
      </trkpt>
      <trkpt lat="43.45472" lon="-0.58539">
        <ele>186.63</ele>
        <time>2019-10-13T08:34:26Z</time>
      </trkpt>
      <trkpt lat="43.4547" lon="-0.58563">
        <ele>189.52</ele>
        <time>2019-10-13T08:34:40Z</time>
      </trkpt>
      <trkpt lat="43.45467" lon="-0.58591">
        <ele>191.92</ele>
        <time>2019-10-13T08:34:55Z</time>
      </trkpt>
      <trkpt lat="43.45464" lon="-0.58612">
        <ele>194.8</ele>
        <time>2019-10-13T08:35:07Z</time>
      </trkpt>
      <trkpt lat="43.4546" lon="-0.58623">
        <ele>194.8</ele>
        <time>2019-10-13T08:35:13Z</time>
      </trkpt>
      <trkpt lat="43.4545" lon="-0.58633">
        <ele>193.36</ele>
        <time>2019-10-13T08:35:20Z</time>
      </trkpt>
      <trkpt lat="43.45431" lon="-0.5865">
        <ele>191.44</ele>
        <time>2019-10-13T08:35:38Z</time>
      </trkpt>
      <trkpt lat="43.45428" lon="-0.58653">
        <ele>191.44</ele>
        <time>2019-10-13T08:36:04Z</time>
      </trkpt>
      <trkpt lat="43.45431" lon="-0.5865">
        <ele>191.44</ele>
        <time>2019-10-13T08:36:28Z</time>
      </trkpt>
      <trkpt lat="43.4543" lon="-0.58649">
        <ele>195.28</ele>
        <time>2019-10-13T08:37:12Z</time>
      </trkpt>
      <trkpt lat="43.45432" lon="-0.58649">
        <ele>191.92</ele>
        <time>2019-10-13T08:37:49Z</time>
      </trkpt>
      <trkpt lat="43.45432" lon="-0.5865">
        <ele>191.44</ele>
        <time>2019-10-13T08:37:52Z</time>
      </trkpt>
      <trkpt lat="43.45426" lon="-0.58651">
        <ele>190.96</ele>
        <time>2019-10-13T08:37:56Z</time>
      </trkpt>
      <trkpt lat="43.45396" lon="-0.58653">
        <ele>192.88</ele>
        <time>2019-10-13T08:38:09Z</time>
      </trkpt>
      <trkpt lat="43.45369" lon="-0.58644">
        <ele>194.8</ele>
        <time>2019-10-13T08:38:20Z</time>
      </trkpt>
      <trkpt lat="43.45336" lon="-0.5862">
        <ele>198.65</ele>
        <time>2019-10-13T08:38:34Z</time>
      </trkpt>
      <trkpt lat="43.45298" lon="-0.58608">
        <ele>199.61</ele>
        <time>2019-10-13T08:38:47Z</time>
      </trkpt>
      <trkpt lat="43.45249" lon="-0.58597">
        <ele>200.09</ele>
        <time>2019-10-13T08:39:02Z</time>
      </trkpt>
      <trkpt lat="43.45205" lon="-0.58586">
        <ele>200.57</ele>
        <time>2019-10-13T08:39:16Z</time>
      </trkpt>
      <trkpt lat="43.45161" lon="-0.58575">
        <ele>205.38</ele>
        <time>2019-10-13T08:39:32Z</time>
      </trkpt>
      <trkpt lat="43.4512" lon="-0.58573">
        <ele>209.7</ele>
        <time>2019-10-13T08:39:48Z</time>
      </trkpt>
      <trkpt lat="43.45092" lon="-0.58574">
        <ele>213.55</ele>
        <time>2019-10-13T08:40:00Z</time>
      </trkpt>
      <trkpt lat="43.45054" lon="-0.58576">
        <ele>216.91</ele>
        <time>2019-10-13T08:40:13Z</time>
      </trkpt>
      <trkpt lat="43.45014" lon="-0.58577">
        <ele>219.32</ele>
        <time>2019-10-13T08:40:28Z</time>
      </trkpt>
      <trkpt lat="43.44969" lon="-0.58576">
        <ele>223.16</ele>
        <time>2019-10-13T08:40:42Z</time>
      </trkpt>
      <trkpt lat="43.44917" lon="-0.58574">
        <ele>222.68</ele>
        <time>2019-10-13T08:40:54Z</time>
      </trkpt>
      <trkpt lat="43.44883" lon="-0.58576">
        <ele>221.72</ele>
        <time>2019-10-13T08:41:02Z</time>
      </trkpt>
      <trkpt lat="43.44879" lon="-0.58581">
        <ele>221.24</ele>
        <time>2019-10-13T08:41:03Z</time>
      </trkpt>
      <trkpt lat="43.44877" lon="-0.58585">
        <ele>220.76</ele>
        <time>2019-10-13T08:41:04Z</time>
      </trkpt>
      <trkpt lat="43.44877" lon="-0.58589">
        <ele>220.28</ele>
        <time>2019-10-13T08:41:05Z</time>
      </trkpt>
      <trkpt lat="43.44877" lon="-0.58593">
        <ele>220.28</ele>
        <time>2019-10-13T08:41:06Z</time>
      </trkpt>
      <trkpt lat="43.44876" lon="-0.58595">
        <ele>219.8</ele>
        <time>2019-10-13T08:41:07Z</time>
      </trkpt>
      <trkpt lat="43.44876" lon="-0.58605">
        <ele>218.36</ele>
        <time>2019-10-13T08:41:10Z</time>
      </trkpt>
      <trkpt lat="43.44875" lon="-0.58607">
        <ele>217.88</ele>
        <time>2019-10-13T08:41:11Z</time>
      </trkpt>
      <trkpt lat="43.44871" lon="-0.58672">
        <ele>210.67</ele>
        <time>2019-10-13T08:41:21Z</time>
      </trkpt>
      <trkpt lat="43.44872" lon="-0.58751">
        <ele>204.9</ele>
        <time>2019-10-13T08:41:27Z</time>
      </trkpt>
      <trkpt lat="43.44875" lon="-0.58767">
        <ele>203.46</ele>
        <time>2019-10-13T08:41:28Z</time>
      </trkpt>
      <trkpt lat="43.4488" lon="-0.58779">
        <ele>202.98</ele>
        <time>2019-10-13T08:41:29Z</time>
      </trkpt>
      <trkpt lat="43.44887" lon="-0.58793">
        <ele>202.01</ele>
        <time>2019-10-13T08:41:30Z</time>
      </trkpt>
      <trkpt lat="43.44894" lon="-0.58805">
        <ele>201.05</ele>
        <time>2019-10-13T08:41:31Z</time>
      </trkpt>
      <trkpt lat="43.44903" lon="-0.58817">
        <ele>200.09</ele>
        <time>2019-10-13T08:41:32Z</time>
      </trkpt>
      <trkpt lat="43.44995" lon="-0.58932">
        <ele>193.36</ele>
        <time>2019-10-13T08:41:43Z</time>
      </trkpt>
      <trkpt lat="43.45036" lon="-0.58979">
        <ele>198.17</ele>
        <time>2019-10-13T08:41:52Z</time>
      </trkpt>
      <trkpt lat="43.45084" lon="-0.59043">
        <ele>203.46</ele>
        <time>2019-10-13T08:42:07Z</time>
      </trkpt>
      <trkpt lat="43.45127" lon="-0.59125">
        <ele>204.9</ele>
        <time>2019-10-13T08:42:23Z</time>
      </trkpt>
      <trkpt lat="43.45153" lon="-0.5923">
        <ele>196.73</ele>
        <time>2019-10-13T08:42:32Z</time>
      </trkpt>
      <trkpt lat="43.45202" lon="-0.59336">
        <ele>191.44</ele>
        <time>2019-10-13T08:42:42Z</time>
      </trkpt>
      <trkpt lat="43.45291" lon="-0.59462">
        <ele>184.23</ele>
        <time>2019-10-13T08:42:55Z</time>
      </trkpt>
      <trkpt lat="43.45306" lon="-0.59485">
        <ele>183.27</ele>
        <time>2019-10-13T08:42:57Z</time>
      </trkpt>
      <trkpt lat="43.45312" lon="-0.59498">
        <ele>182.79</ele>
        <time>2019-10-13T08:42:58Z</time>
      </trkpt>
      <trkpt lat="43.45316" lon="-0.59513">
        <ele>182.31</ele>
        <time>2019-10-13T08:42:59Z</time>
      </trkpt>
      <trkpt lat="43.45325" lon="-0.59543">
        <ele>181.35</ele>
        <time>2019-10-13T08:43:01Z</time>
      </trkpt>
      <trkpt lat="43.45331" lon="-0.59558">
        <ele>180.87</ele>
        <time>2019-10-13T08:43:02Z</time>
      </trkpt>
      <trkpt lat="43.45338" lon="-0.59572">
        <ele>180.38</ele>
        <time>2019-10-13T08:43:03Z</time>
      </trkpt>
      <trkpt lat="43.45408" lon="-0.59677">
        <ele>175.1</ele>
        <time>2019-10-13T08:43:12Z</time>
      </trkpt>
      <trkpt lat="43.45416" lon="-0.59689">
        <ele>174.62</ele>
        <time>2019-10-13T08:43:14Z</time>
      </trkpt>
      <trkpt lat="43.45418" lon="-0.59693">
        <ele>174.14</ele>
        <time>2019-10-13T08:43:15Z</time>
      </trkpt>
      <trkpt lat="43.45418" lon="-0.59695">
        <ele>174.14</ele>
        <time>2019-10-13T08:43:16Z</time>
      </trkpt>
      <trkpt lat="43.45422" lon="-0.59701">
        <ele>174.62</ele>
        <time>2019-10-13T08:43:21Z</time>
      </trkpt>
      <trkpt lat="43.45422" lon="-0.59703">
        <ele>174.62</ele>
        <time>2019-10-13T08:43:22Z</time>
      </trkpt>
      <trkpt lat="43.4542" lon="-0.59705">
        <ele>174.62</ele>
        <time>2019-10-13T08:43:23Z</time>
      </trkpt>
      <trkpt lat="43.45418" lon="-0.59706">
        <ele>174.62</ele>
        <time>2019-10-13T08:43:24Z</time>
      </trkpt>
      <trkpt lat="43.45416" lon="-0.59705">
        <ele>174.62</ele>
        <time>2019-10-13T08:43:25Z</time>
      </trkpt>
      <trkpt lat="43.45412" lon="-0.59704">
        <ele>174.62</ele>
        <time>2019-10-13T08:43:26Z</time>
      </trkpt>
      <trkpt lat="43.45392" lon="-0.59697">
        <ele>175.58</ele>
        <time>2019-10-13T08:43:31Z</time>
      </trkpt>
      <trkpt lat="43.45388" lon="-0.59697">
        <ele>175.58</ele>
        <time>2019-10-13T08:43:32Z</time>
      </trkpt>
      <trkpt lat="43.45383" lon="-0.59701">
        <ele>175.58</ele>
        <time>2019-10-13T08:43:33Z</time>
      </trkpt>
      <trkpt lat="43.4538" lon="-0.59706">
        <ele>175.58</ele>
        <time>2019-10-13T08:43:34Z</time>
      </trkpt>
      <trkpt lat="43.45376" lon="-0.59713">
        <ele>175.1</ele>
        <time>2019-10-13T08:43:35Z</time>
      </trkpt>
      <trkpt lat="43.45321" lon="-0.59785">
        <ele>168.85</ele>
        <time>2019-10-13T08:43:45Z</time>
      </trkpt>
      <trkpt lat="43.4525" lon="-0.59865">
        <ele>162.6</ele>
        <time>2019-10-13T08:43:59Z</time>
      </trkpt>
      <trkpt lat="43.45218" lon="-0.59906">
        <ele>158.75</ele>
        <time>2019-10-13T08:44:10Z</time>
      </trkpt>
      <trkpt lat="43.45201" lon="-0.5992">
        <ele>157.31</ele>
        <time>2019-10-13T08:44:16Z</time>
      </trkpt>
      <trkpt lat="43.45199" lon="-0.59924">
        <ele>157.31</ele>
        <time>2019-10-13T08:44:17Z</time>
      </trkpt>
      <trkpt lat="43.45198" lon="-0.5993">
        <ele>156.83</ele>
        <time>2019-10-13T08:44:18Z</time>
      </trkpt>
      <trkpt lat="43.45197" lon="-0.59937">
        <ele>156.35</ele>
        <time>2019-10-13T08:44:19Z</time>
      </trkpt>
      <trkpt lat="43.45197" lon="-0.59943">
        <ele>155.87</ele>
        <time>2019-10-13T08:44:20Z</time>
      </trkpt>
      <trkpt lat="43.45197" lon="-0.59973">
        <ele>154.43</ele>
        <time>2019-10-13T08:44:24Z</time>
      </trkpt>
      <trkpt lat="43.45198" lon="-0.59981">
        <ele>153.95</ele>
        <time>2019-10-13T08:44:25Z</time>
      </trkpt>
      <trkpt lat="43.45213" lon="-0.60074">
        <ele>149.14</ele>
        <time>2019-10-13T08:44:35Z</time>
      </trkpt>
      <trkpt lat="43.45214" lon="-0.60081">
        <ele>149.14</ele>
        <time>2019-10-13T08:44:36Z</time>
      </trkpt>
      <trkpt lat="43.45215" lon="-0.60086">
        <ele>149.62</ele>
        <time>2019-10-13T08:44:37Z</time>
      </trkpt>
      <trkpt lat="43.45214" lon="-0.60099">
        <ele>150.1</ele>
        <time>2019-10-13T08:44:40Z</time>
      </trkpt>
      <trkpt lat="43.45212" lon="-0.60102">
        <ele>150.58</ele>
        <time>2019-10-13T08:44:41Z</time>
      </trkpt>
      <trkpt lat="43.45209" lon="-0.60104">
        <ele>150.58</ele>
        <time>2019-10-13T08:44:42Z</time>
      </trkpt>
      <trkpt lat="43.45162" lon="-0.6014">
        <ele>151.06</ele>
        <time>2019-10-13T08:44:54Z</time>
      </trkpt>
      <trkpt lat="43.45139" lon="-0.60157">
        <ele>151.06</ele>
        <time>2019-10-13T08:44:59Z</time>
      </trkpt>
      <trkpt lat="43.45135" lon="-0.60161">
        <ele>151.06</ele>
        <time>2019-10-13T08:45:00Z</time>
      </trkpt>
      <trkpt lat="43.45133" lon="-0.60167">
        <ele>150.58</ele>
        <time>2019-10-13T08:45:01Z</time>
      </trkpt>
      <trkpt lat="43.45132" lon="-0.60173">
        <ele>150.58</ele>
        <time>2019-10-13T08:45:02Z</time>
      </trkpt>
      <trkpt lat="43.45132" lon="-0.6018">
        <ele>150.1</ele>
        <time>2019-10-13T08:45:03Z</time>
      </trkpt>
      <trkpt lat="43.45132" lon="-0.60187">
        <ele>150.1</ele>
        <time>2019-10-13T08:45:04Z</time>
      </trkpt>
      <trkpt lat="43.45133" lon="-0.60193">
        <ele>149.62</ele>
        <time>2019-10-13T08:45:05Z</time>
      </trkpt>
      <trkpt lat="43.45135" lon="-0.60204">
        <ele>148.18</ele>
        <time>2019-10-13T08:45:09Z</time>
      </trkpt>
      <trkpt lat="43.45135" lon="-0.60207">
        <ele>148.18</ele>
        <time>2019-10-13T08:45:15Z</time>
      </trkpt>
      <trkpt lat="43.45136" lon="-0.60209">
        <ele>148.18</ele>
        <time>2019-10-13T08:45:16Z</time>
      </trkpt>
      <trkpt lat="43.45138" lon="-0.60229">
        <ele>146.26</ele>
        <time>2019-10-13T08:45:21Z</time>
      </trkpt>
      <trkpt lat="43.45138" lon="-0.60236">
        <ele>145.78</ele>
        <time>2019-10-13T08:45:22Z</time>
      </trkpt>
      <trkpt lat="43.45137" lon="-0.60243">
        <ele>145.3</ele>
        <time>2019-10-13T08:45:23Z</time>
      </trkpt>
      <trkpt lat="43.45137" lon="-0.6025">
        <ele>144.82</ele>
        <time>2019-10-13T08:45:24Z</time>
      </trkpt>
      <trkpt lat="43.45138" lon="-0.60257">
        <ele>144.82</ele>
        <time>2019-10-13T08:45:25Z</time>
      </trkpt>
      <trkpt lat="43.45139" lon="-0.60264">
        <ele>144.82</ele>
        <time>2019-10-13T08:45:26Z</time>
      </trkpt>
      <trkpt lat="43.45147" lon="-0.60311">
        <ele>145.3</ele>
        <time>2019-10-13T08:45:34Z</time>
      </trkpt>
      <trkpt lat="43.4515" lon="-0.60402">
        <ele>146.74</ele>
        <time>2019-10-13T08:45:49Z</time>
      </trkpt>
      <trkpt lat="43.45164" lon="-0.60513">
        <ele>143.37</ele>
        <time>2019-10-13T08:46:04Z</time>
      </trkpt>
      <trkpt lat="43.45165" lon="-0.60527">
        <ele>143.85</ele>
        <time>2019-10-13T08:46:06Z</time>
      </trkpt>
      <trkpt lat="43.45166" lon="-0.60559">
        <ele>144.82</ele>
        <time>2019-10-13T08:46:11Z</time>
      </trkpt>
      <trkpt lat="43.45169" lon="-0.60637">
        <ele>145.3</ele>
        <time>2019-10-13T08:46:26Z</time>
      </trkpt>
      <trkpt lat="43.45171" lon="-0.6066">
        <ele>146.26</ele>
        <time>2019-10-13T08:46:36Z</time>
      </trkpt>
      <trkpt lat="43.45172" lon="-0.60664">
        <ele>146.26</ele>
        <time>2019-10-13T08:46:39Z</time>
      </trkpt>
      <trkpt lat="43.45172" lon="-0.60666">
        <ele>146.74</ele>
        <time>2019-10-13T08:46:40Z</time>
      </trkpt>
      <trkpt lat="43.45171" lon="-0.60667">
        <ele>146.74</ele>
        <time>2019-10-13T08:46:41Z</time>
      </trkpt>
      <trkpt lat="43.45169" lon="-0.60671">
        <ele>144.34</ele>
        <time>2019-10-13T08:46:54Z</time>
      </trkpt>
      <trkpt lat="43.45169" lon="-0.60673">
        <ele>145.78</ele>
        <time>2019-10-13T08:47:18Z</time>
      </trkpt>
      <trkpt lat="43.45169" lon="-0.60674">
        <ele>145.78</ele>
        <time>2019-10-13T08:47:19Z</time>
      </trkpt>
      <trkpt lat="43.45168" lon="-0.60676">
        <ele>145.3</ele>
        <time>2019-10-13T08:47:20Z</time>
      </trkpt>
      <trkpt lat="43.45169" lon="-0.60736">
        <ele>147.22</ele>
        <time>2019-10-13T08:47:34Z</time>
      </trkpt>
      <trkpt lat="43.45177" lon="-0.60774">
        <ele>146.26</ele>
        <time>2019-10-13T08:47:41Z</time>
      </trkpt>
      <trkpt lat="43.45186" lon="-0.60811">
        <ele>145.3</ele>
        <time>2019-10-13T08:47:47Z</time>
      </trkpt>
      <trkpt lat="43.45187" lon="-0.60818">
        <ele>144.82</ele>
        <time>2019-10-13T08:47:48Z</time>
      </trkpt>
      <trkpt lat="43.45186" lon="-0.60825">
        <ele>144.82</ele>
        <time>2019-10-13T08:47:49Z</time>
      </trkpt>
      <trkpt lat="43.45185" lon="-0.60831">
        <ele>144.82</ele>
        <time>2019-10-13T08:47:50Z</time>
      </trkpt>
      <trkpt lat="43.45184" lon="-0.60838">
        <ele>144.34</ele>
        <time>2019-10-13T08:47:51Z</time>
      </trkpt>
      <trkpt lat="43.45182" lon="-0.60842">
        <ele>144.34</ele>
        <time>2019-10-13T08:47:52Z</time>
      </trkpt>
      <trkpt lat="43.45181" lon="-0.60846">
        <ele>144.34</ele>
        <time>2019-10-13T08:47:53Z</time>
      </trkpt>
      <trkpt lat="43.4518" lon="-0.6085">
        <ele>144.34</ele>
        <time>2019-10-13T08:47:54Z</time>
      </trkpt>
      <trkpt lat="43.45179" lon="-0.60851">
        <ele>144.34</ele>
        <time>2019-10-13T08:47:55Z</time>
      </trkpt>
      <trkpt lat="43.45178" lon="-0.60853">
        <ele>144.82</ele>
        <time>2019-10-13T08:48:09Z</time>
      </trkpt>
      <trkpt lat="43.45178" lon="-0.60853">
        <ele>145.3</ele>
        <time>2019-10-13T08:48:32Z</time>
      </trkpt>
      <trkpt lat="43.45177" lon="-0.60855">
        <ele>144.34</ele>
        <time>2019-10-13T08:49:03Z</time>
      </trkpt>
      <trkpt lat="43.45176" lon="-0.60858">
        <ele>144.34</ele>
        <time>2019-10-13T08:49:10Z</time>
      </trkpt>
      <trkpt lat="43.45176" lon="-0.6086">
        <ele>144.82</ele>
        <time>2019-10-13T08:49:11Z</time>
      </trkpt>
      <trkpt lat="43.45175" lon="-0.60862">
        <ele>144.82</ele>
        <time>2019-10-13T08:49:12Z</time>
      </trkpt>
      <trkpt lat="43.45174" lon="-0.60865">
        <ele>144.82</ele>
        <time>2019-10-13T08:49:13Z</time>
      </trkpt>
      <trkpt lat="43.45173" lon="-0.60869">
        <ele>144.82</ele>
        <time>2019-10-13T08:49:14Z</time>
      </trkpt>
      <trkpt lat="43.45172" lon="-0.60873">
        <ele>144.34</ele>
        <time>2019-10-13T08:49:15Z</time>
      </trkpt>
      <trkpt lat="43.45172" lon="-0.60878">
        <ele>144.34</ele>
        <time>2019-10-13T08:49:16Z</time>
      </trkpt>
      <trkpt lat="43.45172" lon="-0.60894">
        <ele>144.34</ele>
        <time>2019-10-13T08:49:19Z</time>
      </trkpt>
      <trkpt lat="43.45173" lon="-0.60906">
        <ele>144.34</ele>
        <time>2019-10-13T08:49:21Z</time>
      </trkpt>
      <trkpt lat="43.45177" lon="-0.61001">
        <ele>143.37</ele>
        <time>2019-10-13T08:49:36Z</time>
      </trkpt>
      <trkpt lat="43.45166" lon="-0.61118">
        <ele>141.45</ele>
        <time>2019-10-13T08:49:48Z</time>
      </trkpt>
      <trkpt lat="43.45149" lon="-0.61215">
        <ele>137.61</ele>
        <time>2019-10-13T08:49:59Z</time>
      </trkpt>
      <trkpt lat="43.45145" lon="-0.6122">
        <ele>137.13</ele>
        <time>2019-10-13T08:50:00Z</time>
      </trkpt>
      <trkpt lat="43.45141" lon="-0.61223">
        <ele>136.64</ele>
        <time>2019-10-13T08:50:01Z</time>
      </trkpt>
      <trkpt lat="43.45135" lon="-0.61225">
        <ele>136.64</ele>
        <time>2019-10-13T08:50:02Z</time>
      </trkpt>
      <trkpt lat="43.4513" lon="-0.61226">
        <ele>136.16</ele>
        <time>2019-10-13T08:50:03Z</time>
      </trkpt>
      <trkpt lat="43.45085" lon="-0.61233">
        <ele>133.76</ele>
        <time>2019-10-13T08:50:10Z</time>
      </trkpt>
      <trkpt lat="43.4508" lon="-0.61236">
        <ele>133.28</ele>
        <time>2019-10-13T08:50:11Z</time>
      </trkpt>
      <trkpt lat="43.44999" lon="-0.61304">
        <ele>129.43</ele>
        <time>2019-10-13T08:50:25Z</time>
      </trkpt>
      <trkpt lat="43.44918" lon="-0.61394">
        <ele>125.11</ele>
        <time>2019-10-13T08:50:39Z</time>
      </trkpt>
      <trkpt lat="43.44901" lon="-0.61417">
        <ele>124.15</ele>
        <time>2019-10-13T08:50:42Z</time>
      </trkpt>
      <trkpt lat="43.44894" lon="-0.61424">
        <ele>124.15</ele>
        <time>2019-10-13T08:50:43Z</time>
      </trkpt>
      <trkpt lat="43.44888" lon="-0.61429">
        <ele>123.67</ele>
        <time>2019-10-13T08:50:44Z</time>
      </trkpt>
      <trkpt lat="43.44881" lon="-0.61433">
        <ele>123.67</ele>
        <time>2019-10-13T08:50:45Z</time>
      </trkpt>
      <trkpt lat="43.44874" lon="-0.61435">
        <ele>123.67</ele>
        <time>2019-10-13T08:50:46Z</time>
      </trkpt>
      <trkpt lat="43.44866" lon="-0.61434">
        <ele>123.67</ele>
        <time>2019-10-13T08:50:47Z</time>
      </trkpt>
      <trkpt lat="43.44859" lon="-0.61432">
        <ele>123.19</ele>
        <time>2019-10-13T08:50:48Z</time>
      </trkpt>
      <trkpt lat="43.44852" lon="-0.61429">
        <ele>123.19</ele>
        <time>2019-10-13T08:50:49Z</time>
      </trkpt>
      <trkpt lat="43.44845" lon="-0.61426">
        <ele>123.19</ele>
        <time>2019-10-13T08:50:50Z</time>
      </trkpt>
      <trkpt lat="43.44838" lon="-0.61421">
        <ele>122.71</ele>
        <time>2019-10-13T08:50:51Z</time>
      </trkpt>
      <trkpt lat="43.44831" lon="-0.61415">
        <ele>122.71</ele>
        <time>2019-10-13T08:50:52Z</time>
      </trkpt>
      <trkpt lat="43.44826" lon="-0.61408">
        <ele>122.71</ele>
        <time>2019-10-13T08:50:53Z</time>
      </trkpt>
      <trkpt lat="43.4482" lon="-0.61401">
        <ele>122.22</ele>
        <time>2019-10-13T08:50:54Z</time>
      </trkpt>
      <trkpt lat="43.44815" lon="-0.61394">
        <ele>122.22</ele>
        <time>2019-10-13T08:50:55Z</time>
      </trkpt>
      <trkpt lat="43.44795" lon="-0.61369">
        <ele>122.22</ele>
        <time>2019-10-13T08:50:59Z</time>
      </trkpt>
      <trkpt lat="43.44789" lon="-0.61365">
        <ele>122.22</ele>
        <time>2019-10-13T08:51:00Z</time>
      </trkpt>
      <trkpt lat="43.44766" lon="-0.61348">
        <ele>122.22</ele>
        <time>2019-10-13T08:51:05Z</time>
      </trkpt>
      <trkpt lat="43.44762" lon="-0.61345">
        <ele>122.22</ele>
        <time>2019-10-13T08:51:06Z</time>
      </trkpt>
      <trkpt lat="43.44757" lon="-0.61342">
        <ele>122.22</ele>
        <time>2019-10-13T08:51:07Z</time>
      </trkpt>
      <trkpt lat="43.44753" lon="-0.61339">
        <ele>122.22</ele>
        <time>2019-10-13T08:51:08Z</time>
      </trkpt>
      <trkpt lat="43.44748" lon="-0.61334">
        <ele>122.71</ele>
        <time>2019-10-13T08:51:09Z</time>
      </trkpt>
      <trkpt lat="43.44744" lon="-0.6133">
        <ele>122.71</ele>
        <time>2019-10-13T08:51:10Z</time>
      </trkpt>
      <trkpt lat="43.4474" lon="-0.61324">
        <ele>122.71</ele>
        <time>2019-10-13T08:51:11Z</time>
      </trkpt>
      <trkpt lat="43.44716" lon="-0.61288">
        <ele>122.22</ele>
        <time>2019-10-13T08:51:17Z</time>
      </trkpt>
      <trkpt lat="43.44711" lon="-0.61283">
        <ele>122.22</ele>
        <time>2019-10-13T08:51:18Z</time>
      </trkpt>
      <trkpt lat="43.44706" lon="-0.6128">
        <ele>122.22</ele>
        <time>2019-10-13T08:51:19Z</time>
      </trkpt>
      <trkpt lat="43.447" lon="-0.61277">
        <ele>121.74</ele>
        <time>2019-10-13T08:51:20Z</time>
      </trkpt>
      <trkpt lat="43.44695" lon="-0.61275">
        <ele>121.74</ele>
        <time>2019-10-13T08:51:21Z</time>
      </trkpt>
      <trkpt lat="43.44689" lon="-0.61273">
        <ele>121.74</ele>
        <time>2019-10-13T08:51:22Z</time>
      </trkpt>
      <trkpt lat="43.44664" lon="-0.61266">
        <ele>122.22</ele>
        <time>2019-10-13T08:51:27Z</time>
      </trkpt>
      <trkpt lat="43.44636" lon="-0.6126">
        <ele>121.26</ele>
        <time>2019-10-13T08:51:33Z</time>
      </trkpt>
      <trkpt lat="43.44632" lon="-0.61261">
        <ele>121.26</ele>
        <time>2019-10-13T08:51:34Z</time>
      </trkpt>
      <trkpt lat="43.44629" lon="-0.61264">
        <ele>120.78</ele>
        <time>2019-10-13T08:51:35Z</time>
      </trkpt>
      <trkpt lat="43.44627" lon="-0.61269">
        <ele>120.78</ele>
        <time>2019-10-13T08:51:36Z</time>
      </trkpt>
      <trkpt lat="43.44627" lon="-0.61273">
        <ele>121.26</ele>
        <time>2019-10-13T08:51:37Z</time>
      </trkpt>
      <trkpt lat="43.44627" lon="-0.61278">
        <ele>121.26</ele>
        <time>2019-10-13T08:51:38Z</time>
      </trkpt>
      <trkpt lat="43.44628" lon="-0.61282">
        <ele>121.26</ele>
        <time>2019-10-13T08:51:39Z</time>
      </trkpt>
      <trkpt lat="43.44627" lon="-0.61298">
        <ele>121.26</ele>
        <time>2019-10-13T08:51:42Z</time>
      </trkpt>
      <trkpt lat="43.44625" lon="-0.61303">
        <ele>121.26</ele>
        <time>2019-10-13T08:51:43Z</time>
      </trkpt>
      <trkpt lat="43.44622" lon="-0.61307">
        <ele>121.26</ele>
        <time>2019-10-13T08:51:44Z</time>
      </trkpt>
      <trkpt lat="43.44618" lon="-0.6131">
        <ele>120.78</ele>
        <time>2019-10-13T08:51:45Z</time>
      </trkpt>
      <trkpt lat="43.44614" lon="-0.61312">
        <ele>120.78</ele>
        <time>2019-10-13T08:51:46Z</time>
      </trkpt>
      <trkpt lat="43.44609" lon="-0.61314">
        <ele>120.78</ele>
        <time>2019-10-13T08:51:47Z</time>
      </trkpt>
      <trkpt lat="43.44535" lon="-0.61354">
        <ele>119.34</ele>
        <time>2019-10-13T08:52:04Z</time>
      </trkpt>
      <trkpt lat="43.44483" lon="-0.61381">
        <ele>118.38</ele>
        <time>2019-10-13T08:52:15Z</time>
      </trkpt>
      <trkpt lat="43.44474" lon="-0.61383">
        <ele>117.9</ele>
        <time>2019-10-13T08:52:17Z</time>
      </trkpt>
      <trkpt lat="43.44469" lon="-0.61384">
        <ele>117.9</ele>
        <time>2019-10-13T08:52:18Z</time>
      </trkpt>
      <trkpt lat="43.44434" lon="-0.61403">
        <ele>116.94</ele>
        <time>2019-10-13T08:52:25Z</time>
      </trkpt>
      <trkpt lat="43.44429" lon="-0.61406">
        <ele>116.94</ele>
        <time>2019-10-13T08:52:26Z</time>
      </trkpt>
      <trkpt lat="43.44365" lon="-0.6144">
        <ele>115.5</ele>
        <time>2019-10-13T08:52:39Z</time>
      </trkpt>
      <trkpt lat="43.44362" lon="-0.61443">
        <ele>115.5</ele>
        <time>2019-10-13T08:52:40Z</time>
      </trkpt>
      <trkpt lat="43.4436" lon="-0.61448">
        <ele>115.98</ele>
        <time>2019-10-13T08:52:41Z</time>
      </trkpt>
      <trkpt lat="43.4436" lon="-0.61453">
        <ele>115.98</ele>
        <time>2019-10-13T08:52:42Z</time>
      </trkpt>
      <trkpt lat="43.44357" lon="-0.61528">
        <ele>117.42</ele>
        <time>2019-10-13T08:52:54Z</time>
      </trkpt>
      <trkpt lat="43.44355" lon="-0.61529">
        <ele>117.42</ele>
        <time>2019-10-13T08:52:55Z</time>
      </trkpt>
      <trkpt lat="43.44353" lon="-0.6153">
        <ele>117.9</ele>
        <time>2019-10-13T08:52:56Z</time>
      </trkpt>
      <trkpt lat="43.44351" lon="-0.61531">
        <ele>117.9</ele>
        <time>2019-10-13T08:52:57Z</time>
      </trkpt>
      <trkpt lat="43.4435" lon="-0.61533">
        <ele>117.9</ele>
        <time>2019-10-13T08:52:58Z</time>
      </trkpt>
      <trkpt lat="43.44349" lon="-0.61536">
        <ele>118.38</ele>
        <time>2019-10-13T08:52:59Z</time>
      </trkpt>
      <trkpt lat="43.44348" lon="-0.6154">
        <ele>118.86</ele>
        <time>2019-10-13T08:53:00Z</time>
      </trkpt>
      <trkpt lat="43.44341" lon="-0.61556">
        <ele>120.3</ele>
        <time>2019-10-13T08:53:04Z</time>
      </trkpt>
      <trkpt lat="43.44338" lon="-0.6156">
        <ele>120.78</ele>
        <time>2019-10-13T08:53:05Z</time>
      </trkpt>
      <trkpt lat="43.44334" lon="-0.61564">
        <ele>120.78</ele>
        <time>2019-10-13T08:53:06Z</time>
      </trkpt>
      <trkpt lat="43.44331" lon="-0.61569">
        <ele>120.78</ele>
        <time>2019-10-13T08:53:07Z</time>
      </trkpt>
      <trkpt lat="43.44327" lon="-0.61579">
        <ele>121.26</ele>
        <time>2019-10-13T08:53:09Z</time>
      </trkpt>
      <trkpt lat="43.44297" lon="-0.61591">
        <ele>121.74</ele>
        <time>2019-10-13T08:53:16Z</time>
      </trkpt>
      <trkpt lat="43.44292" lon="-0.61593">
        <ele>121.74</ele>
        <time>2019-10-13T08:53:17Z</time>
      </trkpt>
      <trkpt lat="43.44281" lon="-0.61602">
        <ele>119.82</ele>
        <time>2019-10-13T08:53:23Z</time>
      </trkpt>
      <trkpt lat="43.44286" lon="-0.61628">
        <ele>117.9</ele>
        <time>2019-10-13T08:53:30Z</time>
      </trkpt>
      <trkpt lat="43.44287" lon="-0.61636">
        <ele>117.9</ele>
        <time>2019-10-13T08:53:32Z</time>
      </trkpt>
      <trkpt lat="43.44288" lon="-0.61661">
        <ele>116.46</ele>
        <time>2019-10-13T08:53:41Z</time>
      </trkpt>
      <trkpt lat="43.44288" lon="-0.61666">
        <ele>115.5</ele>
        <time>2019-10-13T08:53:48Z</time>
      </trkpt>
      <trkpt lat="43.44291" lon="-0.61669">
        <ele>115.5</ele>
        <time>2019-10-13T08:53:50Z</time>
      </trkpt>
      <trkpt lat="43.4429" lon="-0.61678">
        <ele>115.98</ele>
        <time>2019-10-13T08:53:54Z</time>
      </trkpt>
      <trkpt lat="43.44287" lon="-0.61678">
        <ele>116.46</ele>
        <time>2019-10-13T08:53:56Z</time>
      </trkpt>
      <trkpt lat="43.44283" lon="-0.61686">
        <ele>117.42</ele>
        <time>2019-10-13T08:54:00Z</time>
      </trkpt>
      <trkpt lat="43.44275" lon="-0.61702">
        <ele>118.86</ele>
        <time>2019-10-13T08:54:07Z</time>
      </trkpt>
      <trkpt lat="43.44272" lon="-0.61707">
        <ele>119.34</ele>
        <time>2019-10-13T08:54:09Z</time>
      </trkpt>
      <trkpt lat="43.44272" lon="-0.61719">
        <ele>119.34</ele>
        <time>2019-10-13T08:54:15Z</time>
      </trkpt>
      <trkpt lat="43.44276" lon="-0.61725">
        <ele>119.82</ele>
        <time>2019-10-13T08:54:21Z</time>
      </trkpt>
      <trkpt lat="43.44292" lon="-0.61732">
        <ele>120.3</ele>
        <time>2019-10-13T08:54:30Z</time>
      </trkpt>
      <trkpt lat="43.44292" lon="-0.61731">
        <ele>120.78</ele>
        <time>2019-10-13T08:54:33Z</time>
      </trkpt>
      <trkpt lat="43.44311" lon="-0.61734">
        <ele>121.26</ele>
        <time>2019-10-13T08:54:43Z</time>
      </trkpt>
      <trkpt lat="43.44313" lon="-0.61741">
        <ele>121.74</ele>
        <time>2019-10-13T08:54:45Z</time>
      </trkpt>
      <trkpt lat="43.44309" lon="-0.61754">
        <ele>122.22</ele>
        <time>2019-10-13T08:54:49Z</time>
      </trkpt>
      <trkpt lat="43.44307" lon="-0.61763">
        <ele>123.19</ele>
        <time>2019-10-13T08:54:53Z</time>
      </trkpt>
      <trkpt lat="43.44311" lon="-0.61765">
        <ele>123.19</ele>
        <time>2019-10-13T08:54:55Z</time>
      </trkpt>
      <trkpt lat="43.4431" lon="-0.6178">
        <ele>123.67</ele>
        <time>2019-10-13T08:55:03Z</time>
      </trkpt>
      <trkpt lat="43.4431" lon="-0.61793">
        <ele>122.22</ele>
        <time>2019-10-13T08:55:09Z</time>
      </trkpt>
      <trkpt lat="43.44311" lon="-0.61794">
        <ele>122.71</ele>
        <time>2019-10-13T08:55:10Z</time>
      </trkpt>
      <trkpt lat="43.44318" lon="-0.61788">
        <ele>122.22</ele>
        <time>2019-10-13T08:55:15Z</time>
      </trkpt>
      <trkpt lat="43.44329" lon="-0.61776">
        <ele>120.78</ele>
        <time>2019-10-13T08:55:24Z</time>
      </trkpt>
      <trkpt lat="43.44341" lon="-0.61762">
        <ele>119.34</ele>
        <time>2019-10-13T08:55:31Z</time>
      </trkpt>
      <trkpt lat="43.44342" lon="-0.61758">
        <ele>118.86</ele>
        <time>2019-10-13T08:55:33Z</time>
      </trkpt>
      <trkpt lat="43.44345" lon="-0.6174">
        <ele>118.86</ele>
        <time>2019-10-13T08:55:41Z</time>
      </trkpt>
      <trkpt lat="43.44348" lon="-0.6174">
        <ele>118.86</ele>
        <time>2019-10-13T08:55:42Z</time>
      </trkpt>
      <trkpt lat="43.44353" lon="-0.61742">
        <ele>118.86</ele>
        <time>2019-10-13T08:55:44Z</time>
      </trkpt>
      <trkpt lat="43.4437" lon="-0.61734">
        <ele>119.34</ele>
        <time>2019-10-13T08:55:50Z</time>
      </trkpt>
      <trkpt lat="43.444" lon="-0.61736">
        <ele>123.19</ele>
        <time>2019-10-13T08:56:00Z</time>
      </trkpt>
      <trkpt lat="43.44407" lon="-0.61736">
        <ele>124.15</ele>
        <time>2019-10-13T08:56:03Z</time>
      </trkpt>
      <trkpt lat="43.44427" lon="-0.61729">
        <ele>124.63</ele>
        <time>2019-10-13T08:56:09Z</time>
      </trkpt>
      <trkpt lat="43.44431" lon="-0.61746">
        <ele>123.19</ele>
        <time>2019-10-13T08:56:17Z</time>
      </trkpt>
      <trkpt lat="43.44438" lon="-0.61748">
        <ele>123.19</ele>
        <time>2019-10-13T08:56:20Z</time>
      </trkpt>
      <trkpt lat="43.44459" lon="-0.61767">
        <ele>124.63</ele>
        <time>2019-10-13T08:56:28Z</time>
      </trkpt>
      <trkpt lat="43.44468" lon="-0.6177">
        <ele>125.11</ele>
        <time>2019-10-13T08:56:31Z</time>
      </trkpt>
      <trkpt lat="43.4448" lon="-0.61796">
        <ele>126.07</ele>
        <time>2019-10-13T08:56:39Z</time>
      </trkpt>
      <trkpt lat="43.44482" lon="-0.61801">
        <ele>126.07</ele>
        <time>2019-10-13T08:56:40Z</time>
      </trkpt>
      <trkpt lat="43.44491" lon="-0.61825">
        <ele>123.67</ele>
        <time>2019-10-13T08:56:45Z</time>
      </trkpt>
      <trkpt lat="43.44489" lon="-0.61851">
        <ele>122.71</ele>
        <time>2019-10-13T08:56:52Z</time>
      </trkpt>
      <trkpt lat="43.44459" lon="-0.61868">
        <ele>122.22</ele>
        <time>2019-10-13T08:57:02Z</time>
      </trkpt>
      <trkpt lat="43.44448" lon="-0.61869">
        <ele>122.71</ele>
        <time>2019-10-13T08:57:06Z</time>
      </trkpt>
      <trkpt lat="43.44428" lon="-0.61868">
        <ele>124.15</ele>
        <time>2019-10-13T08:57:14Z</time>
      </trkpt>
      <trkpt lat="43.4442" lon="-0.6187">
        <ele>124.63</ele>
        <time>2019-10-13T08:57:17Z</time>
      </trkpt>
      <trkpt lat="43.44408" lon="-0.61877">
        <ele>126.07</ele>
        <time>2019-10-13T08:57:22Z</time>
      </trkpt>
      <trkpt lat="43.44385" lon="-0.61877">
        <ele>128.47</ele>
        <time>2019-10-13T08:57:31Z</time>
      </trkpt>
      <trkpt lat="43.4437" lon="-0.61882">
        <ele>132.32</ele>
        <time>2019-10-13T08:57:37Z</time>
      </trkpt>
      <trkpt lat="43.44364" lon="-0.61882">
        <ele>132.8</ele>
        <time>2019-10-13T08:57:39Z</time>
      </trkpt>
      <trkpt lat="43.44356" lon="-0.61884">
        <ele>133.76</ele>
        <time>2019-10-13T08:57:45Z</time>
      </trkpt>
      <trkpt lat="43.44348" lon="-0.61893">
        <ele>130.88</ele>
        <time>2019-10-13T08:57:56Z</time>
      </trkpt>
      <trkpt lat="43.44347" lon="-0.61894">
        <ele>130.4</ele>
        <time>2019-10-13T08:57:58Z</time>
      </trkpt>
      <trkpt lat="43.44348" lon="-0.61904">
        <ele>129.92</ele>
        <time>2019-10-13T08:58:03Z</time>
      </trkpt>
      <trkpt lat="43.44348" lon="-0.61914">
        <ele>127.99</ele>
        <time>2019-10-13T08:58:07Z</time>
      </trkpt>
      <trkpt lat="43.44348" lon="-0.61923">
        <ele>126.55</ele>
        <time>2019-10-13T08:58:11Z</time>
      </trkpt>
      <trkpt lat="43.44334" lon="-0.61954">
        <ele>126.07</ele>
        <time>2019-10-13T08:58:21Z</time>
      </trkpt>
      <trkpt lat="43.44329" lon="-0.61957">
        <ele>126.55</ele>
        <time>2019-10-13T08:58:24Z</time>
      </trkpt>
      <trkpt lat="43.44324" lon="-0.6196">
        <ele>126.55</ele>
        <time>2019-10-13T08:58:26Z</time>
      </trkpt>
      <trkpt lat="43.44318" lon="-0.6197">
        <ele>126.55</ele>
        <time>2019-10-13T08:58:31Z</time>
      </trkpt>
      <trkpt lat="43.44309" lon="-0.61979">
        <ele>126.07</ele>
        <time>2019-10-13T08:58:35Z</time>
      </trkpt>
      <trkpt lat="43.44291" lon="-0.61992">
        <ele>127.51</ele>
        <time>2019-10-13T08:58:43Z</time>
      </trkpt>
      <trkpt lat="43.44287" lon="-0.62008">
        <ele>127.03</ele>
        <time>2019-10-13T08:58:48Z</time>
      </trkpt>
      <trkpt lat="43.44285" lon="-0.62024">
        <ele>127.03</ele>
        <time>2019-10-13T08:58:52Z</time>
      </trkpt>
      <trkpt lat="43.44298" lon="-0.62041">
        <ele>125.11</ele>
        <time>2019-10-13T08:59:01Z</time>
      </trkpt>
      <trkpt lat="43.44316" lon="-0.6205">
        <ele>124.15</ele>
        <time>2019-10-13T08:59:09Z</time>
      </trkpt>
      <trkpt lat="43.44324" lon="-0.62055">
        <ele>124.15</ele>
        <time>2019-10-13T08:59:12Z</time>
      </trkpt>
      <trkpt lat="43.44331" lon="-0.62057">
        <ele>123.67</ele>
        <time>2019-10-13T08:59:14Z</time>
      </trkpt>
      <trkpt lat="43.44355" lon="-0.62094">
        <ele>120.78</ele>
        <time>2019-10-13T08:59:24Z</time>
      </trkpt>
      <trkpt lat="43.44356" lon="-0.62106">
        <ele>121.74</ele>
        <time>2019-10-13T08:59:28Z</time>
      </trkpt>
      <trkpt lat="43.44353" lon="-0.62113">
        <ele>121.74</ele>
        <time>2019-10-13T08:59:41Z</time>
      </trkpt>
      <trkpt lat="43.44354" lon="-0.62112">
        <ele>118.38</ele>
        <time>2019-10-13T09:00:01Z</time>
      </trkpt>
      <trkpt lat="43.4435" lon="-0.62112">
        <ele>113.57</ele>
        <time>2019-10-13T09:00:36Z</time>
      </trkpt>
      <trkpt lat="43.44351" lon="-0.62114">
        <ele>113.09</ele>
        <time>2019-10-13T09:01:06Z</time>
      </trkpt>
      <trkpt lat="43.44356" lon="-0.62115">
        <ele>109.73</ele>
        <time>2019-10-13T09:01:35Z</time>
      </trkpt>
      <trkpt lat="43.44352" lon="-0.62112">
        <ele>109.73</ele>
        <time>2019-10-13T09:02:03Z</time>
      </trkpt>
      <trkpt lat="43.44352" lon="-0.62114">
        <ele>110.21</ele>
        <time>2019-10-13T09:02:36Z</time>
      </trkpt>
      <trkpt lat="43.44352" lon="-0.62115">
        <ele>111.17</ele>
        <time>2019-10-13T09:03:08Z</time>
      </trkpt>
      <trkpt lat="43.44353" lon="-0.62115">
        <ele>111.17</ele>
        <time>2019-10-13T09:03:24Z</time>
      </trkpt>
      <trkpt lat="43.44353" lon="-0.62113">
        <ele>111.17</ele>
        <time>2019-10-13T09:03:55Z</time>
      </trkpt>
      <trkpt lat="43.44353" lon="-0.62117">
        <ele>108.29</ele>
        <time>2019-10-13T09:04:20Z</time>
      </trkpt>
      <trkpt lat="43.44353" lon="-0.62116">
        <ele>111.65</ele>
        <time>2019-10-13T09:04:51Z</time>
      </trkpt>
      <trkpt lat="43.44352" lon="-0.62114">
        <ele>111.17</ele>
        <time>2019-10-13T09:05:15Z</time>
      </trkpt>
      <trkpt lat="43.44351" lon="-0.62115">
        <ele>111.17</ele>
        <time>2019-10-13T09:05:24Z</time>
      </trkpt>
      <trkpt lat="43.44319" lon="-0.62092">
        <ele>112.61</ele>
        <time>2019-10-13T09:05:36Z</time>
      </trkpt>
      <trkpt lat="43.44284" lon="-0.62066">
        <ele>113.09</ele>
        <time>2019-10-13T09:05:49Z</time>
      </trkpt>
      <trkpt lat="43.44237" lon="-0.62028">
        <ele>112.61</ele>
        <time>2019-10-13T09:06:02Z</time>
      </trkpt>
      <trkpt lat="43.44233" lon="-0.62024">
        <ele>111.17</ele>
        <time>2019-10-13T09:06:11Z</time>
      </trkpt>
      <trkpt lat="43.44206" lon="-0.62025">
        <ele>109.73</ele>
        <time>2019-10-13T09:06:21Z</time>
      </trkpt>
      <trkpt lat="43.44202" lon="-0.62025">
        <ele>109.73</ele>
        <time>2019-10-13T09:06:22Z</time>
      </trkpt>
      <trkpt lat="43.44187" lon="-0.62026">
        <ele>108.77</ele>
        <time>2019-10-13T09:06:25Z</time>
      </trkpt>
      <trkpt lat="43.44182" lon="-0.62024">
        <ele>108.29</ele>
        <time>2019-10-13T09:06:26Z</time>
      </trkpt>
      <trkpt lat="43.44152" lon="-0.62019">
        <ele>104.92</ele>
        <time>2019-10-13T09:06:36Z</time>
      </trkpt>
      <trkpt lat="43.4414" lon="-0.62023">
        <ele>105.88</ele>
        <time>2019-10-13T09:06:40Z</time>
      </trkpt>
      <trkpt lat="43.44139" lon="-0.62035">
        <ele>107.32</ele>
        <time>2019-10-13T09:06:44Z</time>
      </trkpt>
      <trkpt lat="43.44149" lon="-0.62065">
        <ele>104.92</ele>
        <time>2019-10-13T09:06:52Z</time>
      </trkpt>
      <trkpt lat="43.44141" lon="-0.62091">
        <ele>105.88</ele>
        <time>2019-10-13T09:06:58Z</time>
      </trkpt>
      <trkpt lat="43.44128" lon="-0.62113">
        <ele>108.29</ele>
        <time>2019-10-13T09:07:02Z</time>
      </trkpt>
      <trkpt lat="43.44127" lon="-0.62146">
        <ele>108.77</ele>
        <time>2019-10-13T09:07:09Z</time>
      </trkpt>
      <trkpt lat="43.44126" lon="-0.62201">
        <ele>108.77</ele>
        <time>2019-10-13T09:07:21Z</time>
      </trkpt>
      <trkpt lat="43.44104" lon="-0.62252">
        <ele>108.29</ele>
        <time>2019-10-13T09:07:32Z</time>
      </trkpt>
      <trkpt lat="43.44055" lon="-0.62337">
        <ele>107.32</ele>
        <time>2019-10-13T09:07:51Z</time>
      </trkpt>
      <trkpt lat="43.44042" lon="-0.62361">
        <ele>106.84</ele>
        <time>2019-10-13T09:07:56Z</time>
      </trkpt>
      <trkpt lat="43.44041" lon="-0.62365">
        <ele>106.84</ele>
        <time>2019-10-13T09:07:57Z</time>
      </trkpt>
      <trkpt lat="43.4404" lon="-0.6237">
        <ele>106.84</ele>
        <time>2019-10-13T09:07:58Z</time>
      </trkpt>
      <trkpt lat="43.4404" lon="-0.62377">
        <ele>106.84</ele>
        <time>2019-10-13T09:07:59Z</time>
      </trkpt>
      <trkpt lat="43.4404" lon="-0.62383">
        <ele>106.84</ele>
        <time>2019-10-13T09:08:00Z</time>
      </trkpt>
      <trkpt lat="43.4404" lon="-0.62389">
        <ele>106.84</ele>
        <time>2019-10-13T09:08:01Z</time>
      </trkpt>
      <trkpt lat="43.4404" lon="-0.62395">
        <ele>106.36</ele>
        <time>2019-10-13T09:08:02Z</time>
      </trkpt>
      <trkpt lat="43.4404" lon="-0.624">
        <ele>106.36</ele>
        <time>2019-10-13T09:08:03Z</time>
      </trkpt>
      <trkpt lat="43.4404" lon="-0.62406">
        <ele>106.36</ele>
        <time>2019-10-13T09:08:04Z</time>
      </trkpt>
      <trkpt lat="43.44027" lon="-0.62464">
        <ele>104.92</ele>
        <time>2019-10-13T09:08:15Z</time>
      </trkpt>
      <trkpt lat="43.44017" lon="-0.62512">
        <ele>104.44</ele>
        <time>2019-10-13T09:08:24Z</time>
      </trkpt>
      <trkpt lat="43.44016" lon="-0.62518">
        <ele>104.44</ele>
        <time>2019-10-13T09:08:25Z</time>
      </trkpt>
      <trkpt lat="43.44013" lon="-0.6253">
        <ele>104.44</ele>
        <time>2019-10-13T09:08:27Z</time>
      </trkpt>
      <trkpt lat="43.44012" lon="-0.62549">
        <ele>103.96</ele>
        <time>2019-10-13T09:08:30Z</time>
      </trkpt>
      <trkpt lat="43.44012" lon="-0.62555">
        <ele>103.96</ele>
        <time>2019-10-13T09:08:31Z</time>
      </trkpt>
      <trkpt lat="43.44013" lon="-0.62561">
        <ele>103.96</ele>
        <time>2019-10-13T09:08:32Z</time>
      </trkpt>
      <trkpt lat="43.44015" lon="-0.62566">
        <ele>103.96</ele>
        <time>2019-10-13T09:08:33Z</time>
      </trkpt>
      <trkpt lat="43.44017" lon="-0.62571">
        <ele>103.48</ele>
        <time>2019-10-13T09:08:34Z</time>
      </trkpt>
      <trkpt lat="43.4402" lon="-0.62575">
        <ele>103.48</ele>
        <time>2019-10-13T09:08:35Z</time>
      </trkpt>
      <trkpt lat="43.44023" lon="-0.62579">
        <ele>103.48</ele>
        <time>2019-10-13T09:08:36Z</time>
      </trkpt>
      <trkpt lat="43.44025" lon="-0.62583">
        <ele>103.96</ele>
        <time>2019-10-13T09:08:37Z</time>
      </trkpt>
      <trkpt lat="43.44067" lon="-0.6264">
        <ele>106.36</ele>
        <time>2019-10-13T09:08:51Z</time>
      </trkpt>
      <trkpt lat="43.44115" lon="-0.62691">
        <ele>108.29</ele>
        <time>2019-10-13T09:09:07Z</time>
      </trkpt>
      <trkpt lat="43.4413" lon="-0.62744">
        <ele>107.81</ele>
        <time>2019-10-13T09:09:17Z</time>
      </trkpt>
      <trkpt lat="43.44145" lon="-0.62835">
        <ele>106.84</ele>
        <time>2019-10-13T09:09:31Z</time>
      </trkpt>
      <trkpt lat="43.44147" lon="-0.62955">
        <ele>108.29</ele>
        <time>2019-10-13T09:09:48Z</time>
      </trkpt>
      <trkpt lat="43.4414" lon="-0.62985">
        <ele>109.25</ele>
        <time>2019-10-13T09:09:55Z</time>
      </trkpt>
      <trkpt lat="43.44136" lon="-0.62988">
        <ele>109.25</ele>
        <time>2019-10-13T09:09:56Z</time>
      </trkpt>
      <trkpt lat="43.44049" lon="-0.63032">
        <ele>107.81</ele>
        <time>2019-10-13T09:10:13Z</time>
      </trkpt>
      <trkpt lat="43.4401" lon="-0.63045">
        <ele>106.36</ele>
        <time>2019-10-13T09:10:22Z</time>
      </trkpt>
      <trkpt lat="43.44008" lon="-0.63046">
        <ele>105.88</ele>
        <time>2019-10-13T09:10:31Z</time>
      </trkpt>
      <trkpt lat="43.44008" lon="-0.63042">
        <ele>107.81</ele>
        <time>2019-10-13T09:10:59Z</time>
      </trkpt>
      <trkpt lat="43.44006" lon="-0.63043">
        <ele>107.81</ele>
        <time>2019-10-13T09:11:19Z</time>
      </trkpt>
      <trkpt lat="43.44007" lon="-0.63044">
        <ele>109.25</ele>
        <time>2019-10-13T09:11:43Z</time>
      </trkpt>
      <trkpt lat="43.44006" lon="-0.63043">
        <ele>109.73</ele>
        <time>2019-10-13T09:12:10Z</time>
      </trkpt>
      <trkpt lat="43.44005" lon="-0.63043">
        <ele>106.36</ele>
        <time>2019-10-13T09:12:34Z</time>
      </trkpt>
      <trkpt lat="43.44006" lon="-0.63044">
        <ele>105.88</ele>
        <time>2019-10-13T09:12:57Z</time>
      </trkpt>
      <trkpt lat="43.44007" lon="-0.63044">
        <ele>105.88</ele>
        <time>2019-10-13T09:13:18Z</time>
      </trkpt>
      <trkpt lat="43.44007" lon="-0.63043">
        <ele>108.29</ele>
        <time>2019-10-13T09:13:42Z</time>
      </trkpt>
      <trkpt lat="43.44007" lon="-0.63046">
        <ele>108.29</ele>
        <time>2019-10-13T09:14:04Z</time>
      </trkpt>
      <trkpt lat="43.44007" lon="-0.63045">
        <ele>107.32</ele>
        <time>2019-10-13T09:14:21Z</time>
      </trkpt>
      <trkpt lat="43.44006" lon="-0.63047">
        <ele>107.81</ele>
        <time>2019-10-13T09:14:25Z</time>
      </trkpt>
      <trkpt lat="43.44009" lon="-0.63084">
        <ele>107.32</ele>
        <time>2019-10-13T09:14:35Z</time>
      </trkpt>
      <trkpt lat="43.4401" lon="-0.63134">
        <ele>107.32</ele>
        <time>2019-10-13T09:14:48Z</time>
      </trkpt>
      <trkpt lat="43.4401" lon="-0.63134">
        <ele>106.84</ele>
        <time>2019-10-13T09:14:50Z</time>
      </trkpt>
      <trkpt lat="43.44019" lon="-0.63135">
        <ele>107.32</ele>
        <time>2019-10-13T09:14:59Z</time>
      </trkpt>
      <trkpt lat="43.4402" lon="-0.63135">
        <ele>107.32</ele>
        <time>2019-10-13T09:15:00Z</time>
      </trkpt>
      <trkpt lat="43.44023" lon="-0.63128">
        <ele>108.29</ele>
        <time>2019-10-13T09:15:04Z</time>
      </trkpt>
      <trkpt lat="43.44027" lon="-0.63105">
        <ele>109.25</ele>
        <time>2019-10-13T09:15:13Z</time>
      </trkpt>
      <trkpt lat="43.4403" lon="-0.63075">
        <ele>110.69</ele>
        <time>2019-10-13T09:15:21Z</time>
      </trkpt>
      <trkpt lat="43.44049" lon="-0.63056">
        <ele>110.69</ele>
        <time>2019-10-13T09:15:28Z</time>
      </trkpt>
      <trkpt lat="43.44064" lon="-0.63061">
        <ele>112.13</ele>
        <time>2019-10-13T09:15:35Z</time>
      </trkpt>
      <trkpt lat="43.44067" lon="-0.63073">
        <ele>114.05</ele>
        <time>2019-10-13T09:15:40Z</time>
      </trkpt>
      <trkpt lat="43.44071" lon="-0.63081">
        <ele>115.01</ele>
        <time>2019-10-13T09:15:43Z</time>
      </trkpt>
      <trkpt lat="43.44087" lon="-0.63105">
        <ele>119.34</ele>
        <time>2019-10-13T09:15:53Z</time>
      </trkpt>
      <trkpt lat="43.44091" lon="-0.6311">
        <ele>119.82</ele>
        <time>2019-10-13T09:15:55Z</time>
      </trkpt>
      <trkpt lat="43.44094" lon="-0.63119">
        <ele>120.3</ele>
        <time>2019-10-13T09:15:57Z</time>
      </trkpt>
      <trkpt lat="43.44095" lon="-0.63143">
        <ele>121.26</ele>
        <time>2019-10-13T09:16:02Z</time>
      </trkpt>
      <trkpt lat="43.44072" lon="-0.63169">
        <ele>121.26</ele>
        <time>2019-10-13T09:16:11Z</time>
      </trkpt>
      <trkpt lat="43.44073" lon="-0.63187">
        <ele>120.78</ele>
        <time>2019-10-13T09:16:18Z</time>
      </trkpt>
      <trkpt lat="43.44074" lon="-0.6319">
        <ele>120.78</ele>
        <time>2019-10-13T09:16:19Z</time>
      </trkpt>
      <trkpt lat="43.44087" lon="-0.6321">
        <ele>120.3</ele>
        <time>2019-10-13T09:16:24Z</time>
      </trkpt>
      <trkpt lat="43.44082" lon="-0.63228">
        <ele>121.26</ele>
        <time>2019-10-13T09:16:29Z</time>
      </trkpt>
      <trkpt lat="43.44067" lon="-0.63242">
        <ele>121.74</ele>
        <time>2019-10-13T09:16:33Z</time>
      </trkpt>
      <trkpt lat="43.44048" lon="-0.63255">
        <ele>121.26</ele>
        <time>2019-10-13T09:16:38Z</time>
      </trkpt>
      <trkpt lat="43.44037" lon="-0.63266">
        <ele>121.26</ele>
        <time>2019-10-13T09:16:42Z</time>
      </trkpt>
      <trkpt lat="43.44027" lon="-0.63269">
        <ele>121.74</ele>
        <time>2019-10-13T09:16:45Z</time>
      </trkpt>
      <trkpt lat="43.44009" lon="-0.63276">
        <ele>123.67</ele>
        <time>2019-10-13T09:16:52Z</time>
      </trkpt>
      <trkpt lat="43.43997" lon="-0.63299">
        <ele>126.07</ele>
        <time>2019-10-13T09:16:59Z</time>
      </trkpt>
      <trkpt lat="43.43978" lon="-0.63333">
        <ele>129.43</ele>
        <time>2019-10-13T09:17:07Z</time>
      </trkpt>
      <trkpt lat="43.43976" lon="-0.63353">
        <ele>130.4</ele>
        <time>2019-10-13T09:17:11Z</time>
      </trkpt>
      <trkpt lat="43.43984" lon="-0.63371">
        <ele>133.76</ele>
        <time>2019-10-13T09:17:19Z</time>
      </trkpt>
      <trkpt lat="43.44001" lon="-0.6338">
        <ele>135.68</ele>
        <time>2019-10-13T09:17:25Z</time>
      </trkpt>
      <trkpt lat="43.44012" lon="-0.63385">
        <ele>136.64</ele>
        <time>2019-10-13T09:17:28Z</time>
      </trkpt>
      <trkpt lat="43.44027" lon="-0.63364">
        <ele>137.13</ele>
        <time>2019-10-13T09:17:36Z</time>
      </trkpt>
      <trkpt lat="43.44035" lon="-0.63342">
        <ele>136.16</ele>
        <time>2019-10-13T09:17:43Z</time>
      </trkpt>
      <trkpt lat="43.44044" lon="-0.63333">
        <ele>135.2</ele>
        <time>2019-10-13T09:17:49Z</time>
      </trkpt>
      <trkpt lat="43.44053" lon="-0.63328">
        <ele>134.72</ele>
        <time>2019-10-13T09:17:53Z</time>
      </trkpt>
      <trkpt lat="43.44057" lon="-0.63318">
        <ele>132.8</ele>
        <time>2019-10-13T09:17:58Z</time>
      </trkpt>
      <trkpt lat="43.44069" lon="-0.63302">
        <ele>127.03</ele>
        <time>2019-10-13T09:18:04Z</time>
      </trkpt>
      <trkpt lat="43.44093" lon="-0.63283">
        <ele>123.19</ele>
        <time>2019-10-13T09:18:12Z</time>
      </trkpt>
      <trkpt lat="43.44101" lon="-0.63283">
        <ele>123.19</ele>
        <time>2019-10-13T09:18:15Z</time>
      </trkpt>
      <trkpt lat="43.44102" lon="-0.6331">
        <ele>121.74</ele>
        <time>2019-10-13T09:18:23Z</time>
      </trkpt>
      <trkpt lat="43.44115" lon="-0.63326">
        <ele>121.74</ele>
        <time>2019-10-13T09:18:31Z</time>
      </trkpt>
      <trkpt lat="43.44131" lon="-0.63327">
        <ele>123.19</ele>
        <time>2019-10-13T09:18:41Z</time>
      </trkpt>
      <trkpt lat="43.44137" lon="-0.63329">
        <ele>126.07</ele>
        <time>2019-10-13T09:18:54Z</time>
      </trkpt>
      <trkpt lat="43.44145" lon="-0.63328">
        <ele>124.63</ele>
        <time>2019-10-13T09:19:01Z</time>
      </trkpt>
      <trkpt lat="43.44163" lon="-0.63345">
        <ele>123.19</ele>
        <time>2019-10-13T09:19:13Z</time>
      </trkpt>
      <trkpt lat="43.44166" lon="-0.6337">
        <ele>123.67</ele>
        <time>2019-10-13T09:19:20Z</time>
      </trkpt>
      <trkpt lat="43.4415" lon="-0.63381">
        <ele>123.19</ele>
        <time>2019-10-13T09:19:28Z</time>
      </trkpt>
      <trkpt lat="43.44148" lon="-0.6338">
        <ele>123.19</ele>
        <time>2019-10-13T09:19:29Z</time>
      </trkpt>
      <trkpt lat="43.44128" lon="-0.63373">
        <ele>123.67</ele>
        <time>2019-10-13T09:19:35Z</time>
      </trkpt>
      <trkpt lat="43.44114" lon="-0.63383">
        <ele>123.19</ele>
        <time>2019-10-13T09:19:42Z</time>
      </trkpt>
      <trkpt lat="43.441" lon="-0.63375">
        <ele>121.74</ele>
        <time>2019-10-13T09:19:47Z</time>
      </trkpt>
      <trkpt lat="43.4409" lon="-0.63379">
        <ele>119.82</ele>
        <time>2019-10-13T09:19:51Z</time>
      </trkpt>
      <trkpt lat="43.44092" lon="-0.63405">
        <ele>119.34</ele>
        <time>2019-10-13T09:20:00Z</time>
      </trkpt>
      <trkpt lat="43.44087" lon="-0.63414">
        <ele>119.34</ele>
        <time>2019-10-13T09:20:03Z</time>
      </trkpt>
      <trkpt lat="43.44085" lon="-0.63416">
        <ele>119.34</ele>
        <time>2019-10-13T09:20:04Z</time>
      </trkpt>
      <trkpt lat="43.44084" lon="-0.6342">
        <ele>119.34</ele>
        <time>2019-10-13T09:20:05Z</time>
      </trkpt>
      <trkpt lat="43.44083" lon="-0.63424">
        <ele>119.34</ele>
        <time>2019-10-13T09:20:06Z</time>
      </trkpt>
      <trkpt lat="43.44082" lon="-0.63428">
        <ele>119.34</ele>
        <time>2019-10-13T09:20:07Z</time>
      </trkpt>
      <trkpt lat="43.4408" lon="-0.63432">
        <ele>119.34</ele>
        <time>2019-10-13T09:20:08Z</time>
      </trkpt>
      <trkpt lat="43.44079" lon="-0.63441">
        <ele>118.86</ele>
        <time>2019-10-13T09:20:10Z</time>
      </trkpt>
      <trkpt lat="43.44079" lon="-0.63445">
        <ele>118.38</ele>
        <time>2019-10-13T09:20:11Z</time>
      </trkpt>
      <trkpt lat="43.44081" lon="-0.63454">
        <ele>118.38</ele>
        <time>2019-10-13T09:20:15Z</time>
      </trkpt>
      <trkpt lat="43.44078" lon="-0.63459">
        <ele>117.42</ele>
        <time>2019-10-13T09:20:17Z</time>
      </trkpt>
      <trkpt lat="43.44076" lon="-0.63461">
        <ele>117.42</ele>
        <time>2019-10-13T09:20:18Z</time>
      </trkpt>
      <trkpt lat="43.44073" lon="-0.63464">
        <ele>117.42</ele>
        <time>2019-10-13T09:20:19Z</time>
      </trkpt>
      <trkpt lat="43.44071" lon="-0.63468">
        <ele>117.42</ele>
        <time>2019-10-13T09:20:20Z</time>
      </trkpt>
      <trkpt lat="43.44044" lon="-0.63475">
        <ele>116.46</ele>
        <time>2019-10-13T09:20:28Z</time>
      </trkpt>
      <trkpt lat="43.44031" lon="-0.63476">
        <ele>116.94</ele>
        <time>2019-10-13T09:20:32Z</time>
      </trkpt>
      <trkpt lat="43.44019" lon="-0.63473">
        <ele>116.46</ele>
        <time>2019-10-13T09:20:36Z</time>
      </trkpt>
      <trkpt lat="43.44009" lon="-0.63489">
        <ele>117.42</ele>
        <time>2019-10-13T09:20:45Z</time>
      </trkpt>
      <trkpt lat="43.44008" lon="-0.6349">
        <ele>117.42</ele>
        <time>2019-10-13T09:20:46Z</time>
      </trkpt>
      <trkpt lat="43.44007" lon="-0.63503">
        <ele>117.42</ele>
        <time>2019-10-13T09:20:51Z</time>
      </trkpt>
      <trkpt lat="43.44002" lon="-0.63525">
        <ele>119.34</ele>
        <time>2019-10-13T09:20:57Z</time>
      </trkpt>
      <trkpt lat="43.44" lon="-0.63547">
        <ele>121.26</ele>
        <time>2019-10-13T09:21:03Z</time>
      </trkpt>
      <trkpt lat="43.4399" lon="-0.63595">
        <ele>122.71</ele>
        <time>2019-10-13T09:21:14Z</time>
      </trkpt>
      <trkpt lat="43.43983" lon="-0.63633">
        <ele>120.78</ele>
        <time>2019-10-13T09:21:22Z</time>
      </trkpt>
      <trkpt lat="43.43973" lon="-0.63649">
        <ele>121.74</ele>
        <time>2019-10-13T09:21:26Z</time>
      </trkpt>
      <trkpt lat="43.43968" lon="-0.63668">
        <ele>120.78</ele>
        <time>2019-10-13T09:21:33Z</time>
      </trkpt>
      <trkpt lat="43.43984" lon="-0.63675">
        <ele>118.38</ele>
        <time>2019-10-13T09:21:40Z</time>
      </trkpt>
      <trkpt lat="43.43988" lon="-0.6371">
        <ele>116.46</ele>
        <time>2019-10-13T09:21:49Z</time>
      </trkpt>
      <trkpt lat="43.43985" lon="-0.63718">
        <ele>114.05</ele>
        <time>2019-10-13T09:21:55Z</time>
      </trkpt>
      <trkpt lat="43.43986" lon="-0.63747">
        <ele>112.61</ele>
        <time>2019-10-13T09:22:04Z</time>
      </trkpt>
      <trkpt lat="43.43988" lon="-0.6376">
        <ele>112.13</ele>
        <time>2019-10-13T09:22:08Z</time>
      </trkpt>
      <trkpt lat="43.43995" lon="-0.63796">
        <ele>111.17</ele>
        <time>2019-10-13T09:22:17Z</time>
      </trkpt>
      <trkpt lat="43.44012" lon="-0.63799">
        <ele>110.69</ele>
        <time>2019-10-13T09:22:23Z</time>
      </trkpt>
      <trkpt lat="43.44015" lon="-0.63807">
        <ele>108.29</ele>
        <time>2019-10-13T09:22:34Z</time>
      </trkpt>
      <trkpt lat="43.44014" lon="-0.63808">
        <ele>107.32</ele>
        <time>2019-10-13T09:23:07Z</time>
      </trkpt>
      <trkpt lat="43.44015" lon="-0.63809">
        <ele>104.92</ele>
        <time>2019-10-13T09:23:39Z</time>
      </trkpt>
      <trkpt lat="43.44013" lon="-0.63812">
        <ele>102.04</ele>
        <time>2019-10-13T09:24:08Z</time>
      </trkpt>
      <trkpt lat="43.44015" lon="-0.63811">
        <ele>101.08</ele>
        <time>2019-10-13T09:24:33Z</time>
      </trkpt>
      <trkpt lat="43.44016" lon="-0.63809">
        <ele>101.56</ele>
        <time>2019-10-13T09:24:49Z</time>
      </trkpt>
      <trkpt lat="43.44016" lon="-0.63811">
        <ele>101.56</ele>
        <time>2019-10-13T09:24:54Z</time>
      </trkpt>
      <trkpt lat="43.4402" lon="-0.63839">
        <ele>101.56</ele>
        <time>2019-10-13T09:25:06Z</time>
      </trkpt>
      <trkpt lat="43.44012" lon="-0.63902">
        <ele>99.15</ele>
        <time>2019-10-13T09:25:21Z</time>
      </trkpt>
      <trkpt lat="43.44014" lon="-0.6399">
        <ele>97.71</ele>
        <time>2019-10-13T09:25:37Z</time>
      </trkpt>
      <trkpt lat="43.44017" lon="-0.64084">
        <ele>96.75</ele>
        <time>2019-10-13T09:25:51Z</time>
      </trkpt>
      <trkpt lat="43.44017" lon="-0.64102">
        <ele>96.27</ele>
        <time>2019-10-13T09:25:54Z</time>
      </trkpt>
      <trkpt lat="43.44016" lon="-0.64108">
        <ele>95.79</ele>
        <time>2019-10-13T09:25:55Z</time>
      </trkpt>
      <trkpt lat="43.44015" lon="-0.64114">
        <ele>95.79</ele>
        <time>2019-10-13T09:25:56Z</time>
      </trkpt>
      <trkpt lat="43.44013" lon="-0.64119">
        <ele>95.31</ele>
        <time>2019-10-13T09:25:57Z</time>
      </trkpt>
      <trkpt lat="43.44011" lon="-0.64125">
        <ele>95.31</ele>
        <time>2019-10-13T09:25:58Z</time>
      </trkpt>
      <trkpt lat="43.44009" lon="-0.64131">
        <ele>94.83</ele>
        <time>2019-10-13T09:25:59Z</time>
      </trkpt>
      <trkpt lat="43.43999" lon="-0.64162">
        <ele>94.35</ele>
        <time>2019-10-13T09:26:04Z</time>
      </trkpt>
      <trkpt lat="43.43992" lon="-0.64171">
        <ele>94.35</ele>
        <time>2019-10-13T09:26:06Z</time>
      </trkpt>
      <trkpt lat="43.43988" lon="-0.64174">
        <ele>94.83</ele>
        <time>2019-10-13T09:26:07Z</time>
      </trkpt>
      <trkpt lat="43.43985" lon="-0.64177">
        <ele>94.83</ele>
        <time>2019-10-13T09:26:08Z</time>
      </trkpt>
      <trkpt lat="43.43981" lon="-0.64179">
        <ele>95.31</ele>
        <time>2019-10-13T09:26:09Z</time>
      </trkpt>
      <trkpt lat="43.43977" lon="-0.64182">
        <ele>95.31</ele>
        <time>2019-10-13T09:26:10Z</time>
      </trkpt>
      <trkpt lat="43.43955" lon="-0.64196">
        <ele>96.27</ele>
        <time>2019-10-13T09:26:15Z</time>
      </trkpt>
      <trkpt lat="43.4395" lon="-0.64196">
        <ele>96.27</ele>
        <time>2019-10-13T09:26:16Z</time>
      </trkpt>
      <trkpt lat="43.43941" lon="-0.64192">
        <ele>96.27</ele>
        <time>2019-10-13T09:26:18Z</time>
      </trkpt>
      <trkpt lat="43.43936" lon="-0.64191">
        <ele>96.27</ele>
        <time>2019-10-13T09:26:19Z</time>
      </trkpt>
      <trkpt lat="43.43921" lon="-0.64188">
        <ele>96.75</ele>
        <time>2019-10-13T09:26:22Z</time>
      </trkpt>
      <trkpt lat="43.43913" lon="-0.64183">
        <ele>97.71</ele>
        <time>2019-10-13T09:26:24Z</time>
      </trkpt>
      <trkpt lat="43.43909" lon="-0.6418">
        <ele>98.19</ele>
        <time>2019-10-13T09:26:25Z</time>
      </trkpt>
      <trkpt lat="43.43901" lon="-0.64173">
        <ele>99.15</ele>
        <time>2019-10-13T09:26:27Z</time>
      </trkpt>
      <trkpt lat="43.43897" lon="-0.64168">
        <ele>99.15</ele>
        <time>2019-10-13T09:26:28Z</time>
      </trkpt>
      <trkpt lat="43.43883" lon="-0.6415">
        <ele>100.6</ele>
        <time>2019-10-13T09:26:32Z</time>
      </trkpt>
      <trkpt lat="43.4388" lon="-0.64146">
        <ele>101.08</ele>
        <time>2019-10-13T09:26:33Z</time>
      </trkpt>
      <trkpt lat="43.43873" lon="-0.64137">
        <ele>102.04</ele>
        <time>2019-10-13T09:26:35Z</time>
      </trkpt>
      <trkpt lat="43.4387" lon="-0.64133">
        <ele>102.52</ele>
        <time>2019-10-13T09:26:36Z</time>
      </trkpt>
      <trkpt lat="43.43868" lon="-0.64128">
        <ele>103</ele>
        <time>2019-10-13T09:26:37Z</time>
      </trkpt>
      <trkpt lat="43.43866" lon="-0.64124">
        <ele>103.48</ele>
        <time>2019-10-13T09:26:38Z</time>
      </trkpt>
      <trkpt lat="43.43864" lon="-0.64119">
        <ele>103.96</ele>
        <time>2019-10-13T09:26:39Z</time>
      </trkpt>
      <trkpt lat="43.43855" lon="-0.64076">
        <ele>105.88</ele>
        <time>2019-10-13T09:26:50Z</time>
      </trkpt>
      <trkpt lat="43.43838" lon="-0.64023">
        <ele>110.21</ele>
        <time>2019-10-13T09:27:05Z</time>
      </trkpt>
      <trkpt lat="43.43806" lon="-0.63954">
        <ele>112.61</ele>
        <time>2019-10-13T09:27:22Z</time>
      </trkpt>
      <trkpt lat="43.43767" lon="-0.63885">
        <ele>115.01</ele>
        <time>2019-10-13T09:27:38Z</time>
      </trkpt>
      <trkpt lat="43.43734" lon="-0.63824">
        <ele>115.01</ele>
        <time>2019-10-13T09:27:51Z</time>
      </trkpt>
      <trkpt lat="43.43731" lon="-0.63819">
        <ele>114.53</ele>
        <time>2019-10-13T09:27:52Z</time>
      </trkpt>
      <trkpt lat="43.43676" lon="-0.63735">
        <ele>109.73</ele>
        <time>2019-10-13T09:28:08Z</time>
      </trkpt>
      <trkpt lat="43.43656" lon="-0.63699">
        <ele>108.77</ele>
        <time>2019-10-13T09:28:14Z</time>
      </trkpt>
      <trkpt lat="43.43655" lon="-0.63693">
        <ele>108.77</ele>
        <time>2019-10-13T09:28:15Z</time>
      </trkpt>
      <trkpt lat="43.43654" lon="-0.63686">
        <ele>109.25</ele>
        <time>2019-10-13T09:28:16Z</time>
      </trkpt>
      <trkpt lat="43.43654" lon="-0.63679">
        <ele>109.25</ele>
        <time>2019-10-13T09:28:17Z</time>
      </trkpt>
      <trkpt lat="43.43655" lon="-0.63673">
        <ele>109.25</ele>
        <time>2019-10-13T09:28:18Z</time>
      </trkpt>
      <trkpt lat="43.43656" lon="-0.63667">
        <ele>109.73</ele>
        <time>2019-10-13T09:28:19Z</time>
      </trkpt>
      <trkpt lat="43.43657" lon="-0.63661">
        <ele>109.73</ele>
        <time>2019-10-13T09:28:20Z</time>
      </trkpt>
      <trkpt lat="43.43659" lon="-0.63656">
        <ele>109.73</ele>
        <time>2019-10-13T09:28:21Z</time>
      </trkpt>
      <trkpt lat="43.43663" lon="-0.63645">
        <ele>110.21</ele>
        <time>2019-10-13T09:28:23Z</time>
      </trkpt>
      <trkpt lat="43.43667" lon="-0.63634">
        <ele>110.69</ele>
        <time>2019-10-13T09:28:25Z</time>
      </trkpt>
      <trkpt lat="43.43669" lon="-0.63628">
        <ele>110.69</ele>
        <time>2019-10-13T09:28:26Z</time>
      </trkpt>
      <trkpt lat="43.43671" lon="-0.63623">
        <ele>111.17</ele>
        <time>2019-10-13T09:28:27Z</time>
      </trkpt>
      <trkpt lat="43.43702" lon="-0.63531">
        <ele>112.61</ele>
        <time>2019-10-13T09:28:42Z</time>
      </trkpt>
      <trkpt lat="43.43703" lon="-0.63525">
        <ele>112.61</ele>
        <time>2019-10-13T09:28:43Z</time>
      </trkpt>
      <trkpt lat="43.43705" lon="-0.63519">
        <ele>112.61</ele>
        <time>2019-10-13T09:28:44Z</time>
      </trkpt>
      <trkpt lat="43.43705" lon="-0.63512">
        <ele>112.13</ele>
        <time>2019-10-13T09:28:45Z</time>
      </trkpt>
      <trkpt lat="43.43706" lon="-0.63505">
        <ele>112.13</ele>
        <time>2019-10-13T09:28:46Z</time>
      </trkpt>
      <trkpt lat="43.43708" lon="-0.63498">
        <ele>112.13</ele>
        <time>2019-10-13T09:28:47Z</time>
      </trkpt>
      <trkpt lat="43.4371" lon="-0.63491">
        <ele>112.13</ele>
        <time>2019-10-13T09:28:48Z</time>
      </trkpt>
      <trkpt lat="43.43713" lon="-0.63485">
        <ele>112.13</ele>
        <time>2019-10-13T09:28:49Z</time>
      </trkpt>
      <trkpt lat="43.43732" lon="-0.63435">
        <ele>112.61</ele>
        <time>2019-10-13T09:28:57Z</time>
      </trkpt>
      <trkpt lat="43.43733" lon="-0.63428">
        <ele>112.61</ele>
        <time>2019-10-13T09:28:58Z</time>
      </trkpt>
      <trkpt lat="43.43734" lon="-0.63421">
        <ele>112.61</ele>
        <time>2019-10-13T09:28:59Z</time>
      </trkpt>
      <trkpt lat="43.43733" lon="-0.63392">
        <ele>112.61</ele>
        <time>2019-10-13T09:29:03Z</time>
      </trkpt>
      <trkpt lat="43.43731" lon="-0.63384">
        <ele>112.61</ele>
        <time>2019-10-13T09:29:04Z</time>
      </trkpt>
      <trkpt lat="43.43722" lon="-0.63349">
        <ele>112.61</ele>
        <time>2019-10-13T09:29:09Z</time>
      </trkpt>
      <trkpt lat="43.43682" lon="-0.6325">
        <ele>112.61</ele>
        <time>2019-10-13T09:29:24Z</time>
      </trkpt>
      <trkpt lat="43.43648" lon="-0.63167">
        <ele>113.09</ele>
        <time>2019-10-13T09:29:37Z</time>
      </trkpt>
      <trkpt lat="43.43644" lon="-0.63162">
        <ele>113.09</ele>
        <time>2019-10-13T09:29:38Z</time>
      </trkpt>
      <trkpt lat="43.4364" lon="-0.63158">
        <ele>113.09</ele>
        <time>2019-10-13T09:29:39Z</time>
      </trkpt>
      <trkpt lat="43.43636" lon="-0.63154">
        <ele>113.09</ele>
        <time>2019-10-13T09:29:40Z</time>
      </trkpt>
      <trkpt lat="43.4363" lon="-0.63151">
        <ele>113.57</ele>
        <time>2019-10-13T09:29:41Z</time>
      </trkpt>
      <trkpt lat="43.43626" lon="-0.63149">
        <ele>113.57</ele>
        <time>2019-10-13T09:29:42Z</time>
      </trkpt>
      <trkpt lat="43.43621" lon="-0.63147">
        <ele>113.57</ele>
        <time>2019-10-13T09:29:43Z</time>
      </trkpt>
      <trkpt lat="43.43617" lon="-0.63145">
        <ele>113.57</ele>
        <time>2019-10-13T09:29:44Z</time>
      </trkpt>
      <trkpt lat="43.43566" lon="-0.63129">
        <ele>114.05</ele>
        <time>2019-10-13T09:29:54Z</time>
      </trkpt>
      <trkpt lat="43.43522" lon="-0.63128">
        <ele>112.13</ele>
        <time>2019-10-13T09:30:02Z</time>
      </trkpt>
      <trkpt lat="43.43501" lon="-0.63119">
        <ele>111.17</ele>
        <time>2019-10-13T09:30:06Z</time>
      </trkpt>
      <trkpt lat="43.43495" lon="-0.63117">
        <ele>111.17</ele>
        <time>2019-10-13T09:30:07Z</time>
      </trkpt>
      <trkpt lat="43.4349" lon="-0.63116">
        <ele>111.17</ele>
        <time>2019-10-13T09:30:08Z</time>
      </trkpt>
      <trkpt lat="43.43483" lon="-0.63116">
        <ele>111.17</ele>
        <time>2019-10-13T09:30:09Z</time>
      </trkpt>
      <trkpt lat="43.43477" lon="-0.63116">
        <ele>111.17</ele>
        <time>2019-10-13T09:30:10Z</time>
      </trkpt>
      <trkpt lat="43.43431" lon="-0.63123">
        <ele>110.69</ele>
        <time>2019-10-13T09:30:17Z</time>
      </trkpt>
      <trkpt lat="43.43398" lon="-0.63136">
        <ele>112.61</ele>
        <time>2019-10-13T09:30:23Z</time>
      </trkpt>
      <trkpt lat="43.4331" lon="-0.63159">
        <ele>111.65</ele>
        <time>2019-10-13T09:30:38Z</time>
      </trkpt>
      <trkpt lat="43.43294" lon="-0.6316">
        <ele>112.61</ele>
        <time>2019-10-13T09:30:41Z</time>
      </trkpt>
      <trkpt lat="43.43288" lon="-0.63157">
        <ele>112.61</ele>
        <time>2019-10-13T09:30:42Z</time>
      </trkpt>
      <trkpt lat="43.43286" lon="-0.63155">
        <ele>112.61</ele>
        <time>2019-10-13T09:30:43Z</time>
      </trkpt>
      <trkpt lat="43.43282" lon="-0.6315">
        <ele>112.61</ele>
        <time>2019-10-13T09:30:44Z</time>
      </trkpt>
      <trkpt lat="43.43278" lon="-0.63145">
        <ele>113.09</ele>
        <time>2019-10-13T09:30:45Z</time>
      </trkpt>
      <trkpt lat="43.43275" lon="-0.63139">
        <ele>113.09</ele>
        <time>2019-10-13T09:30:46Z</time>
      </trkpt>
      <trkpt lat="43.43271" lon="-0.63133">
        <ele>113.09</ele>
        <time>2019-10-13T09:30:47Z</time>
      </trkpt>
      <trkpt lat="43.43267" lon="-0.63128">
        <ele>113.09</ele>
        <time>2019-10-13T09:30:48Z</time>
      </trkpt>
      <trkpt lat="43.43205" lon="-0.63037">
        <ele>113.57</ele>
        <time>2019-10-13T09:31:03Z</time>
      </trkpt>
      <trkpt lat="43.4314" lon="-0.62939">
        <ele>113.57</ele>
        <time>2019-10-13T09:31:18Z</time>
      </trkpt>
      <trkpt lat="43.43061" lon="-0.62822">
        <ele>113.09</ele>
        <time>2019-10-13T09:31:36Z</time>
      </trkpt>
      <trkpt lat="43.42997" lon="-0.6272">
        <ele>113.09</ele>
        <time>2019-10-13T09:31:52Z</time>
      </trkpt>
      <trkpt lat="43.42969" lon="-0.62674">
        <ele>113.57</ele>
        <time>2019-10-13T09:32:00Z</time>
      </trkpt>
      <trkpt lat="43.4297" lon="-0.62672">
        <ele>113.57</ele>
        <time>2019-10-13T09:32:01Z</time>
      </trkpt>
      <trkpt lat="43.42972" lon="-0.6267">
        <ele>113.57</ele>
        <time>2019-10-13T09:32:02Z</time>
      </trkpt>
      <trkpt lat="43.42975" lon="-0.62669">
        <ele>113.57</ele>
        <time>2019-10-13T09:32:03Z</time>
      </trkpt>
      <trkpt lat="43.42978" lon="-0.62666">
        <ele>113.09</ele>
        <time>2019-10-13T09:32:04Z</time>
      </trkpt>
      <trkpt lat="43.42981" lon="-0.62661">
        <ele>113.57</ele>
        <time>2019-10-13T09:32:05Z</time>
      </trkpt>
      <trkpt lat="43.42983" lon="-0.62656">
        <ele>113.09</ele>
        <time>2019-10-13T09:32:06Z</time>
      </trkpt>
      <trkpt lat="43.42986" lon="-0.6265">
        <ele>113.57</ele>
        <time>2019-10-13T09:32:07Z</time>
      </trkpt>
      <trkpt lat="43.42989" lon="-0.62645">
        <ele>113.57</ele>
        <time>2019-10-13T09:32:08Z</time>
      </trkpt>
      <trkpt lat="43.43003" lon="-0.62612">
        <ele>113.09</ele>
        <time>2019-10-13T09:32:13Z</time>
      </trkpt>
      <trkpt lat="43.43005" lon="-0.62605">
        <ele>113.09</ele>
        <time>2019-10-13T09:32:14Z</time>
      </trkpt>
      <trkpt lat="43.43007" lon="-0.62598">
        <ele>113.09</ele>
        <time>2019-10-13T09:32:15Z</time>
      </trkpt>
      <trkpt lat="43.43014" lon="-0.62569">
        <ele>113.09</ele>
        <time>2019-10-13T09:32:19Z</time>
      </trkpt>
      <trkpt lat="43.43017" lon="-0.62563">
        <ele>113.57</ele>
        <time>2019-10-13T09:32:20Z</time>
      </trkpt>
      <trkpt lat="43.4302" lon="-0.62558">
        <ele>113.57</ele>
        <time>2019-10-13T09:32:21Z</time>
      </trkpt>
      <trkpt lat="43.43024" lon="-0.62552">
        <ele>113.57</ele>
        <time>2019-10-13T09:32:22Z</time>
      </trkpt>
      <trkpt lat="43.43029" lon="-0.62547">
        <ele>113.57</ele>
        <time>2019-10-13T09:32:23Z</time>
      </trkpt>
      <trkpt lat="43.43035" lon="-0.62544">
        <ele>113.57</ele>
        <time>2019-10-13T09:32:24Z</time>
      </trkpt>
      <trkpt lat="43.4304" lon="-0.6254">
        <ele>113.57</ele>
        <time>2019-10-13T09:32:25Z</time>
      </trkpt>
      <trkpt lat="43.43129" lon="-0.6249">
        <ele>114.05</ele>
        <time>2019-10-13T09:32:42Z</time>
      </trkpt>
      <trkpt lat="43.43132" lon="-0.62484">
        <ele>114.05</ele>
        <time>2019-10-13T09:32:43Z</time>
      </trkpt>
      <trkpt lat="43.43132" lon="-0.62477">
        <ele>114.05</ele>
        <time>2019-10-13T09:32:44Z</time>
      </trkpt>
      <trkpt lat="43.43131" lon="-0.6247">
        <ele>114.05</ele>
        <time>2019-10-13T09:32:45Z</time>
      </trkpt>
      <trkpt lat="43.43129" lon="-0.62463">
        <ele>114.05</ele>
        <time>2019-10-13T09:32:46Z</time>
      </trkpt>
      <trkpt lat="43.43126" lon="-0.62456">
        <ele>114.53</ele>
        <time>2019-10-13T09:32:47Z</time>
      </trkpt>
      <trkpt lat="43.43124" lon="-0.62449">
        <ele>114.53</ele>
        <time>2019-10-13T09:32:48Z</time>
      </trkpt>
      <trkpt lat="43.43121" lon="-0.62442">
        <ele>114.05</ele>
        <time>2019-10-13T09:32:49Z</time>
      </trkpt>
      <trkpt lat="43.43081" lon="-0.62314">
        <ele>114.05</ele>
        <time>2019-10-13T09:33:06Z</time>
      </trkpt>
      <trkpt lat="43.43068" lon="-0.62274">
        <ele>114.05</ele>
        <time>2019-10-13T09:33:11Z</time>
      </trkpt>
      <trkpt lat="43.43067" lon="-0.62266">
        <ele>114.05</ele>
        <time>2019-10-13T09:33:12Z</time>
      </trkpt>
      <trkpt lat="43.43068" lon="-0.62258">
        <ele>114.05</ele>
        <time>2019-10-13T09:33:13Z</time>
      </trkpt>
      <trkpt lat="43.4307" lon="-0.6225">
        <ele>114.05</ele>
        <time>2019-10-13T09:33:14Z</time>
      </trkpt>
      <trkpt lat="43.43073" lon="-0.62242">
        <ele>114.05</ele>
        <time>2019-10-13T09:33:15Z</time>
      </trkpt>
      <trkpt lat="43.43116" lon="-0.62123">
        <ele>114.53</ele>
        <time>2019-10-13T09:33:30Z</time>
      </trkpt>
      <trkpt lat="43.43153" lon="-0.61992">
        <ele>115.98</ele>
        <time>2019-10-13T09:33:46Z</time>
      </trkpt>
      <trkpt lat="43.43167" lon="-0.61934">
        <ele>115.98</ele>
        <time>2019-10-13T09:33:53Z</time>
      </trkpt>
      <trkpt lat="43.43167" lon="-0.61926">
        <ele>115.98</ele>
        <time>2019-10-13T09:33:54Z</time>
      </trkpt>
      <trkpt lat="43.43169" lon="-0.61885">
        <ele>116.94</ele>
        <time>2019-10-13T09:33:59Z</time>
      </trkpt>
      <trkpt lat="43.43167" lon="-0.61877">
        <ele>117.42</ele>
        <time>2019-10-13T09:34:00Z</time>
      </trkpt>
      <trkpt lat="43.43163" lon="-0.61869">
        <ele>117.42</ele>
        <time>2019-10-13T09:34:01Z</time>
      </trkpt>
      <trkpt lat="43.4316" lon="-0.61863">
        <ele>117.42</ele>
        <time>2019-10-13T09:34:02Z</time>
      </trkpt>
      <trkpt lat="43.43156" lon="-0.61857">
        <ele>117.42</ele>
        <time>2019-10-13T09:34:03Z</time>
      </trkpt>
      <trkpt lat="43.43149" lon="-0.61843">
        <ele>116.94</ele>
        <time>2019-10-13T09:34:05Z</time>
      </trkpt>
      <trkpt lat="43.43146" lon="-0.61835">
        <ele>116.94</ele>
        <time>2019-10-13T09:34:06Z</time>
      </trkpt>
      <trkpt lat="43.43105" lon="-0.61707">
        <ele>116.46</ele>
        <time>2019-10-13T09:34:22Z</time>
      </trkpt>
      <trkpt lat="43.43099" lon="-0.61681">
        <ele>116.46</ele>
        <time>2019-10-13T09:34:25Z</time>
      </trkpt>
      <trkpt lat="43.43098" lon="-0.61673">
        <ele>116.46</ele>
        <time>2019-10-13T09:34:26Z</time>
      </trkpt>
      <trkpt lat="43.43091" lon="-0.61528">
        <ele>116.94</ele>
        <time>2019-10-13T09:34:43Z</time>
      </trkpt>
      <trkpt lat="43.43087" lon="-0.61448">
        <ele>118.38</ele>
        <time>2019-10-13T09:34:53Z</time>
      </trkpt>
      <trkpt lat="43.43085" lon="-0.61441">
        <ele>118.38</ele>
        <time>2019-10-13T09:34:54Z</time>
      </trkpt>
      <trkpt lat="43.43082" lon="-0.61426">
        <ele>118.38</ele>
        <time>2019-10-13T09:34:56Z</time>
      </trkpt>
      <trkpt lat="43.43078" lon="-0.61423">
        <ele>118.38</ele>
        <time>2019-10-13T09:34:57Z</time>
      </trkpt>
      <trkpt lat="43.43073" lon="-0.61422">
        <ele>118.86</ele>
        <time>2019-10-13T09:34:58Z</time>
      </trkpt>
      <trkpt lat="43.43069" lon="-0.61424">
        <ele>118.86</ele>
        <time>2019-10-13T09:34:59Z</time>
      </trkpt>
      <trkpt lat="43.43064" lon="-0.61426">
        <ele>118.86</ele>
        <time>2019-10-13T09:35:00Z</time>
      </trkpt>
      <trkpt lat="43.43059" lon="-0.61428">
        <ele>118.86</ele>
        <time>2019-10-13T09:35:01Z</time>
      </trkpt>
      <trkpt lat="43.43054" lon="-0.61427">
        <ele>118.86</ele>
        <time>2019-10-13T09:35:02Z</time>
      </trkpt>
      <trkpt lat="43.43048" lon="-0.61425">
        <ele>118.86</ele>
        <time>2019-10-13T09:35:03Z</time>
      </trkpt>
      <trkpt lat="43.43044" lon="-0.61422">
        <ele>118.86</ele>
        <time>2019-10-13T09:35:04Z</time>
      </trkpt>
      <trkpt lat="43.43039" lon="-0.61417">
        <ele>118.86</ele>
        <time>2019-10-13T09:35:05Z</time>
      </trkpt>
      <trkpt lat="43.43036" lon="-0.61411">
        <ele>118.86</ele>
        <time>2019-10-13T09:35:06Z</time>
      </trkpt>
      <trkpt lat="43.43032" lon="-0.61405">
        <ele>118.86</ele>
        <time>2019-10-13T09:35:07Z</time>
      </trkpt>
      <trkpt lat="43.42978" lon="-0.6131">
        <ele>119.34</ele>
        <time>2019-10-13T09:35:23Z</time>
      </trkpt>
      <trkpt lat="43.42946" lon="-0.61247">
        <ele>119.34</ele>
        <time>2019-10-13T09:35:32Z</time>
      </trkpt>
      <trkpt lat="43.42908" lon="-0.61159">
        <ele>120.3</ele>
        <time>2019-10-13T09:35:45Z</time>
      </trkpt>
      <trkpt lat="43.42906" lon="-0.61154">
        <ele>120.3</ele>
        <time>2019-10-13T09:35:46Z</time>
      </trkpt>
      <trkpt lat="43.42904" lon="-0.61148">
        <ele>120.3</ele>
        <time>2019-10-13T09:35:47Z</time>
      </trkpt>
      <trkpt lat="43.42902" lon="-0.61142">
        <ele>120.3</ele>
        <time>2019-10-13T09:35:48Z</time>
      </trkpt>
      <trkpt lat="43.42899" lon="-0.61136">
        <ele>120.3</ele>
        <time>2019-10-13T09:35:49Z</time>
      </trkpt>
      <trkpt lat="43.42892" lon="-0.6112">
        <ele>120.3</ele>
        <time>2019-10-13T09:35:52Z</time>
      </trkpt>
      <trkpt lat="43.42882" lon="-0.61092">
        <ele>120.3</ele>
        <time>2019-10-13T09:35:58Z</time>
      </trkpt>
      <trkpt lat="43.42878" lon="-0.61091">
        <ele>120.3</ele>
        <time>2019-10-13T09:35:59Z</time>
      </trkpt>
      <trkpt lat="43.42875" lon="-0.61091">
        <ele>120.3</ele>
        <time>2019-10-13T09:36:00Z</time>
      </trkpt>
      <trkpt lat="43.42863" lon="-0.61093">
        <ele>120.78</ele>
        <time>2019-10-13T09:36:03Z</time>
      </trkpt>
      <trkpt lat="43.4279" lon="-0.61112">
        <ele>121.26</ele>
        <time>2019-10-13T09:36:16Z</time>
      </trkpt>
      <trkpt lat="43.42784" lon="-0.61113">
        <ele>121.26</ele>
        <time>2019-10-13T09:36:17Z</time>
      </trkpt>
      <trkpt lat="43.42694" lon="-0.61156">
        <ele>119.82</ele>
        <time>2019-10-13T09:36:31Z</time>
      </trkpt>
      <trkpt lat="43.42593" lon="-0.61224">
        <ele>119.34</ele>
        <time>2019-10-13T09:36:48Z</time>
      </trkpt>
      <trkpt lat="43.42568" lon="-0.61241">
        <ele>119.34</ele>
        <time>2019-10-13T09:36:52Z</time>
      </trkpt>
      <trkpt lat="43.42561" lon="-0.61245">
        <ele>119.34</ele>
        <time>2019-10-13T09:36:53Z</time>
      </trkpt>
      <trkpt lat="43.42555" lon="-0.61249">
        <ele>119.82</ele>
        <time>2019-10-13T09:36:54Z</time>
      </trkpt>
      <trkpt lat="43.42548" lon="-0.61254">
        <ele>119.82</ele>
        <time>2019-10-13T09:36:55Z</time>
      </trkpt>
      <trkpt lat="43.42542" lon="-0.61258">
        <ele>119.82</ele>
        <time>2019-10-13T09:36:56Z</time>
      </trkpt>
      <trkpt lat="43.42536" lon="-0.61262">
        <ele>120.3</ele>
        <time>2019-10-13T09:36:57Z</time>
      </trkpt>
      <trkpt lat="43.42529" lon="-0.61267">
        <ele>120.78</ele>
        <time>2019-10-13T09:36:58Z</time>
      </trkpt>
      <trkpt lat="43.42458" lon="-0.61311">
        <ele>125.59</ele>
        <time>2019-10-13T09:37:11Z</time>
      </trkpt>
      <trkpt lat="43.42412" lon="-0.61337">
        <ele>126.07</ele>
        <time>2019-10-13T09:37:22Z</time>
      </trkpt>
      <trkpt lat="43.42344" lon="-0.61384">
        <ele>122.71</ele>
        <time>2019-10-13T09:37:37Z</time>
      </trkpt>
      <trkpt lat="43.42294" lon="-0.61429">
        <ele>119.34</ele>
        <time>2019-10-13T09:37:46Z</time>
      </trkpt>
      <trkpt lat="43.42291" lon="-0.61428">
        <ele>118.86</ele>
        <time>2019-10-13T09:37:47Z</time>
      </trkpt>
      <trkpt lat="43.4229" lon="-0.61425">
        <ele>118.86</ele>
        <time>2019-10-13T09:37:48Z</time>
      </trkpt>
      <trkpt lat="43.42289" lon="-0.61422">
        <ele>118.38</ele>
        <time>2019-10-13T09:37:49Z</time>
      </trkpt>
      <trkpt lat="43.42289" lon="-0.61417">
        <ele>117.9</ele>
        <time>2019-10-13T09:37:50Z</time>
      </trkpt>
      <trkpt lat="43.42291" lon="-0.61412">
        <ele>117.9</ele>
        <time>2019-10-13T09:37:51Z</time>
      </trkpt>
      <trkpt lat="43.42293" lon="-0.61407">
        <ele>117.42</ele>
        <time>2019-10-13T09:37:52Z</time>
      </trkpt>
      <trkpt lat="43.42297" lon="-0.61402">
        <ele>117.42</ele>
        <time>2019-10-13T09:37:53Z</time>
      </trkpt>
      <trkpt lat="43.42316" lon="-0.61371">
        <ele>116.94</ele>
        <time>2019-10-13T09:37:59Z</time>
      </trkpt>
      <trkpt lat="43.42318" lon="-0.61364">
        <ele>116.94</ele>
        <time>2019-10-13T09:38:00Z</time>
      </trkpt>
      <trkpt lat="43.42317" lon="-0.61357">
        <ele>116.46</ele>
        <time>2019-10-13T09:38:01Z</time>
      </trkpt>
      <trkpt lat="43.42298" lon="-0.61276">
        <ele>115.98</ele>
        <time>2019-10-13T09:38:12Z</time>
      </trkpt>
      <trkpt lat="43.42295" lon="-0.61268">
        <ele>116.46</ele>
        <time>2019-10-13T09:38:13Z</time>
      </trkpt>
      <trkpt lat="43.42272" lon="-0.61221">
        <ele>116.94</ele>
        <time>2019-10-13T09:38:20Z</time>
      </trkpt>
      <trkpt lat="43.42269" lon="-0.61213">
        <ele>116.94</ele>
        <time>2019-10-13T09:38:21Z</time>
      </trkpt>
      <trkpt lat="43.42253" lon="-0.61134">
        <ele>115.5</ele>
        <time>2019-10-13T09:38:31Z</time>
      </trkpt>
      <trkpt lat="43.42253" lon="-0.61125">
        <ele>115.5</ele>
        <time>2019-10-13T09:38:32Z</time>
      </trkpt>
      <trkpt lat="43.42254" lon="-0.61117">
        <ele>115.5</ele>
        <time>2019-10-13T09:38:33Z</time>
      </trkpt>
      <trkpt lat="43.42256" lon="-0.61109">
        <ele>115.5</ele>
        <time>2019-10-13T09:38:34Z</time>
      </trkpt>
      <trkpt lat="43.42258" lon="-0.61101">
        <ele>115.5</ele>
        <time>2019-10-13T09:38:35Z</time>
      </trkpt>
      <trkpt lat="43.4226" lon="-0.61093">
        <ele>115.5</ele>
        <time>2019-10-13T09:38:36Z</time>
      </trkpt>
      <trkpt lat="43.42261" lon="-0.61084">
        <ele>115.5</ele>
        <time>2019-10-13T09:38:37Z</time>
      </trkpt>
      <trkpt lat="43.42261" lon="-0.61076">
        <ele>115.5</ele>
        <time>2019-10-13T09:38:38Z</time>
      </trkpt>
      <trkpt lat="43.4226" lon="-0.61067">
        <ele>115.01</ele>
        <time>2019-10-13T09:38:39Z</time>
      </trkpt>
      <trkpt lat="43.42258" lon="-0.61059">
        <ele>114.53</ele>
        <time>2019-10-13T09:38:40Z</time>
      </trkpt>
      <trkpt lat="43.42248" lon="-0.60989">
        <ele>114.53</ele>
        <time>2019-10-13T09:38:49Z</time>
      </trkpt>
      <trkpt lat="43.42246" lon="-0.60984">
        <ele>114.53</ele>
        <time>2019-10-13T09:38:50Z</time>
      </trkpt>
      <trkpt lat="43.42241" lon="-0.60981">
        <ele>114.53</ele>
        <time>2019-10-13T09:38:51Z</time>
      </trkpt>
      <trkpt lat="43.42237" lon="-0.60981">
        <ele>114.53</ele>
        <time>2019-10-13T09:38:52Z</time>
      </trkpt>
      <trkpt lat="43.42232" lon="-0.60982">
        <ele>115.01</ele>
        <time>2019-10-13T09:38:53Z</time>
      </trkpt>
      <trkpt lat="43.42228" lon="-0.60984">
        <ele>115.01</ele>
        <time>2019-10-13T09:38:54Z</time>
      </trkpt>
      <trkpt lat="43.42217" lon="-0.60986">
        <ele>115.01</ele>
        <time>2019-10-13T09:38:56Z</time>
      </trkpt>
      <trkpt lat="43.42165" lon="-0.60986">
        <ele>117.9</ele>
        <time>2019-10-13T09:39:07Z</time>
      </trkpt>
      <trkpt lat="43.42144" lon="-0.60979">
        <ele>118.86</ele>
        <time>2019-10-13T09:39:12Z</time>
      </trkpt>
      <trkpt lat="43.4214" lon="-0.60977">
        <ele>118.86</ele>
        <time>2019-10-13T09:39:13Z</time>
      </trkpt>
      <trkpt lat="43.42136" lon="-0.60973">
        <ele>119.34</ele>
        <time>2019-10-13T09:39:14Z</time>
      </trkpt>
      <trkpt lat="43.42134" lon="-0.60967">
        <ele>118.86</ele>
        <time>2019-10-13T09:39:15Z</time>
      </trkpt>
      <trkpt lat="43.42132" lon="-0.60963">
        <ele>118.86</ele>
        <time>2019-10-13T09:39:16Z</time>
      </trkpt>
      <trkpt lat="43.4213" lon="-0.60959">
        <ele>118.86</ele>
        <time>2019-10-13T09:39:17Z</time>
      </trkpt>
      <trkpt lat="43.42128" lon="-0.60954">
        <ele>118.38</ele>
        <time>2019-10-13T09:39:18Z</time>
      </trkpt>
      <trkpt lat="43.42126" lon="-0.60948">
        <ele>118.38</ele>
        <time>2019-10-13T09:39:19Z</time>
      </trkpt>
      <trkpt lat="43.42124" lon="-0.60942">
        <ele>118.38</ele>
        <time>2019-10-13T09:39:20Z</time>
      </trkpt>
      <trkpt lat="43.42123" lon="-0.60936">
        <ele>118.38</ele>
        <time>2019-10-13T09:39:21Z</time>
      </trkpt>
      <trkpt lat="43.42117" lon="-0.60919">
        <ele>118.38</ele>
        <time>2019-10-13T09:39:24Z</time>
      </trkpt>
      <trkpt lat="43.42114" lon="-0.60899">
        <ele>118.86</ele>
        <time>2019-10-13T09:39:27Z</time>
      </trkpt>
      <trkpt lat="43.42117" lon="-0.6088">
        <ele>119.34</ele>
        <time>2019-10-13T09:39:30Z</time>
      </trkpt>
      <trkpt lat="43.42128" lon="-0.6081">
        <ele>121.74</ele>
        <time>2019-10-13T09:39:40Z</time>
      </trkpt>
      <trkpt lat="43.42133" lon="-0.6079">
        <ele>121.74</ele>
        <time>2019-10-13T09:39:43Z</time>
      </trkpt>
      <trkpt lat="43.42134" lon="-0.6074">
        <ele>121.74</ele>
        <time>2019-10-13T09:39:50Z</time>
      </trkpt>
      <trkpt lat="43.42132" lon="-0.60726">
        <ele>121.74</ele>
        <time>2019-10-13T09:39:52Z</time>
      </trkpt>
      <trkpt lat="43.42132" lon="-0.60719">
        <ele>121.74</ele>
        <time>2019-10-13T09:39:53Z</time>
      </trkpt>
      <trkpt lat="43.42132" lon="-0.6071">
        <ele>121.74</ele>
        <time>2019-10-13T09:39:54Z</time>
      </trkpt>
      <trkpt lat="43.42133" lon="-0.60671">
        <ele>122.22</ele>
        <time>2019-10-13T09:39:59Z</time>
      </trkpt>
      <trkpt lat="43.42128" lon="-0.606">
        <ele>121.74</ele>
        <time>2019-10-13T09:40:08Z</time>
      </trkpt>
      <trkpt lat="43.42103" lon="-0.60471">
        <ele>121.26</ele>
        <time>2019-10-13T09:40:24Z</time>
      </trkpt>
      <trkpt lat="43.42068" lon="-0.60318">
        <ele>122.22</ele>
        <time>2019-10-13T09:40:42Z</time>
      </trkpt>
      <trkpt lat="43.42053" lon="-0.60175">
        <ele>121.26</ele>
        <time>2019-10-13T09:40:58Z</time>
      </trkpt>
      <trkpt lat="43.42053" lon="-0.60149">
        <ele>121.26</ele>
        <time>2019-10-13T09:41:01Z</time>
      </trkpt>
      <trkpt lat="43.42065" lon="-0.60005">
        <ele>120.78</ele>
        <time>2019-10-13T09:41:17Z</time>
      </trkpt>
      <trkpt lat="43.42068" lon="-0.59923">
        <ele>121.26</ele>
        <time>2019-10-13T09:41:26Z</time>
      </trkpt>
      <trkpt lat="43.42066" lon="-0.59914">
        <ele>121.26</ele>
        <time>2019-10-13T09:41:27Z</time>
      </trkpt>
      <trkpt lat="43.42064" lon="-0.59905">
        <ele>121.26</ele>
        <time>2019-10-13T09:41:28Z</time>
      </trkpt>
      <trkpt lat="43.42018" lon="-0.59784">
        <ele>121.74</ele>
        <time>2019-10-13T09:41:43Z</time>
      </trkpt>
      <trkpt lat="43.4199" lon="-0.59732">
        <ele>122.22</ele>
        <time>2019-10-13T09:41:50Z</time>
      </trkpt>
      <trkpt lat="43.41986" lon="-0.59726">
        <ele>122.22</ele>
        <time>2019-10-13T09:41:51Z</time>
      </trkpt>
      <trkpt lat="43.4198" lon="-0.5972">
        <ele>122.22</ele>
        <time>2019-10-13T09:41:52Z</time>
      </trkpt>
      <trkpt lat="43.41974" lon="-0.59717">
        <ele>122.22</ele>
        <time>2019-10-13T09:41:53Z</time>
      </trkpt>
      <trkpt lat="43.41968" lon="-0.59715">
        <ele>122.22</ele>
        <time>2019-10-13T09:41:54Z</time>
      </trkpt>
      <trkpt lat="43.41961" lon="-0.59715">
        <ele>122.22</ele>
        <time>2019-10-13T09:41:55Z</time>
      </trkpt>
      <trkpt lat="43.41954" lon="-0.59717">
        <ele>122.71</ele>
        <time>2019-10-13T09:41:56Z</time>
      </trkpt>
      <trkpt lat="43.41947" lon="-0.59719">
        <ele>122.71</ele>
        <time>2019-10-13T09:41:57Z</time>
      </trkpt>
      <trkpt lat="43.41935" lon="-0.59719">
        <ele>122.71</ele>
        <time>2019-10-13T09:41:59Z</time>
      </trkpt>
      <trkpt lat="43.41928" lon="-0.59716">
        <ele>122.71</ele>
        <time>2019-10-13T09:42:00Z</time>
      </trkpt>
      <trkpt lat="43.41923" lon="-0.5971">
        <ele>122.71</ele>
        <time>2019-10-13T09:42:01Z</time>
      </trkpt>
      <trkpt lat="43.41919" lon="-0.59703">
        <ele>122.71</ele>
        <time>2019-10-13T09:42:02Z</time>
      </trkpt>
      <trkpt lat="43.41914" lon="-0.59696">
        <ele>123.19</ele>
        <time>2019-10-13T09:42:03Z</time>
      </trkpt>
      <trkpt lat="43.4191" lon="-0.59688">
        <ele>123.19</ele>
        <time>2019-10-13T09:42:04Z</time>
      </trkpt>
      <trkpt lat="43.41902" lon="-0.59672">
        <ele>123.19</ele>
        <time>2019-10-13T09:42:06Z</time>
      </trkpt>
      <trkpt lat="43.4189" lon="-0.59639">
        <ele>122.71</ele>
        <time>2019-10-13T09:42:10Z</time>
      </trkpt>
      <trkpt lat="43.41888" lon="-0.5963">
        <ele>122.22</ele>
        <time>2019-10-13T09:42:11Z</time>
      </trkpt>
      <trkpt lat="43.41886" lon="-0.59621">
        <ele>122.22</ele>
        <time>2019-10-13T09:42:12Z</time>
      </trkpt>
      <trkpt lat="43.4187" lon="-0.59488">
        <ele>122.71</ele>
        <time>2019-10-13T09:42:27Z</time>
      </trkpt>
      <trkpt lat="43.41855" lon="-0.59387">
        <ele>123.19</ele>
        <time>2019-10-13T09:42:39Z</time>
      </trkpt>
      <trkpt lat="43.41856" lon="-0.59361">
        <ele>123.19</ele>
        <time>2019-10-13T09:42:42Z</time>
      </trkpt>
      <trkpt lat="43.41855" lon="-0.59353">
        <ele>123.19</ele>
        <time>2019-10-13T09:42:43Z</time>
      </trkpt>
      <trkpt lat="43.41853" lon="-0.59343">
        <ele>123.19</ele>
        <time>2019-10-13T09:42:44Z</time>
      </trkpt>
      <trkpt lat="43.41815" lon="-0.59199">
        <ele>123.67</ele>
        <time>2019-10-13T09:43:00Z</time>
      </trkpt>
      <trkpt lat="43.41759" lon="-0.59042">
        <ele>124.15</ele>
        <time>2019-10-13T09:43:18Z</time>
      </trkpt>
      <trkpt lat="43.41714" lon="-0.58897">
        <ele>124.15</ele>
        <time>2019-10-13T09:43:34Z</time>
      </trkpt>
      <trkpt lat="43.41712" lon="-0.58878">
        <ele>124.15</ele>
        <time>2019-10-13T09:43:36Z</time>
      </trkpt>
      <trkpt lat="43.41712" lon="-0.58868">
        <ele>124.15</ele>
        <time>2019-10-13T09:43:37Z</time>
      </trkpt>
      <trkpt lat="43.41713" lon="-0.58858">
        <ele>124.15</ele>
        <time>2019-10-13T09:43:38Z</time>
      </trkpt>
      <trkpt lat="43.41715" lon="-0.58849">
        <ele>124.15</ele>
        <time>2019-10-13T09:43:39Z</time>
      </trkpt>
      <trkpt lat="43.41716" lon="-0.5884">
        <ele>124.15</ele>
        <time>2019-10-13T09:43:40Z</time>
      </trkpt>
      <trkpt lat="43.41717" lon="-0.5883">
        <ele>124.15</ele>
        <time>2019-10-13T09:43:41Z</time>
      </trkpt>
      <trkpt lat="43.41717" lon="-0.58821">
        <ele>124.15</ele>
        <time>2019-10-13T09:43:42Z</time>
      </trkpt>
      <trkpt lat="43.41714" lon="-0.58812">
        <ele>124.15</ele>
        <time>2019-10-13T09:43:43Z</time>
      </trkpt>
      <trkpt lat="43.41711" lon="-0.58804">
        <ele>124.15</ele>
        <time>2019-10-13T09:43:44Z</time>
      </trkpt>
      <trkpt lat="43.41707" lon="-0.58796">
        <ele>124.15</ele>
        <time>2019-10-13T09:43:45Z</time>
      </trkpt>
      <trkpt lat="43.41684" lon="-0.58751">
        <ele>123.67</ele>
        <time>2019-10-13T09:43:51Z</time>
      </trkpt>
      <trkpt lat="43.41681" lon="-0.58744">
        <ele>124.15</ele>
        <time>2019-10-13T09:43:52Z</time>
      </trkpt>
      <trkpt lat="43.41672" lon="-0.58722">
        <ele>124.15</ele>
        <time>2019-10-13T09:43:55Z</time>
      </trkpt>
      <trkpt lat="43.41671" lon="-0.58714">
        <ele>124.15</ele>
        <time>2019-10-13T09:43:56Z</time>
      </trkpt>
      <trkpt lat="43.41657" lon="-0.58587">
        <ele>124.63</ele>
        <time>2019-10-13T09:44:10Z</time>
      </trkpt>
      <trkpt lat="43.41654" lon="-0.58569">
        <ele>125.11</ele>
        <time>2019-10-13T09:44:12Z</time>
      </trkpt>
      <trkpt lat="43.4161" lon="-0.58443">
        <ele>125.59</ele>
        <time>2019-10-13T09:44:27Z</time>
      </trkpt>
      <trkpt lat="43.41562" lon="-0.58303">
        <ele>126.55</ele>
        <time>2019-10-13T09:44:44Z</time>
      </trkpt>
      <trkpt lat="43.41545" lon="-0.58245">
        <ele>126.55</ele>
        <time>2019-10-13T09:44:51Z</time>
      </trkpt>
      <trkpt lat="43.41541" lon="-0.58208">
        <ele>126.55</ele>
        <time>2019-10-13T09:44:55Z</time>
      </trkpt>
      <trkpt lat="43.41539" lon="-0.582">
        <ele>126.55</ele>
        <time>2019-10-13T09:44:56Z</time>
      </trkpt>
      <trkpt lat="43.41494" lon="-0.58074">
        <ele>126.07</ele>
        <time>2019-10-13T09:45:11Z</time>
      </trkpt>
      <trkpt lat="43.41455" lon="-0.57954">
        <ele>126.55</ele>
        <time>2019-10-13T09:45:26Z</time>
      </trkpt>
      <trkpt lat="43.41449" lon="-0.57938">
        <ele>126.55</ele>
        <time>2019-10-13T09:45:28Z</time>
      </trkpt>
      <trkpt lat="43.41447" lon="-0.5793">
        <ele>127.03</ele>
        <time>2019-10-13T09:45:29Z</time>
      </trkpt>
      <trkpt lat="43.41423" lon="-0.57857">
        <ele>127.03</ele>
        <time>2019-10-13T09:45:38Z</time>
      </trkpt>
      <trkpt lat="43.41412" lon="-0.57823">
        <ele>127.03</ele>
        <time>2019-10-13T09:45:42Z</time>
      </trkpt>
      <trkpt lat="43.41409" lon="-0.57815">
        <ele>127.03</ele>
        <time>2019-10-13T09:45:43Z</time>
      </trkpt>
      <trkpt lat="43.41405" lon="-0.57808">
        <ele>127.03</ele>
        <time>2019-10-13T09:45:44Z</time>
      </trkpt>
      <trkpt lat="43.41401" lon="-0.57801">
        <ele>127.03</ele>
        <time>2019-10-13T09:45:45Z</time>
      </trkpt>
      <trkpt lat="43.41396" lon="-0.57794">
        <ele>127.03</ele>
        <time>2019-10-13T09:45:46Z</time>
      </trkpt>
      <trkpt lat="43.41391" lon="-0.57788">
        <ele>127.51</ele>
        <time>2019-10-13T09:45:47Z</time>
      </trkpt>
      <trkpt lat="43.41324" lon="-0.57691">
        <ele>127.51</ele>
        <time>2019-10-13T09:46:02Z</time>
      </trkpt>
      <trkpt lat="43.41317" lon="-0.57678">
        <ele>127.99</ele>
        <time>2019-10-13T09:46:04Z</time>
      </trkpt>
      <trkpt lat="43.41288" lon="-0.57633">
        <ele>128.47</ele>
        <time>2019-10-13T09:46:11Z</time>
      </trkpt>
      <trkpt lat="43.41285" lon="-0.57625">
        <ele>128.47</ele>
        <time>2019-10-13T09:46:12Z</time>
      </trkpt>
      <trkpt lat="43.41282" lon="-0.57618">
        <ele>128.47</ele>
        <time>2019-10-13T09:46:13Z</time>
      </trkpt>
      <trkpt lat="43.41281" lon="-0.5761">
        <ele>128.47</ele>
        <time>2019-10-13T09:46:14Z</time>
      </trkpt>
      <trkpt lat="43.4128" lon="-0.57602">
        <ele>128.95</ele>
        <time>2019-10-13T09:46:15Z</time>
      </trkpt>
      <trkpt lat="43.41273" lon="-0.57494">
        <ele>128.47</ele>
        <time>2019-10-13T09:46:31Z</time>
      </trkpt>
      <trkpt lat="43.41268" lon="-0.57476">
        <ele>128.47</ele>
        <time>2019-10-13T09:46:35Z</time>
      </trkpt>
      <trkpt lat="43.41264" lon="-0.57475">
        <ele>128.47</ele>
        <time>2019-10-13T09:46:36Z</time>
      </trkpt>
      <trkpt lat="43.41262" lon="-0.57475">
        <ele>128.47</ele>
        <time>2019-10-13T09:46:37Z</time>
      </trkpt>
      <trkpt lat="43.41259" lon="-0.57475">
        <ele>128.47</ele>
        <time>2019-10-13T09:46:38Z</time>
      </trkpt>
      <trkpt lat="43.41255" lon="-0.57476">
        <ele>128.47</ele>
        <time>2019-10-13T09:46:39Z</time>
      </trkpt>
      <trkpt lat="43.41252" lon="-0.57475">
        <ele>128.47</ele>
        <time>2019-10-13T09:46:40Z</time>
      </trkpt>
      <trkpt lat="43.41203" lon="-0.57484">
        <ele>128.47</ele>
        <time>2019-10-13T09:46:55Z</time>
      </trkpt>
      <trkpt lat="43.4115" lon="-0.57499">
        <ele>129.92</ele>
        <time>2019-10-13T09:47:09Z</time>
      </trkpt>
      <trkpt lat="43.41104" lon="-0.57499">
        <ele>127.51</ele>
        <time>2019-10-13T09:47:22Z</time>
      </trkpt>
      <trkpt lat="43.41078" lon="-0.57457">
        <ele>126.07</ele>
        <time>2019-10-13T09:47:33Z</time>
      </trkpt>
      <trkpt lat="43.41077" lon="-0.57452">
        <ele>126.07</ele>
        <time>2019-10-13T09:47:34Z</time>
      </trkpt>
      <trkpt lat="43.41076" lon="-0.57446">
        <ele>126.07</ele>
        <time>2019-10-13T09:47:35Z</time>
      </trkpt>
      <trkpt lat="43.41073" lon="-0.57426">
        <ele>126.07</ele>
        <time>2019-10-13T09:47:38Z</time>
      </trkpt>
      <trkpt lat="43.41061" lon="-0.57316">
        <ele>127.99</ele>
        <time>2019-10-13T09:47:53Z</time>
      </trkpt>
      <trkpt lat="43.41059" lon="-0.57309">
        <ele>127.99</ele>
        <time>2019-10-13T09:47:54Z</time>
      </trkpt>
      <trkpt lat="43.41057" lon="-0.57303">
        <ele>127.99</ele>
        <time>2019-10-13T09:47:55Z</time>
      </trkpt>
      <trkpt lat="43.4105" lon="-0.57291">
        <ele>127.99</ele>
        <time>2019-10-13T09:47:57Z</time>
      </trkpt>
      <trkpt lat="43.41046" lon="-0.57285">
        <ele>128.47</ele>
        <time>2019-10-13T09:47:58Z</time>
      </trkpt>
      <trkpt lat="43.41042" lon="-0.5728">
        <ele>128.47</ele>
        <time>2019-10-13T09:47:59Z</time>
      </trkpt>
      <trkpt lat="43.40991" lon="-0.57214">
        <ele>128.95</ele>
        <time>2019-10-13T09:48:12Z</time>
      </trkpt>
      <trkpt lat="43.40988" lon="-0.57207">
        <ele>128.95</ele>
        <time>2019-10-13T09:48:13Z</time>
      </trkpt>
      <trkpt lat="43.40957" lon="-0.57106">
        <ele>129.43</ele>
        <time>2019-10-13T09:48:27Z</time>
      </trkpt>
      <trkpt lat="43.4093" lon="-0.5699">
        <ele>129.92</ele>
        <time>2019-10-13T09:48:42Z</time>
      </trkpt>
      <trkpt lat="43.40914" lon="-0.56923">
        <ele>130.4</ele>
        <time>2019-10-13T09:48:51Z</time>
      </trkpt>
      <trkpt lat="43.40895" lon="-0.56855">
        <ele>130.4</ele>
        <time>2019-10-13T09:49:00Z</time>
      </trkpt>
      <trkpt lat="43.40874" lon="-0.56753">
        <ele>130.4</ele>
        <time>2019-10-13T09:49:15Z</time>
      </trkpt>
      <trkpt lat="43.4087" lon="-0.56741">
        <ele>130.4</ele>
        <time>2019-10-13T09:49:17Z</time>
      </trkpt>
      <trkpt lat="43.40868" lon="-0.56737">
        <ele>130.4</ele>
        <time>2019-10-13T09:49:18Z</time>
      </trkpt>
      <trkpt lat="43.40866" lon="-0.56735">
        <ele>129.92</ele>
        <time>2019-10-13T09:49:19Z</time>
      </trkpt>
      <trkpt lat="43.40862" lon="-0.56734">
        <ele>129.92</ele>
        <time>2019-10-13T09:49:20Z</time>
      </trkpt>
      <trkpt lat="43.40859" lon="-0.56734">
        <ele>129.92</ele>
        <time>2019-10-13T09:49:21Z</time>
      </trkpt>
      <trkpt lat="43.40856" lon="-0.56735">
        <ele>129.92</ele>
        <time>2019-10-13T09:49:22Z</time>
      </trkpt>
      <trkpt lat="43.40795" lon="-0.56749">
        <ele>130.4</ele>
        <time>2019-10-13T09:49:35Z</time>
      </trkpt>
      <trkpt lat="43.40744" lon="-0.56746">
        <ele>130.4</ele>
        <time>2019-10-13T09:49:45Z</time>
      </trkpt>
      <trkpt lat="43.4073" lon="-0.5675">
        <ele>130.88</ele>
        <time>2019-10-13T09:49:48Z</time>
      </trkpt>
      <trkpt lat="43.40696" lon="-0.5676">
        <ele>130.4</ele>
        <time>2019-10-13T09:49:56Z</time>
      </trkpt>
      <trkpt lat="43.40691" lon="-0.56756">
        <ele>130.88</ele>
        <time>2019-10-13T09:49:57Z</time>
      </trkpt>
      <trkpt lat="43.40689" lon="-0.56752">
        <ele>130.88</ele>
        <time>2019-10-13T09:49:58Z</time>
      </trkpt>
      <trkpt lat="43.40688" lon="-0.56749">
        <ele>130.88</ele>
        <time>2019-10-13T09:49:59Z</time>
      </trkpt>
      <trkpt lat="43.40686" lon="-0.56744">
        <ele>130.88</ele>
        <time>2019-10-13T09:50:00Z</time>
      </trkpt>
      <trkpt lat="43.40672" lon="-0.56697">
        <ele>129.43</ele>
        <time>2019-10-13T09:50:08Z</time>
      </trkpt>
      <trkpt lat="43.40669" lon="-0.56691">
        <ele>129.43</ele>
        <time>2019-10-13T09:50:09Z</time>
      </trkpt>
      <trkpt lat="43.40666" lon="-0.56686">
        <ele>128.95</ele>
        <time>2019-10-13T09:50:10Z</time>
      </trkpt>
      <trkpt lat="43.40662" lon="-0.56682">
        <ele>128.95</ele>
        <time>2019-10-13T09:50:11Z</time>
      </trkpt>
      <trkpt lat="43.40658" lon="-0.56678">
        <ele>128.95</ele>
        <time>2019-10-13T09:50:12Z</time>
      </trkpt>
      <trkpt lat="43.40595" lon="-0.56638">
        <ele>130.4</ele>
        <time>2019-10-13T09:50:26Z</time>
      </trkpt>
      <trkpt lat="43.4059" lon="-0.56637">
        <ele>130.88</ele>
        <time>2019-10-13T09:50:27Z</time>
      </trkpt>
      <trkpt lat="43.40584" lon="-0.56639">
        <ele>130.88</ele>
        <time>2019-10-13T09:50:28Z</time>
      </trkpt>
      <trkpt lat="43.4058" lon="-0.56641">
        <ele>130.88</ele>
        <time>2019-10-13T09:50:29Z</time>
      </trkpt>
      <trkpt lat="43.40577" lon="-0.56644">
        <ele>130.88</ele>
        <time>2019-10-13T09:50:30Z</time>
      </trkpt>
      <trkpt lat="43.4056" lon="-0.56656">
        <ele>130.88</ele>
        <time>2019-10-13T09:50:34Z</time>
      </trkpt>
      <trkpt lat="43.40556" lon="-0.56657">
        <ele>130.88</ele>
        <time>2019-10-13T09:50:35Z</time>
      </trkpt>
      <trkpt lat="43.40543" lon="-0.56661">
        <ele>131.36</ele>
        <time>2019-10-13T09:50:38Z</time>
      </trkpt>
    </trkseg>
  </trk>
</gpx>